[[{"header":{"parameterUnit":"m.s-1","parameterCategory":1,"la1":31.0,"la2":29.5877,"lo1":-88.7671,"lo2":-86.6584,"dy":0.0162,"dx":0.0185,"nx":115,"ny":88,"refTime":"2023-08-13T06:00:00:Z","depth":0,"parameterNumber":2,"parameterNumberName":"U-component_of_WINDS"},"data":[0.0,0.0,0.0,0.0,0.0,0.0,0.0,0.0,0.0,0.0,0.0,0.0,0.0,0.0,0.0,0.0,0.0,0.0,0.0,0.0,0.0,0.0,0.0,0.0,0.0,0.0,0.0,0.0,0.0,0.0,0.0,0.0,0.0,0.0,0.0,0.0,0.0,0.0,0.0,0.0,0.0,0.0,0.0,0.0,0.0,0.0,0.0,0.0,0.0,0.0,0.0,0.0,0.0,0.0,0.0,0.0,0.0,0.0,0.0,0.0,0.0,0.0,0.0,0.0,0.0,0.0,0.0,0.0,0.0,0.0,0.0,0.0,0.0,0.0,0.0,0.0,0.0,0.0,0.0,0.0,0.0,0.0,0.0,0.0,0.0,0.0,0.0,0.0,0.0,0.0,0.0,0.0,0.0,0.0,0.0,0.0,0.0,0.0,0.0,0.0,0.0,0.0,0.0,0.0,0.0,0.0,0.0,0.0,0.0,0.0,0.0,0.0,0.0,0.0,0.0,0.0,0.0,0.0,0.0,0.0,0.0,0.0,0.0,0.0,0.0,0.0,0.0,0.0,0.0,0.0,0.0,0.0,0.0,0.0,0.0,0.0,0.0,0.0,0.0,0.0,0.0,0.0,0.0,0.0,0.0,0.0,0.0,0.0,0.0,0.0,0.0,0.0,0.0,0.0,0.0,0.0,0.0,0.0,0.0,0.0,0.0,0.0,0.0,0.0,0.0,0.0,0.0,0.0,0.0,0.0,0.0,0.0,0.0,0.0,0.0,0.0,0.0,0.0,0.0,0.0,0.0,0.0,0.0,0.0,0.0,0.0,0.0,0.0,0.0,0.0,0.0,0.0,0.0,0.0,0.0,0.0,0.0,0.0,0.0,0.0,0.0,0.0,0.0,0.0,0.0,0.0,0.0,0.0,0.0,0.0,0.0,0.0,0.0,0.0,0.0,0.0,0.0,0.0,0.0,0.0,0.0,0.0,0.0,0.0,0.0,0.0,0.0,0.0,0.0,0.0,0.0,0.0,0.0,0.0,0.0,0.0,0.0,0.0,0.0,0.0,0.0,0.0,0.0,0.0,0.0,0.0,0.0,0.0,0.0,0.0,0.0,0.0,0.0,0.0,0.0,0.0,0.0,0.0,0.0,0.0,0.0,0.0,0.0,0.0,0.0,0.0,0.0,0.0,0.0,0.0,0.0,0.0,0.0,0.0,0.0,0.0,0.0,0.0,0.0,0.0,0.0,0.0,0.0,0.0,0.0,0.0,0.0,0.0,0.0,0.0,0.0,0.0,0.0,0.0,0.0,0.0,0.0,0.0,0.0,0.0,0.0,0.0,0.0,0.0,0.0,0.0,0.0,0.0,0.0,0.0,0.0,0.0,0.0,0.0,0.0,0.0,0.0,0.0,0.0,0.0,0.0,0.0,0.0,0.0,0.0,0.0,0.0,0.0,0.0,0.0,0.0,0.0,0.0,0.0,0.0,0.0,0.0,0.0,0.0,0.0,0.0,0.0,0.0,0.0,0.0,0.0,0.0,0.0,0.0,0.0,0.0,0.0,0.0,0.0,0.0,0.0,0.0,0.0,0.0,0.0,0.0,0.0,0.0,0.0,0.0,0.0,0.0,0.0,0.0,0.0,0.0,0.0,0.0,0.0,0.0,0.0,0.0,0.0,0.0,0.0,0.0,0.0,0.0,0.0,0.0,0.0,0.0,0.0,0.0,0.0,0.0,0.0,0.0,0.0,0.0,0.0,0.0,0.0,0.0,0.0,0.0,0.0,0.0,0.0,0.0,0.0,0.0,0.0,0.0,0.0,0.0,0.0,0.0,0.0,0.0,0.0,0.0,0.0,0.0,0.0,0.0,0.0,0.0,0.0,0.0,0.0,0.0,0.0,0.0,0.0,0.0,0.0,0.0,0.0,0.0,0.0,0.0,0.0,0.0,0.0,0.0,0.0,0.0,0.0,0.0,0.0,0.0,0.0,0.0,0.0,0.0,0.0,0.0,0.0,0.0,0.0,0.0,0.0,0.0,0.0,0.0,0.0,0.0,0.0,0.0,0.0,0.0,0.0,0.0,0.0,0.0,0.0,0.0,0.0,0.0,0.0,0.0,0.0,0.0,0.0,0.0,0.0,0.0,0.0,0.0,0.0,0.0,0.0,0.0,0.0,0.0,0.0,0.0,0.0,0.0,0.0,0.0,0.0,0.0,0.0,0.0,0.0,0.0,0.0,0.0,0.0,0.0,0.0,0.0,0.0,0.0,0.0,0.0,0.0,0.0,0.0,0.0,0.0,0.0,0.0,0.0,0.0,0.0,0.0,0.0,0.0,0.0,0.0,0.0,0.0,0.0,0.0,0.0,0.0,0.0,0.0,0.0,0.0,0.0,0.0,0.0,0.0,0.0,0.0,0.0,0.0,0.0,0.0,0.0,0.0,0.0,0.0,0.0,0.0,0.0,0.0,0.0,0.0,0.0,0.0,0.0,0.0,0.0,0.0,0.0,0.0,0.0,0.0,0.0,0.0,0.0,0.0,0.0,0.0,0.0,0.0,0.0,0.0,0.0,0.0,0.0,0.0,0.0,0.0,0.0,0.0,0.0,0.0,0.0,0.0,0.0,0.0,0.0,0.0,0.0,0.0,0.0,0.0,0.0,0.0,0.0,0.0,0.0,0.0,0.0,0.0,0.0,0.0,0.0,0.0,0.0,0.0,0.0,0.0,0.0,0.0,0.0,0.0,0.0,0.0,0.0,0.0,0.0,0.0,0.0,0.0,0.0,0.0,0.0,0.0,0.0,0.0,0.0,0.0,0.0,0.0,0.0,0.0,0.0,0.0,0.0,0.0,0.0,0.0,0.0,0.0,0.0,0.0,0.0,0.0,0.0,0.0,0.0,0.0,0.0,0.0,0.0,0.0,0.0,0.0,0.0,0.0,0.0,0.0,0.0,0.0,0.0,0.0,0.0,0.0,0.0,0.0,0.0,0.0,0.0,0.0,0.0,0.0,0.0,0.0,0.0,0.0,0.0,0.0,0.0,0.0,0.0,0.0,0.0,0.0,0.0,0.0,0.0,0.0,0.0,0.0,0.0,0.0,0.0,0.0,0.0,0.0,0.0,0.0,0.0,0.0,0.0,0.0,0.0,0.0,0.0,0.0,0.0,0.0,0.0,0.0,0.0,0.0,0.0,0.0,0.0,0.0,0.0,0.0,0.0,0.0,0.0,0.0,0.0,0.0,0.0,0.0,0.0,0.0,0.0,0.0,0.0,0.0,0.0,0.0,0.0,0.0,0.0,0.0,0.0,0.0,0.0,0.0,0.0,0.0,0.0,0.0,0.0,0.0,0.0,0.0,0.0,0.0,0.0,0.0,0.0,0.0,0.0,0.0,0.0,0.0,0.0,0.0,0.0,0.0,0.0,0.0,0.0,0.0,0.0,0.0,0.0,0.0,0.0,0.0,0.0,0.0,0.0,0.0,0.0,0.0,0.0,0.0,0.0,0.0,0.0,0.0,0.0,0.0,0.0,0.0,0.0,0.0,0.0,0.0,0.0,0.0,0.0,0.0,0.0,0.0,0.0,0.0,0.0,0.0,0.0,0.0,0.0,0.0,0.0,0.0,0.0,0.0,0.0,0.0,0.0,0.0,0.0,0.0,0.0,0.0,0.0,0.0,0.0,0.0,0.0,0.0,0.0,0.0,0.0,0.0,0.0,0.0,0.0,0.0,0.0,0.0,0.0,0.0,0.0,0.0,0.0,0.0,0.0,0.0,0.0,0.0,0.0,0.0,0.0,0.0,0.0,0.0,0.0,0.0,0.0,0.0,0.0,0.0,0.0,0.0,0.0,0.0,0.0,0.0,0.0,0.0,0.0,0.0,0.0,0.0,0.0,0.0,0.0,0.0,0.0,0.0,0.0,0.0,0.0,0.0,0.0,0.0,0.0,0.0,0.0,0.0,0.0,0.0,0.0,0.0,0.0,0.0,0.0,0.0,0.0,0.0,0.0,0.0,0.0,0.0,0.0,0.0,0.0,0.0,0.0,0.0,0.0,0.0,0.0,0.0,0.0,0.0,0.0,0.0,0.0,0.0,0.0,0.0,0.0,0.0,0.0,0.0,0.0,0.0,0.0,0.0,0.0,0.0,0.0,0.0,0.0,0.0,0.0,0.0,0.0,0.0,0.0,0.0,0.0,0.0,0.0,0.0,0.0,0.0,0.0,0.0,0.0,0.0,0.0,0.0,0.0,0.0,0.0,0.0,0.0,0.0,0.0,0.0,0.0,0.0,-4.032,0.0,0.0,0.0,0.0,0.0,0.0,0.0,0.0,0.0,0.0,0.0,0.0,0.0,0.0,0.0,0.0,0.0,0.0,0.0,0.0,0.0,0.0,0.0,0.0,0.0,0.0,0.0,0.0,0.0,0.0,0.0,0.0,0.0,0.0,0.0,0.0,0.0,0.0,0.0,0.0,0.0,0.0,0.0,0.0,0.0,0.0,0.0,0.0,0.0,0.0,0.0,0.0,0.0,0.0,0.0,0.0,0.0,0.0,0.0,0.0,0.0,0.0,0.0,0.0,0.0,0.0,0.0,0.0,0.0,0.0,0.0,0.0,0.0,0.0,0.0,0.0,0.0,0.0,0.0,0.0,0.0,0.0,0.0,0.0,0.0,0.0,0.0,0.0,0.0,0.0,0.0,0.0,0.0,0.0,0.0,0.0,0.0,0.0,0.0,0.0,0.0,0.0,0.0,0.0,0.0,0.0,0.0,0.0,0.0,0.0,-4.032,-4.032,-4.032,-4.032,-4.0301,0.0,0.0,0.0,0.0,0.0,0.0,0.0,0.0,0.0,0.0,0.0,0.0,0.0,0.0,0.0,0.0,0.0,0.0,0.0,0.0,0.0,0.0,0.0,0.0,0.0,0.0,0.0,0.0,0.0,0.0,0.0,0.0,0.0,0.0,0.0,0.0,0.0,0.0,0.0,0.0,0.0,0.0,0.0,0.0,0.0,0.0,0.0,0.0,0.0,0.0,0.0,0.0,0.0,0.0,0.0,0.0,0.0,0.0,0.0,0.0,0.0,0.0,0.0,0.0,0.0,0.0,0.0,0.0,0.0,0.0,0.0,0.0,0.0,0.0,0.0,0.0,0.0,0.0,0.0,0.0,0.0,0.0,0.0,0.0,0.0,0.0,0.0,0.0,0.0,0.0,0.0,0.0,0.0,0.0,0.0,0.0,0.0,0.0,0.0,0.0,0.0,0.0,0.0,0.0,0.0,0.0,0.0,0.0,0.0,0.0,0.0,0.0,-4.032,-4.0282,-4.0282,0.0,0.0,0.0,0.0,0.0,0.0,0.0,0.0,0.0,0.0,0.0,0.0,0.0,0.0,0.0,0.0,0.0,0.0,0.0,0.0,0.0,0.0,0.0,0.0,0.0,0.0,0.0,0.0,0.0,0.0,0.0,0.0,0.0,0.0,0.0,0.0,0.0,0.0,0.0,0.0,0.0,0.0,0.0,0.0,0.0,0.0,0.0,0.0,0.0,0.0,0.0,0.0,0.0,0.0,0.0,0.0,0.0,0.0,0.0,0.0,0.0,0.0,0.0,0.0,0.0,0.0,0.0,0.0,0.0,0.0,0.0,0.0,0.0,0.0,0.0,0.0,0.0,0.0,0.0,0.0,0.0,0.0,0.0,0.0,0.0,0.0,0.0,0.0,0.0,0.0,0.0,0.0,0.0,0.0,0.0,0.0,0.0,0.0,0.0,0.0,0.0,0.0,0.0,0.0,0.0,0.0,0.0,0.0,0.0,0.0,-4.032,-4.032,-4.0301,0.0,-4.0225,0.0,0.0,0.0,0.0,0.0,0.0,0.0,0.0,0.0,0.0,0.0,0.0,0.0,0.0,0.0,0.0,0.0,0.0,0.0,0.0,0.0,0.0,0.0,0.0,0.0,0.0,0.0,0.0,0.0,0.0,0.0,0.0,0.0,0.0,0.0,0.0,0.0,0.0,0.0,0.0,0.0,0.0,0.0,0.0,0.0,0.0,0.0,0.0,0.0,0.0,0.0,0.0,0.0,0.0,0.0,0.0,0.0,0.0,0.0,0.0,0.0,0.0,0.0,0.0,0.0,0.0,0.0,0.0,0.0,0.0,0.0,0.0,0.0,0.0,0.0,0.0,0.0,0.0,0.0,0.0,0.0,0.0,0.0,0.0,0.0,0.0,0.0,0.0,0.0,0.0,0.0,0.0,0.0,0.0,0.0,0.0,0.0,0.0,0.0,0.0,0.0,0.0,0.0,0.0,0.0,0.0,0.0,0.0,0.0,0.0,-4.032,-4.032,-4.0263,-3.9958,0.0,0.0,0.0,0.0,0.0,0.0,0.0,0.0,0.0,0.0,0.0,0.0,0.0,0.0,0.0,0.0,0.0,0.0,0.0,0.0,0.0,0.0,0.0,0.0,0.0,0.0,0.0,0.0,0.0,0.0,0.0,0.0,0.0,0.0,0.0,0.0,0.0,0.0,0.0,0.0,0.0,0.0,0.0,0.0,0.0,0.0,0.0,0.0,0.0,0.0,0.0,0.0,0.0,0.0,0.0,0.0,0.0,0.0,0.0,0.0,0.0,0.0,0.0,0.0,0.0,0.0,0.0,0.0,0.0,0.0,0.0,0.0,0.0,0.0,0.0,0.0,0.0,0.0,0.0,0.0,0.0,0.0,0.0,0.0,0.0,0.0,0.0,0.0,0.0,0.0,0.0,0.0,0.0,0.0,0.0,0.0,0.0,0.0,0.0,0.0,0.0,0.0,0.0,0.0,0.0,0.0,0.0,0.0,0.0,0.0,-4.0511,-4.0607,-4.0607,-4.033,-3.9862,-3.9154,0.0,0.0,0.0,0.0,0.0,0.0,0.0,0.0,0.0,0.0,0.0,0.0,0.0,0.0,0.0,0.0,0.0,0.0,0.0,0.0,0.0,0.0,0.0,0.0,0.0,0.0,0.0,0.0,0.0,0.0,0.0,0.0,0.0,0.0,0.0,0.0,0.0,0.0,0.0,0.0,0.0,0.0,0.0,0.0,0.0,0.0,0.0,0.0,0.0,0.0,0.0,0.0,0.0,0.0,0.0,0.0,0.0,0.0,0.0,0.0,0.0,0.0,0.0,0.0,0.0,0.0,0.0,0.0,0.0,0.0,0.0,0.0,0.0,0.0,0.0,0.0,0.0,0.0,0.0,0.0,0.0,0.0,0.0,0.0,0.0,0.0,0.0,0.0,0.0,0.0,0.0,0.0,0.0,0.0,0.0,0.0,0.0,0.0,0.0,0.0,0.0,0.0,0.0,0.0,0.0,0.0,0.0,0.0,-4.0339,-4.1055,-4.1418,-4.1321,-4.0615,-4.0109,0.0,0.0,0.0,0.0,0.0,0.0,0.0,0.0,0.0,0.0,0.0,0.0,0.0,0.0,0.0,0.0,0.0,0.0,0.0,0.0,0.0,0.0,0.0,0.0,0.0,0.0,0.0,0.0,0.0,0.0,0.0,0.0,0.0,0.0,0.0,0.0,0.0,0.0,0.0,0.0,0.0,0.0,0.0,0.0,0.0,0.0,0.0,0.0,0.0,0.0,0.0,0.0,0.0,0.0,0.0,0.0,0.0,0.0,0.0,0.0,0.0,0.0,0.0,0.0,0.0,0.0,0.0,0.0,0.0,0.0,0.0,0.0,0.0,0.0,0.0,0.0,0.0,0.0,0.0,0.0,0.0,0.0,0.0,0.0,0.0,0.0,0.0,0.0,0.0,0.0,0.0,0.0,0.0,0.0,0.0,0.0,0.0,0.0,0.0,0.0,0.0,0.0,0.0,0.0,0.0,0.0,0.0,0.0,0.0,-4.1074,-4.1877,-4.2029,-4.1435,-4.1119,-4.0648,0.0,0.0,0.0,0.0,0.0,0.0,0.0,0.0,0.0,0.0,0.0,0.0,0.0,0.0,0.0,0.0,0.0,0.0,0.0,0.0,0.0,0.0,0.0,0.0,0.0,0.0,0.0,0.0,0.0,0.0,0.0,0.0,0.0,0.0,0.0,0.0,0.0,0.0,0.0,0.0,0.0,0.0,0.0,0.0,0.0,0.0,0.0,0.0,0.0,0.0,0.0,0.0,0.0,0.0,0.0,0.0,0.0,0.0,0.0,0.0,0.0,0.0,0.0,0.0,0.0,0.0,0.0,0.0,0.0,0.0,0.0,0.0,0.0,0.0,0.0,0.0,0.0,0.0,0.0,0.0,0.0,0.0,0.0,0.0,0.0,0.0,0.0,0.0,0.0,0.0,0.0,0.0,0.0,0.0,0.0,0.0,0.0,0.0,0.0,0.0,0.0,0.0,0.0,0.0,0.0,0.0,0.0,0.0,0.0,-4.2259,0.0,-4.2592,-4.2224,-4.1689,-4.094,0.0,0.0,0.0,0.0,0.0,0.0,0.0,0.0,0.0,0.0,0.0,0.0,0.0,0.0,0.0,0.0,0.0,0.0,0.0,0.0,0.0,0.0,0.0,0.0,0.0,0.0,0.0,0.0,0.0,0.0,0.0,0.0,0.0,0.0,0.0,0.0,0.0,0.0,0.0,0.0,0.0,0.0,0.0,0.0,0.0,0.0,0.0,0.0,0.0,0.0,0.0,0.0,0.0,0.0,0.0,0.0,0.0,0.0,0.0,0.0,0.0,0.0,0.0,0.0,0.0,0.0,0.0,0.0,0.0,0.0,0.0,0.0,0.0,0.0,0.0,0.0,0.0,0.0,0.0,0.0,0.0,0.0,0.0,0.0,0.0,0.0,0.0,0.0,0.0,0.0,0.0,0.0,0.0,0.0,0.0,0.0,0.0,0.0,0.0,0.0,0.0,0.0,0.0,0.0,0.0,0.0,0.0,0.0,-4.1542,-4.3815,-4.3271,-4.3297,-4.3839,-4.2316,-4.0994,0.0,0.0,0.0,0.0,0.0,0.0,0.0,0.0,0.0,0.0,0.0,0.0,0.0,0.0,0.0,0.0,0.0,0.0,0.0,0.0,0.0,0.0,0.0,0.0,0.0,0.0,0.0,0.0,0.0,0.0,0.0,0.0,0.0,0.0,0.0,0.0,0.0,0.0,0.0,0.0,0.0,0.0,0.0,0.0,0.0,0.0,0.0,0.0,0.0,0.0,0.0,0.0,0.0,0.0,0.0,0.0,0.0,0.0,0.0,0.0,0.0,0.0,0.0,0.0,0.0,0.0,0.0,0.0,0.0,0.0,0.0,0.0,0.0,0.0,0.0,0.0,0.0,0.0,0.0,0.0,0.0,0.0,0.0,0.0,0.0,0.0,0.0,0.0,0.0,0.0,0.0,0.0,0.0,0.0,0.0,0.0,0.0,0.0,0.0,0.0,0.0,0.0,0.0,0.0,0.0,0.0,0.0,0.0,0.0,-4.3927,-4.4855,-4.5434,-4.5533,-4.3368,-4.2496,0.0,0.0,0.0,0.0,0.0,0.0,0.0,0.0,0.0,0.0,0.0,0.0,0.0,0.0,0.0,0.0,0.0,0.0,0.0,0.0,0.0,0.0,0.0,0.0,0.0,0.0,0.0,0.0,0.0,0.0,0.0,0.0,0.0,0.0,0.0,0.0,0.0,0.0,0.0,0.0,0.0,0.0,0.0,0.0,0.0,0.0,0.0,0.0,0.0,0.0,0.0,0.0,0.0,0.0,0.0,0.0,0.0,0.0,0.0,0.0,0.0,0.0,0.0,0.0,0.0,0.0,0.0,0.0,0.0,0.0,0.0,0.0,0.0,0.0,0.0,0.0,0.0,0.0,0.0,0.0,0.0,0.0,0.0,0.0,0.0,0.0,0.0,0.0,0.0,0.0,0.0,0.0,0.0,0.0,0.0,0.0,0.0,0.0,0.0,0.0,0.0,0.0,0.0,0.0,0.0,0.0,0.0,0.0,0.0,-4.4768,-4.5573,-4.6267,-4.6799,-4.4604,-4.3651,-4.4114,0.0,0.0,0.0,0.0,0.0,0.0,0.0,0.0,0.0,0.0,0.0,0.0,0.0,0.0,0.0,0.0,0.0,0.0,0.0,0.0,0.0,0.0,0.0,0.0,0.0,0.0,0.0,0.0,0.0,0.0,0.0,0.0,0.0,0.0,0.0,0.0,0.0,0.0,0.0,0.0,0.0,0.0,0.0,0.0,0.0,0.0,0.0,0.0,0.0,0.0,0.0,0.0,0.0,0.0,0.0,0.0,0.0,0.0,0.0,0.0,0.0,0.0,0.0,0.0,0.0,0.0,0.0,0.0,0.0,0.0,0.0,0.0,0.0,0.0,0.0,0.0,0.0,0.0,0.0,0.0,0.0,0.0,0.0,0.0,0.0,0.0,0.0,0.0,0.0,0.0,0.0,0.0,0.0,0.0,0.0,0.0,0.0,0.0,0.0,0.0,0.0,0.0,0.0,0.0,0.0,0.0,0.0,0.0,-4.6297,-4.5741,-4.6149,-4.7466,-4.5811,-4.4455,0.0,0.0,0.0,0.0,0.0,0.0,0.0,0.0,0.0,0.0,0.0,0.0,0.0,0.0,0.0,0.0,0.0,0.0,0.0,0.0,0.0,0.0,0.0,0.0,0.0,0.0,0.0,0.0,0.0,0.0,0.0,0.0,0.0,0.0,0.0,0.0,0.0,0.0,0.0,0.0,0.0,0.0,0.0,0.0,0.0,0.0,0.0,0.0,0.0,0.0,0.0,0.0,0.0,0.0,0.0,0.0,0.0,0.0,0.0,0.0,0.0,0.0,0.0,0.0,0.0,0.0,0.0,0.0,0.0,0.0,0.0,0.0,0.0,0.0,0.0,0.0,0.0,0.0,0.0,0.0,0.0,0.0,0.0,0.0,0.0,0.0,0.0,0.0,0.0,0.0,0.0,0.0,0.0,0.0,0.0,0.0,0.0,0.0,0.0,0.0,0.0,0.0,0.0,0.0,0.0,0.0,0.0,0.0,0.0,-4.8673,-4.8656,-4.8469,-4.8183,-4.5974,-4.4906,0.0,0.0,0.0,0.0,0.0,0.0,0.0,0.0,0.0,0.0,0.0,0.0,0.0,0.0,0.0,0.0,0.0,0.0,0.0,0.0,0.0,0.0,0.0,0.0,0.0,0.0,0.0,0.0,0.0,0.0,0.0,0.0,0.0,0.0,0.0,0.0,0.0,0.0,0.0,0.0,0.0,0.0,0.0,0.0,0.0,0.0,0.0,0.0,0.0,0.0,0.0,0.0,0.0,0.0,0.0,0.0,0.0,0.0,0.0,0.0,0.0,0.0,0.0,0.0,0.0,0.0,0.0,0.0,0.0,0.0,0.0,0.0,0.0,0.0,0.0,0.0,0.0,0.0,0.0,0.0,0.0,0.0,0.0,0.0,0.0,0.0,0.0,0.0,0.0,0.0,0.0,0.0,0.0,0.0,0.0,0.0,0.0,0.0,0.0,0.0,0.0,0.0,0.0,0.0,0.0,0.0,0.0,0.0,-4.7405,-4.9488,-4.957,-4.9326,-4.8825,-4.709,-4.6149,0.0,0.0,0.0,0.0,0.0,0.0,0.0,0.0,0.0,0.0,0.0,0.0,0.0,0.0,0.0,0.0,0.0,0.0,0.0,0.0,0.0,0.0,0.0,0.0,0.0,0.0,0.0,0.0,0.0,0.0,0.0,0.0,0.0,0.0,0.0,0.0,0.0,0.0,0.0,0.0,0.0,0.0,0.0,0.0,0.0,0.0,0.0,0.0,0.0,0.0,0.0,0.0,0.0,0.0,0.0,0.0,0.0,0.0,0.0,0.0,0.0,0.0,0.0,0.0,0.0,0.0,0.0,0.0,0.0,0.0,0.0,0.0,0.0,0.0,0.0,0.0,0.0,0.0,0.0,0.0,0.0,0.0,0.0,0.0,0.0,0.0,0.0,0.0,0.0,0.0,0.0,0.0,0.0,0.0,0.0,0.0,0.0,0.0,0.0,0.0,0.0,0.0,0.0,0.0,0.0,0.0,0.0,0.0,-4.7719,-4.9367,-4.9329,-4.9279,-4.9291,-4.8575,-4.7709,0.0,0.0,0.0,0.0,0.0,0.0,0.0,0.0,0.0,0.0,0.0,0.0,0.0,0.0,0.0,0.0,0.0,0.0,0.0,0.0,0.0,0.0,0.0,0.0,0.0,0.0,0.0,0.0,0.0,0.0,0.0,0.0,0.0,0.0,0.0,0.0,0.0,0.0,0.0,0.0,0.0,0.0,0.0,0.0,0.0,0.0,0.0,0.0,0.0,0.0,0.0,0.0,0.0,0.0,0.0,0.0,0.0,0.0,0.0,0.0,0.0,0.0,0.0,0.0,0.0,0.0,0.0,0.0,0.0,0.0,0.0,0.0,0.0,0.0,0.0,0.0,0.0,0.0,0.0,0.0,0.0,0.0,0.0,0.0,0.0,0.0,0.0,0.0,0.0,0.0,0.0,0.0,0.0,0.0,0.0,0.0,0.0,0.0,0.0,0.0,0.0,0.0,0.0,0.0,0.0,0.0,0.0,0.0,-4.8522,-5.009,-4.9548,-4.948,-5.0031,-4.8749,-4.7591,0.0,0.0,0.0,0.0,0.0,0.0,0.0,0.0,0.0,0.0,0.0,0.0,0.0,0.0,0.0,0.0,0.0,0.0,0.0,0.0,0.0,0.0,0.0,0.0,0.0,0.0,0.0,0.0,0.0,0.0,0.0,0.0,0.0,0.0,0.0,0.0,0.0,0.0,0.0,0.0,0.0,0.0,0.0,0.0,0.0,0.0,0.0,0.0,-3.6741,0.0,0.0,0.0,0.0,0.0,0.0,0.0,0.0,0.0,0.0,0.0,0.0,0.0,0.0,0.0,0.0,0.0,0.0,0.0,0.0,0.0,0.0,0.0,0.0,0.0,0.0,0.0,0.0,0.0,0.0,0.0,0.0,0.0,0.0,0.0,0.0,0.0,0.0,0.0,0.0,0.0,0.0,0.0,0.0,0.0,0.0,0.0,0.0,0.0,0.0,0.0,0.0,0.0,0.0,0.0,0.0,0.0,0.0,0.0,-4.8993,-5.02,-5.0219,-5.0239,-5.0168,-4.9368,-4.8161,0.0,0.0,0.0,0.0,0.0,0.0,0.0,0.0,0.0,0.0,0.0,0.0,0.0,0.0,0.0,0.0,0.0,0.0,0.0,0.0,0.0,0.0,0.0,0.0,0.0,0.0,0.0,0.0,0.0,0.0,0.0,0.0,0.0,0.0,0.0,0.0,0.0,0.0,0.0,0.0,0.0,0.0,0.0,0.0,0.0,0.0,0.0,0.0,0.0,0.0,0.0,0.0,0.0,0.0,0.0,0.0,0.0,0.0,0.0,0.0,0.0,0.0,0.0,0.0,0.0,0.0,0.0,0.0,0.0,0.0,0.0,0.0,0.0,0.0,0.0,0.0,0.0,0.0,0.0,0.0,0.0,0.0,0.0,0.0,0.0,0.0,0.0,0.0,0.0,0.0,0.0,0.0,0.0,0.0,0.0,0.0,0.0,0.0,0.0,0.0,0.0,0.0,0.0,0.0,0.0,0.0,0.0,-4.7748,-4.9379,-5.023,-5.0972,-5.099,-5.0285,-5.0064,-4.8806,-4.6382,0.0,0.0,0.0,0.0,0.0,0.0,0.0,0.0,0.0,0.0,0.0,0.0,0.0,0.0,0.0,0.0,0.0,0.0,0.0,0.0,0.0,0.0,0.0,0.0,0.0,0.0,0.0,0.0,0.0,0.0,0.0,0.0,0.0,0.0,0.0,0.0,0.0,0.0,-3.5113,-3.7015,0.0,0.0,0.0,0.0,0.0,0.0,0.0,0.0,-4.0782,0.0,0.0,0.0,0.0,0.0,0.0,0.0,0.0,0.0,0.0,0.0,0.0,0.0,0.0,0.0,0.0,0.0,0.0,0.0,0.0,0.0,0.0,0.0,0.0,0.0,0.0,0.0,0.0,0.0,0.0,0.0,0.0,0.0,0.0,0.0,0.0,0.0,0.0,0.0,0.0,0.0,0.0,0.0,0.0,0.0,0.0,0.0,0.0,0.0,0.0,0.0,0.0,0.0,0.0,0.0,0.0,-4.6053,-4.842,-5.0065,-5.0915,-5.1082,-5.1082,-5.0915,-5.0212,-4.8679,-4.6264,0.0,0.0,0.0,0.0,0.0,0.0,0.0,0.0,0.0,0.0,0.0,0.0,0.0,0.0,0.0,0.0,0.0,0.0,0.0,0.0,0.0,0.0,0.0,0.0,0.0,0.0,0.0,0.0,0.0,0.0,0.0,0.0,0.0,0.0,0.0,0.0,0.0,0.0,0.0,-3.8518,-3.9423,0.0,0.0,0.0,0.0,0.0,0.0,0.0,0.0,-4.1809,0.0,0.0,0.0,0.0,0.0,0.0,0.0,0.0,0.0,0.0,0.0,0.0,0.0,0.0,0.0,0.0,0.0,0.0,0.0,0.0,0.0,0.0,0.0,0.0,0.0,0.0,0.0,0.0,0.0,0.0,0.0,0.0,0.0,0.0,0.0,0.0,0.0,0.0,0.0,0.0,0.0,0.0,0.0,0.0,0.0,0.0,0.0,0.0,0.0,0.0,0.0,0.0,0.0,0.0,0.0,-4.6814,-4.9178,-5.0598,-5.1117,-5.1911,-5.1948,-5.1135,-5.0635,-4.903,0.0,0.0,0.0,0.0,0.0,0.0,0.0,0.0,0.0,0.0,0.0,0.0,0.0,0.0,0.0,0.0,0.0,0.0,0.0,0.0,0.0,0.0,0.0,0.0,0.0,0.0,0.0,0.0,0.0,0.0,0.0,0.0,0.0,0.0,0.0,0.0,0.0,0.0,0.0,0.0,-3.9496,-4.0111,-4.0438,0.0,0.0,0.0,0.0,0.0,0.0,-4.3474,-4.2817,0.0,0.0,0.0,0.0,0.0,0.0,0.0,0.0,0.0,0.0,0.0,0.0,0.0,0.0,0.0,0.0,0.0,0.0,0.0,0.0,0.0,0.0,0.0,0.0,0.0,0.0,0.0,0.0,0.0,0.0,0.0,0.0,0.0,0.0,0.0,0.0,0.0,0.0,0.0,0.0,0.0,0.0,0.0,0.0,0.0,0.0,0.0,0.0,0.0,0.0,0.0,0.0,0.0,0.0,0.0,-4.7315,-4.9673,-5.0944,-5.1096,-5.2609,-5.2682,-5.1114,-5.0944,-4.9359,0.0,0.0,0.0,0.0,0.0,0.0,0.0,0.0,0.0,0.0,0.0,0.0,0.0,0.0,0.0,0.0,0.0,0.0,0.0,0.0,0.0,0.0,0.0,0.0,0.0,0.0,0.0,0.0,0.0,0.0,0.0,0.0,0.0,0.0,0.0,0.0,0.0,0.0,0.0,0.0,0.0,-4.0673,-4.118,-4.2321,0.0,0.0,0.0,0.0,-4.4943,-4.4409,0.0,0.0,0.0,0.0,0.0,0.0,0.0,0.0,0.0,0.0,0.0,0.0,0.0,0.0,0.0,0.0,0.0,0.0,0.0,0.0,0.0,0.0,0.0,0.0,0.0,0.0,0.0,0.0,0.0,0.0,0.0,0.0,0.0,0.0,0.0,0.0,0.0,0.0,0.0,0.0,0.0,0.0,0.0,0.0,0.0,0.0,0.0,0.0,0.0,0.0,0.0,0.0,0.0,0.0,0.0,0.0,-4.715,-4.9555,-5.0822,-5.0897,-5.2401,-5.2456,-5.0916,-5.0822,-4.9262,0.0,0.0,0.0,0.0,0.0,0.0,0.0,0.0,0.0,0.0,0.0,0.0,0.0,0.0,0.0,0.0,0.0,0.0,0.0,0.0,0.0,0.0,0.0,0.0,0.0,0.0,0.0,0.0,0.0,0.0,0.0,0.0,0.0,0.0,0.0,0.0,0.0,0.0,0.0,0.0,0.0,-4.1289,-4.3389,-4.3842,-4.4204,0.0,0.0,-4.4789,-4.4247,-4.3807,0.0,0.0,0.0,0.0,0.0,0.0,0.0,0.0,0.0,0.0,0.0,0.0,0.0,0.0,0.0,0.0,0.0,0.0,0.0,0.0,0.0,0.0,0.0,0.0,0.0,0.0,0.0,0.0,0.0,0.0,0.0,0.0,0.0,0.0,0.0,0.0,0.0,0.0,0.0,0.0,0.0,0.0,0.0,0.0,0.0,0.0,0.0,0.0,0.0,0.0,0.0,0.0,0.0,0.0,0.0,-4.5975,-4.8471,-5.0031,-5.1041,-5.1481,-5.2619,-5.2656,-5.1499,-5.1041,-4.9682,0.0,0.0,0.0,0.0,0.0,0.0,0.0,0.0,0.0,0.0,0.0,0.0,0.0,0.0,0.0,0.0,0.0,0.0,0.0,0.0,0.0,0.0,0.0,0.0,0.0,0.0,0.0,0.0,0.0,0.0,0.0,0.0,0.0,0.0,0.0,0.0,0.0,0.0,0.0,0.0,0.0,0.0,-4.3842,-4.4494,0.0,0.0,0.0,-4.623,-4.5881,0.0,0.0,0.0,0.0,0.0,0.0,0.0,0.0,0.0,0.0,0.0,0.0,0.0,0.0,0.0,0.0,0.0,0.0,0.0,0.0,0.0,0.0,0.0,0.0,0.0,0.0,0.0,0.0,0.0,0.0,0.0,0.0,0.0,0.0,0.0,0.0,0.0,0.0,0.0,0.0,0.0,0.0,0.0,0.0,0.0,0.0,0.0,0.0,0.0,0.0,0.0,0.0,0.0,0.0,0.0,0.0,0.0,-4.9555,-5.038,-5.1187,-5.1977,-5.2803,-5.2821,-5.2013,-5.1206,0.0,0.0,0.0,0.0,0.0,0.0,0.0,0.0,0.0,0.0,0.0,0.0,0.0,0.0,0.0,0.0,0.0,0.0,0.0,0.0,0.0,0.0,0.0,0.0,0.0,0.0,0.0,-3.4407,0.0,0.0,0.0,0.0,0.0,0.0,0.0,0.0,0.0,0.0,0.0,0.0,0.0,0.0,-4.2554,-4.4129,-4.5032,-4.5766,0.0,0.0,-4.7071,-4.6798,-4.5288,-4.3842,0.0,0.0,0.0,0.0,0.0,0.0,0.0,0.0,0.0,0.0,0.0,0.0,0.0,0.0,0.0,0.0,0.0,0.0,0.0,0.0,0.0,0.0,0.0,0.0,0.0,0.0,0.0,0.0,0.0,0.0,0.0,0.0,0.0,0.0,0.0,0.0,0.0,0.0,0.0,0.0,0.0,0.0,0.0,0.0,0.0,0.0,0.0,0.0,0.0,0.0,0.0,0.0,0.0,0.0,0.0,-4.9519,-5.038,-5.1187,-5.1977,-5.2803,-5.2821,-5.2013,-5.1242,-5.0031,0.0,0.0,0.0,0.0,0.0,0.0,0.0,0.0,0.0,0.0,0.0,0.0,0.0,0.0,0.0,0.0,0.0,0.0,0.0,0.0,0.0,0.0,0.0,0.0,0.0,0.0,0.0,0.0,0.0,0.0,0.0,0.0,0.0,0.0,0.0,0.0,0.0,0.0,0.0,0.0,0.0,-4.3287,-4.4822,-4.566,-4.6363,0.0,0.0,-4.6547,-4.5663,-4.4525,-4.3406,-4.2437,0.0,0.0,0.0,0.0,0.0,0.0,0.0,0.0,0.0,0.0,0.0,0.0,0.0,0.0,0.0,0.0,0.0,0.0,0.0,0.0,0.0,0.0,0.0,0.0,0.0,0.0,0.0,0.0,0.0,0.0,0.0,0.0,0.0,0.0,0.0,0.0,0.0,0.0,0.0,0.0,0.0,0.0,0.0,0.0,0.0,0.0,0.0,0.0,0.0,0.0,0.0,0.0,0.0,-4.7865,-5.0306,-5.0637,-5.1444,-5.2692,-5.3038,-5.3038,-5.2747,-5.1958,-5.1242,0.0,0.0,0.0,0.0,0.0,0.0,0.0,0.0,0.0,0.0,0.0,0.0,0.0,0.0,0.0,0.0,0.0,0.0,0.0,0.0,0.0,0.0,0.0,0.0,0.0,0.0,0.0,0.0,-3.9623,-4.0021,-3.9858,0.0,0.0,0.0,0.0,0.0,0.0,0.0,0.0,0.0,0.0,-4.3844,-4.4883,-4.5623,0.0,0.0,-4.6731,-4.6341,-4.5733,-4.4774,-4.3892,-4.3432,-4.1646,0.0,0.0,0.0,0.0,0.0,0.0,0.0,0.0,0.0,0.0,0.0,0.0,0.0,0.0,0.0,0.0,0.0,0.0,0.0,0.0,0.0,0.0,0.0,0.0,0.0,0.0,0.0,0.0,0.0,0.0,0.0,0.0,0.0,0.0,0.0,0.0,0.0,0.0,0.0,0.0,0.0,0.0,0.0,0.0,0.0,0.0,0.0,0.0,0.0,0.0,0.0,0.0,-4.8563,-5.0765,-5.1041,-5.183,-5.317,-5.3185,-5.3185,-5.3167,-5.2435,-5.1885,0.0,0.0,0.0,0.0,0.0,0.0,0.0,0.0,0.0,0.0,0.0,0.0,0.0,0.0,0.0,0.0,0.0,0.0,0.0,0.0,0.0,0.0,0.0,0.0,0.0,0.0,0.0,0.0,-4.0782,-4.0818,-3.984,0.0,0.0,0.0,0.0,0.0,0.0,0.0,0.0,0.0,0.0,-4.4407,-4.5174,-4.5787,-4.6265,-4.6619,-4.6381,-4.6038,-4.5735,-4.4846,-4.413,-4.4,0.0,0.0,0.0,0.0,0.0,0.0,0.0,0.0,0.0,0.0,0.0,0.0,0.0,0.0,0.0,0.0,0.0,0.0,0.0,0.0,0.0,0.0,0.0,0.0,0.0,0.0,0.0,0.0,0.0,0.0,-4.1361,0.0,0.0,0.0,0.0,0.0,0.0,0.0,0.0,0.0,0.0,0.0,0.0,0.0,0.0,0.0,0.0,0.0,0.0,0.0,0.0,0.0,0.0,-4.9114,-5.0784,-5.1536,-5.2362,-5.3167,-5.3185,-5.3185,-5.3167,-5.2435,-5.1646,-5.0875,0.0,0.0,0.0,0.0,0.0,0.0,0.0,0.0,0.0,0.0,0.0,0.0,0.0,0.0,0.0,0.0,0.0,0.0,0.0,0.0,0.0,0.0,0.0,0.0,0.0,0.0,-4.1506,-4.2375,-4.2194,0.0,0.0,0.0,0.0,0.0,0.0,0.0,0.0,0.0,0.0,-4.3814,-4.4936,-4.5831,-4.6198,-4.637,-4.6423,-4.5963,-4.5572,-4.5441,-4.4576,-4.3875,0.0,0.0,0.0,0.0,0.0,0.0,0.0,0.0,0.0,0.0,0.0,0.0,0.0,0.0,0.0,0.0,0.0,0.0,0.0,0.0,0.0,0.0,0.0,0.0,0.0,0.0,0.0,-4.4466,-4.4437,0.0,0.0,0.0,0.0,0.0,0.0,0.0,0.0,0.0,0.0,0.0,-4.7796,-4.7705,0.0,0.0,0.0,0.0,0.0,0.0,0.0,0.0,0.0,0.0,0.0,0.0,-4.9701,-5.0784,-5.1591,-5.238,-5.3167,-5.3185,-5.3185,-5.3185,-5.2949,-5.2179,-5.0839,0.0,0.0,0.0,0.0,0.0,0.0,0.0,0.0,0.0,0.0,0.0,0.0,0.0,0.0,0.0,0.0,0.0,0.0,0.0,0.0,0.0,0.0,0.0,0.0,0.0,-4.2122,0.0,0.0,0.0,0.0,0.0,0.0,0.0,0.0,0.0,0.0,0.0,-4.2384,-4.3092,-4.4389,-4.5302,-4.5437,-4.5935,-4.6211,0.0,0.0,0.0,0.0,0.0,0.0,0.0,0.0,0.0,0.0,0.0,0.0,0.0,0.0,-3.7114,-3.586,-3.6447,-3.7235,-3.7526,0.0,0.0,0.0,0.0,0.0,0.0,0.0,0.0,0.0,0.0,0.0,0.0,0.0,0.0,0.0,0.0,-4.6309,0.0,0.0,0.0,0.0,0.0,0.0,0.0,0.0,-4.9996,-5.039,-5.0378,-5.0271,-5.0228,0.0,-4.9928,-4.9159,0.0,0.0,0.0,0.0,0.0,0.0,0.0,0.0,-5.0398,-5.1206,-5.2013,-5.2674,-5.3167,-5.3185,-5.3185,-5.3185,-5.2674,-5.1885,-5.0839,-4.9205,-4.7957,0.0,0.0,0.0,0.0,0.0,0.0,0.0,0.0,0.0,0.0,0.0,0.0,0.0,0.0,0.0,0.0,0.0,0.0,0.0,0.0,0.0,0.0,0.0,-4.3099,0.0,0.0,0.0,0.0,0.0,0.0,0.0,0.0,0.0,-4.1986,-4.2362,-4.3033,-4.3978,-4.4794,-4.537,-4.554,0.0,0.0,0.0,0.0,0.0,0.0,0.0,-4.4709,-4.4615,-4.3927,-4.3308,-4.3054,-4.1813,-4.0722,-4.0223,0.0,0.0,-3.7747,-3.8096,-3.8759,-3.9052,-3.8868,-3.8751,-3.9005,-3.9056,-3.914,0.0,0.0,0.0,0.0,0.0,0.0,0.0,0.0,-4.7998,-4.8449,0.0,-4.8353,0.0,0.0,0.0,0.0,0.0,0.0,0.0,0.0,-5.2422,-5.2805,-5.2766,-5.2673,-5.2628,-5.2601,-5.238,-5.216,-5.1745,-4.8524,0.0,0.0,0.0,0.0,0.0,0.0,-5.1224,-5.1977,-5.2766,-5.3185,-5.3185,-5.3185,-5.3185,-5.3148,-5.1665,-5.0839,-5.0765,-4.9187,-4.7957,-4.7149,-4.5608,0.0,0.0,0.0,0.0,0.0,0.0,0.0,0.0,0.0,0.0,0.0,0.0,0.0,0.0,0.0,0.0,0.0,0.0,0.0,0.0,-4.2466,0.0,0.0,0.0,0.0,0.0,0.0,0.0,0.0,0.0,0.0,-4.2817,-4.3051,-4.3793,-4.5151,0.0,0.0,0.0,0.0,-4.5589,-4.5572,-4.5257,-4.4951,-4.4831,-4.4682,-4.4598,-4.4598,0.0,0.0,-4.2523,-4.2354,-4.233,-4.2303,-4.2202,-4.1405,-3.8631,-3.9277,-4.0163,-4.0214,-4.0197,-4.0417,-4.1035,-4.1085,-4.1305,-5.2652,0.0,0.0,0.0,0.0,-5.1353,-5.1372,-5.1353,-5.1353,-5.1486,-5.1716,-5.1486,0.0,0.0,0.0,0.0,0.0,0.0,-5.3053,-5.2518,-5.332,-5.3397,-5.2805,-5.2692,-5.2608,-5.2601,-5.2376,-5.2152,-5.1888,-5.0773,-5.0069,-4.9895,0.0,0.0,0.0,0.0,-5.1756,-5.2032,-5.2803,-5.3185,-5.3185,-5.3185,-5.3185,-5.3185,-5.1646,-5.082,-5.0802,-4.9187,-4.8214,-4.7938,-4.6416,0.0,0.0,0.0,0.0,0.0,0.0,0.0,0.0,0.0,0.0,0.0,0.0,0.0,0.0,0.0,0.0,0.0,0.0,0.0,-4.4059,-4.3444,-4.3371,0.0,0.0,0.0,0.0,0.0,0.0,0.0,0.0,0.0,-4.4503,-4.4521,-4.4613,0.0,0.0,-4.544,-4.5597,-4.5441,-4.53,-4.5194,0.0,0.0,0.0,-4.4682,-4.4598,-4.4598,-4.4412,-4.4164,-4.3988,-4.347,-4.3098,-4.3081,-4.2658,-4.211,-4.179,-4.1585,-4.1814,-4.2113,-4.1942,-4.1711,-4.1931,-4.1982,-4.2049,-5.4314,-5.3779,-5.3091,-5.2785,-5.2785,-5.2785,-5.2785,-5.2785,-5.2785,-5.2977,-5.3282,-5.2938,-5.2977,-5.3301,-5.3301,0.0,0.0,0.0,-5.4333,-5.3855,-5.4371,-5.4301,-5.3779,-5.3657,-5.3558,-5.3536,-5.3316,-5.3104,-5.2888,-5.2684,-5.2472,-5.2215,0.0,0.0,-5.1385,-5.1799,-5.216,-5.2491,-5.2949,-5.3185,-5.3185,-5.3185,-5.3185,-5.3148,-5.1646,-5.082,-5.0784,-4.9205,-4.8324,-4.8306,-4.7076,-4.5993,0.0,0.0,0.0,0.0,0.0,0.0,0.0,0.0,0.0,0.0,0.0,-3.7987,-3.9025,0.0,0.0,0.0,-4.1705,-4.29,-4.4675,-4.3661,0.0,0.0,0.0,0.0,0.0,0.0,0.0,-4.4257,-4.4306,-4.4623,-4.5588,-4.5501,-4.5264,-4.5132,-4.5303,-4.5398,-4.5336,0.0,-4.5086,-4.494,-4.4858,-4.4793,-4.4737,-4.4671,-4.4598,-4.4598,-4.4598,-4.4598,-4.4581,-4.4181,-4.3893,-4.3826,-4.3487,-4.3295,-4.363,-4.3423,-4.3135,-4.31,-4.2681,-4.2388,-4.2675,-4.2743,-4.2811,-5.539,-5.5256,-5.3664,-5.3015,-5.2996,-5.2996,-5.3015,-5.2996,-5.3015,-5.3454,-5.4123,-5.3359,-5.3454,-5.4199,-5.4199,0.0,-5.4237,-5.504,-5.5371,-5.539,-5.539,-5.5326,-5.5203,-5.5135,-5.5071,-5.4985,-5.478,-5.4592,-5.4354,-5.4179,-5.3963,-5.3658,-5.2099,-5.1576,-5.216,-5.213,-5.2454,-5.3188,-5.3185,-5.3185,-5.3185,-5.3185,-5.3185,-5.3167,-5.1646,-5.082,-5.0765,-4.9187,-4.8324,-4.8288,-4.7535,-4.6764,-4.5993,0.0,0.0,0.0,0.0,0.0,0.0,0.0,0.0,0.0,0.0,0.0,0.0,0.0,0.0,0.0,-4.2466,0.0,-4.4023,-4.3371,0.0,0.0,0.0,-4.301,-4.301,-4.36,-4.4275,-4.5021,0.0,0.0,-4.6147,0.0,-4.5761,-4.5607,-4.5363,-4.5203,-4.5194,-4.5069,-4.494,-4.482,-4.4776,-4.4765,-4.4626,-4.4615,-4.4598,-4.4598,-4.4598,-4.4598,-4.4598,-4.4598,-4.4581,-4.4547,-4.4581,-4.4564,-4.4581,-4.4496,-4.4321,-4.3413,-4.2901,-4.2726,-4.3352,-4.3521,-4.3707,-5.539,-5.5365,-5.4963,-5.4772,-5.4772,-5.4791,-5.4791,-5.4791,-5.4772,-5.4906,-5.5097,-5.4868,-5.4906,-5.5097,-5.5097,-5.5097,-5.5116,-5.5326,-5.539,-5.539,-5.539,-5.5326,-5.5203,-5.5135,-5.5042,-5.4931,-5.4767,-5.4541,-5.4268,-5.4145,-5.3981,-5.3756,-5.321,-5.2979,-5.3005,-5.2936,-5.3023,-5.3185,-5.3185,-5.3185,-5.3185,-5.3185,-5.3185,-5.3185,-5.1646,-5.082,-5.0784,-4.9205,-4.8324,-4.8288,-4.7535,-4.7003,-4.6801,-4.5296,0.0,0.0,0.0,0.0,0.0,0.0,0.0,0.0,0.0,-4.1017,-4.1379,0.0,-4.2792,0.0,-4.2792,-4.3245,-4.4005,-4.3371,0.0,0.0,-4.3806,-4.3806,-4.3824,-4.4371,-4.5039,-4.5809,-4.5633,-4.5635,-4.6147,-4.5955,-4.5693,-4.5476,-4.5318,-4.5167,-4.5059,-4.4923,-4.4803,-4.4682,-4.4637,-4.4626,-4.4598,-4.4598,-4.4598,-4.4598,-4.4598,-4.4598,-4.4598,-4.4598,-4.4598,-4.4598,-4.4598,-4.4598,-4.4598,-4.4598,-4.453,-4.4287,-4.4124,-4.4079,-4.4265,-4.4282,-4.435,-5.5728,-5.539,-5.539,-5.539,-5.539,-5.539,-5.539,-5.539,-5.539,-5.539,-5.539,-5.539,-5.539,-5.539,-5.539,-5.539,-5.539,-5.539,-5.539,-5.539,-5.539,-5.5313,-5.5143,-5.5121,-5.5014,-5.486,-5.4736,-5.4524,-5.4214,-5.4145,-5.4,-5.3813,-5.358,-5.3479,-5.3361,-5.3269,-5.3185,-5.3185,-5.3185,-5.3185,-5.3185,-5.3185,-5.3185,-5.3148,-5.1646,-5.082,-5.0784,-4.9187,-4.8324,-4.8306,-4.7865,-4.748,-4.7094,-4.625,-4.5424,0.0,0.0,0.0,0.0,0.0,0.0,0.0,0.0,0.0,0.0,0.0,-4.357,-4.3932,-4.3643,-4.3751,-4.4548,-4.424,-4.4132,-4.4584,-4.4639,-4.4621,-4.4621,-4.5181,-4.5702,-4.6151,-4.6038,-4.6,-4.6182,-4.5955,-4.571,-4.5432,-4.5344,-4.522,-4.5032,-4.4869,-4.4765,-4.4626,-4.4598,-4.4598,-4.4598,-4.4598,-4.4598,-4.4598,-4.4598,-4.4598,-4.4598,-4.4598,-4.4598,-4.4598,-4.4598,-4.4598,-4.4598,-4.4598,-4.4513,-4.4147,-4.4062,-4.4198,-4.453,-4.4598,-4.4502,-5.6282,-5.5556,-5.5556,-5.5498,-5.539,-5.539,-5.539,-5.539,-5.539,-5.539,-5.539,-5.539,-5.539,-5.539,-5.539,-5.539,-5.539,-5.539,-5.539,-5.539,-5.539,-5.5305,-5.5094,-5.5075,-5.4985,-5.4783,-5.4739,-5.4524,-5.4197,-5.4145,-5.4,-5.3794,-5.358,-5.3499,-5.3499,-5.3311,-5.3185,-5.3185,-5.3185,-5.3185,-5.3185,-5.3185,-5.317,-5.3004,-5.1591,-5.0747,-5.06,-4.915,-4.8324,-4.8324,-4.8324,-4.7994,-4.7296,-4.7168,-4.6782,0.0,-4.5314,0.0,0.0,0.0,0.0,0.0,0.0,0.0,0.0,-4.3553,-4.4295,-4.5073,-4.4512,-4.4421,-4.5236,-4.5291,-4.5291,-4.5309,-4.5399,-4.5454,-4.549,-4.5993,-4.6349,-4.6331,-4.6501,-4.6477,-4.6259,-4.598,-4.5693,-4.5476,-4.5397,-4.5291,-4.5059,-4.4913,-4.4793,-4.4643,-4.4598,-4.4598,-4.4598,-4.4598,-4.4598,-4.4598,-4.4598,-4.4598,-4.4598,-4.4598,-4.4598,-4.4598,-4.4598,-4.4598,-4.4598,-4.4513,-4.4181,-4.3606,-4.3386,-4.3487,-4.4012,-4.4175,-4.4035,-5.716,-5.6377,-5.6377,-5.5995,-5.539,-5.539,-5.539,-5.539,-5.539,-5.539,-5.539,-5.539,-5.539,-5.539,-5.539,-5.539,-5.539,-5.539,-5.539,-5.539,-5.539,-5.5286,-5.5107,-5.5075,-5.4971,-5.4739,-5.4708,-5.4491,-5.4127,-5.4109,-5.4,-5.3813,-5.3619,-5.3499,-5.3481,0.0,0.0,0.0,-5.3185,-5.3185,-5.3185,-5.3185,-5.2894,-5.2234,-5.1298,0.0,-4.9831,-4.8857,-4.8324,-4.8324,-4.8324,0.0,0.0,0.0,0.0,0.0,0.0,0.0,0.0,0.0,0.0,0.0,-4.3102,-4.2719,-4.2882,-4.3046,-4.3444,-4.4222,-4.4205,-4.444,-4.5218,-4.5291,-4.5291,-4.5327,-4.5888,-4.6287,-4.6284,-4.6765,-4.7104,-4.7082,-4.6786,-4.6542,-4.6374,-4.603,-4.5744,-4.5581,-4.5476,-4.5327,-4.5194,-4.5032,-4.4886,-4.4654,-4.4598,-4.4598,-4.4598,-4.4598,-4.4598,-4.4598,-4.4598,-4.4598,-4.4598,-4.4598,-4.4598,-4.4598,-4.4598,-4.4581,-4.4564,-4.4096,-4.3606,-4.3409,-4.2912,-4.254,-4.2692,-4.2753,-4.2648,-5.8001,0.0,-5.6759,-5.6358,0.0,-5.5556,-5.539,-5.539,-5.539,-5.539,-5.539,-5.539,-5.539,-5.539,-5.539,-5.539,-5.539,-5.539,-5.539,-5.539,-5.539,-5.5286,-5.5075,-5.5075,-5.4956,-5.4708,-5.4689,-5.4491,-5.4128,-5.4091,-5.4,-5.3813,-5.3619,-5.3499,-5.3499,-5.3311,-5.3185,-5.3185,-5.3185,-5.3185,-5.3185,-5.3185,-5.2821,-5.2013,0.0,0.0,0.0,0.0,0.0,0.0,0.0,0.0,0.0,0.0,0.0,-4.7681,-4.7315,-4.6892,-4.6413,-4.5898,-4.5383,-4.4923,-4.4409,-4.3896,-4.3535,-4.348,-4.3824,-4.4603,-4.5037,-4.5454,-4.5852,-4.625,-4.6486,-4.6522,-4.6848,-4.7102,-4.7099,-4.7198,-4.732,-4.7258,-4.6875,-4.6548,-4.6405,-4.6073,-4.577,-4.5632,-4.5476,-4.5353,-4.5203,-4.5086,-4.4896,-4.4671,-4.4598,-4.4598,-4.4598,-4.4598,-4.4598,-4.4598,-4.4598,-4.4598,-4.4598,-4.4598,-4.4598,-4.4564,-4.4282,-4.4012,-4.3978,-4.3593,-4.3078,-4.2499,-4.2127,-4.1737,-4.1416,-4.1788,-4.2115,-5.8861,-5.8058,-5.7332,-5.6855,-5.6549,-5.5899,-5.5536,-5.539,0.0,0.0,0.0,-5.539,-5.539,-5.539,-5.539,-5.539,-5.539,-5.539,-5.539,-5.539,-5.539,-5.5286,-5.5107,-5.5075,-5.4956,-5.4689,-5.4689,-5.4491,-5.4109,-5.4091,-5.4,-5.3794,-5.3599,-5.3461,-5.3439,-5.3272,-5.3185,-5.3185,-5.3185,-5.3185,-5.3185,-5.3185,-5.2766,-5.1811,-5.1151,-5.0343,-4.9408,-4.8673,-4.8324,-4.8324,-4.8324,-4.8324,-4.8324,-4.8324,-4.8324,-4.8324,-4.8324,-4.7992,-4.7274,-4.6976,-4.642,-4.552,-4.5368,-4.5019,-4.4349,-4.4313,-4.4639,-4.5436,-4.6124,-4.654,-4.6683,-4.7301,-4.7699,-4.7699,-4.7699,-4.7699,-4.7678,-4.7472,-4.7341,-4.7258,-4.6939,-4.6613,-4.6453,-4.613,-4.5812,-4.5641,-4.5528,-4.5353,-4.522,-4.5059,-4.4869,-4.4654,-4.4598,-4.4598,-4.4598,-4.4598,-4.4598,-4.4598,-4.4598,-4.4598,-4.4598,-4.4598,-4.4547,-4.4299,-4.3826,-4.3426,-4.325,-4.2959,-4.247,-4.1416,-4.1247,-4.1095,-4.0434,-4.106,-4.1548,-5.9701,-5.8918,-5.8803,-5.7925,-5.66,-5.6473,-5.6033,-5.539,-5.539,-5.539,-5.539,-5.539,-5.539,-5.539,-5.539,-5.539,-5.539,-5.539,-5.539,0.0,-5.539,-5.5286,-5.5107,-5.5075,-5.4937,-5.4705,-5.4689,-5.451,-5.4145,-5.4091,-5.4,-5.3775,-5.3599,-5.3418,-5.323,-5.3206,-5.3185,-5.3185,-5.3185,-5.3185,-5.3185,-5.3185,-5.2491,-5.1059,-5.0875,-5.0068,-4.8563,-4.8379,-4.8324,-4.8324,-4.8324,-4.8324,-4.8324,-4.8324,-4.8324,-4.8324,-4.8324,-4.8251,-4.8103,-4.7288,-4.6362,-4.5439,-4.5311,-4.5236,-4.5146,-4.5128,-4.5454,-4.625,-4.6468,-4.6794,-4.7428,-4.7627,-4.7699,-4.7699,-4.7699,-4.7699,-4.7699,-4.7572,-4.7407,-4.7302,-4.7098,-4.6824,-4.659,-4.6308,-4.603,-4.5821,-4.5658,-4.5485,-4.522,-4.4978,-4.4776,-4.4626,-4.4598,-4.4598,-4.4598,-4.4598,-4.4598,-4.4598,-4.4598,-4.4598,-4.4598,-4.453,-4.4327,-4.3707,-4.3392,-4.3098,-4.2591,-4.2102,-4.1671,-4.1136,-4.079,-4.0316,-4.0113,-4.04,-4.0366,-6.016,-5.9759,-5.93,-5.8421,-5.7237,-5.6339,-5.5747,-5.539,-5.539,-5.539,-5.539,-5.539,-5.539,-5.539,-5.539,-5.539,-5.539,-5.539,-5.539,-5.539,-5.539,-5.5286,-5.5107,-5.5075,-5.4956,-5.4705,-5.4689,-5.451,-5.4127,-5.4091,-5.4,-5.3794,-5.3599,-5.3418,-5.3254,-5.3227,-5.3185,-5.3185,-5.3185,-5.3185,-5.3185,-5.3185,-5.2415,-5.0857,-5.082,-5.0013,-4.8379,-4.8324,-4.8324,-4.8324,-4.8324,-4.8324,-4.8324,-4.8324,-4.8324,-4.8324,-4.8324,-4.8324,-4.8324,-4.7764,-4.7257,-4.6751,-4.6633,-4.6613,-4.6613,-4.6196,-4.6287,-4.7065,-4.7156,-4.7301,-4.7663,-4.7699,-4.7699,-4.7699,-4.7699,-4.7699,-4.7678,-4.7575,-4.7468,-4.7302,-4.712,-4.6934,-4.6731,-4.6423,-4.6161,-4.6005,-4.5795,-4.5511,-4.523,-4.5096,-4.494,-4.4765,-4.4654,-4.4598,-4.4598,-4.4598,-4.4598,-4.4598,-4.4598,-4.4598,-4.4564,-4.4299,-4.3842,-4.3409,-4.2801,-4.2151,-4.1728,-4.1196,-4.079,-4.0637,-4.0375,-4.013,-4.0113,-4.0062,-3.9935,-6.0403,-6.0327,-5.9682,-5.8822,-5.7791,-5.6301,-5.5575,-5.539,-5.539,-5.539,-5.539,-5.539,-5.539,-5.539,-5.539,-5.539,-5.539,-5.539,-5.539,-5.539,-5.539,-5.53,-5.5135,-5.5107,-5.4971,-5.4767,-5.4705,-5.451,-5.4163,-5.4109,-5.3981,-5.3774,-5.3599,-5.342,-5.3279,-5.323,-5.3185,-5.3185,-5.3185,-5.3185,-5.3185,-5.3185,-5.2435,-5.0949,-5.082,-5.0013,-4.8453,-4.8324,-4.8324,-4.8324,-4.8324,-4.8324,-4.8324,-4.8324,-4.8324,-4.8324,-4.8324,-4.8287,-4.8267,-4.8131,-4.799,-4.7902,-4.7819,-4.7738,-4.7645,-4.7156,-4.7029,-4.7591,-4.7663,-4.7699,-4.7699,-4.7699,-4.7699,-4.7699,-4.7699,-4.7699,-4.7678,-4.7597,-4.749,-4.7363,-4.7165,-4.7007,-4.6824,-4.6566,-4.6284,-4.6112,-4.5829,-4.5511,-4.53,-4.522,-4.5113,-4.4923,-4.4748,-4.4626,-4.4598,-4.4598,-4.4598,-4.4598,-4.4598,-4.4468,-4.4282,-4.3758,-4.3189,-4.2868,-4.1999,-4.1288,-4.0984,-4.0553,-4.0214,-4.018,-4.013,-4.0113,-4.0113,-3.9986,-3.9875,-6.0403,-6.0403,-6.0274,-5.9338,-5.7848,-5.6855,-5.6052,-5.5441,-5.539,-5.539,-5.539,-5.539,-5.539,-5.539,-5.539,-5.539,-5.539,-5.539,-5.539,-5.539,-5.539,-5.5326,-5.517,-5.5135,-5.5009,-5.4871,-5.4752,-5.4543,-5.4216,-5.4127,-5.3944,-5.3734,-5.3578,-5.344,-5.33,-5.323,-5.3185,-5.3185,-5.3185,-5.3185,-5.3185,-5.3185,-5.2433,-5.0875,-5.082,-5.0013,-4.8398,-4.8324,-4.8324,-4.8324,-4.8324,-4.8324,-4.8324,-4.8324,-4.8324,-4.8324,-4.8324,-4.8267,-4.8208,-4.8187,-4.8088,-4.7941,-4.7899,-4.784,-4.7699,-4.7627,-4.7609,-4.7699,-4.7699,-4.7699,-4.7699,-4.7699,-4.7699,-4.7699,-4.7699,-4.7699,-4.7699,-4.7678,-4.7636,-4.7511,-4.7341,-4.7191,-4.7002,-4.6801,-4.6525,-4.6112,-4.5803,-4.5581,-4.5423,-4.5274,-4.522,-4.514,-4.4968,-4.4765,-4.4654,-4.4598,-4.4598,-4.4598,-4.4581,-4.4265,-4.3792,-4.3392,-4.3064,-4.1982,-4.1373,-4.0916,-4.046,-4.013,-4.013,-4.0113,-4.0113,-4.0113,-4.007,-4.0011,-3.9858,-6.0403,-6.0403,-6.0403,-5.9434,-5.7886,-5.695,-5.6148,-5.5409,-5.539,-5.539,-5.539,-5.539,-5.539,-5.539,-5.539,-5.539,-5.539,-5.539,-5.539,-5.539,-5.539,-5.5345,-5.5203,-5.5135,-5.5042,-5.4901,-5.4767,-5.4576,-5.432,-5.4128,-5.3963,-5.3774,-5.3657,-5.3558,-5.342,-5.3316,-5.3233,-5.3185,-5.3185,-5.3185,-5.3185,-5.3185,-5.2435,-5.1004,-5.082,-5.0013,-4.8526,-4.8324,-4.8324,-4.8324,-4.8324,-4.8324,-4.8324,-4.8324,-4.8324,-4.8324,-4.8324,-4.8287,-4.8248,-4.8226,-4.8148,-4.8067,-4.7963,-4.7861,-4.7801,-4.7738,-4.7699,-4.7699,-4.7699,-4.7699,-4.7699,-4.7699,-4.7699,-4.7699,-4.7699,-4.7699,-4.7699,-4.7699,-4.7657,-4.7511,-4.7468,-4.7338,-4.7133,-4.6865,-4.6525,-4.6161,-4.5879,-4.5667,-4.5511,-4.538,-4.53,-4.5203,-4.5096,-4.4951,-4.4793,-4.4671,-4.4598,-4.453,-4.4181,-4.369,-4.3392,-4.2513,-4.1847,-4.1255,-4.0882,-4.0527,-4.0214,-4.0113,-4.0113,-4.0113,-4.0113,-4.0113,-4.0113,-4.0062,-3.9935,-6.0403,-6.0403,-6.0403,-5.9448,-5.7867,-5.7218,-5.6358,-5.546,-5.539,-5.539,-5.539,-5.539,-5.539,-5.539,-5.539,-5.539,-5.539,-5.539,-5.539,-5.539,-5.539,-5.5358,-5.5248,-5.5162,-5.5066,-5.4941,-5.4829,-5.4625,-5.4337,-5.4128,-5.3926,-5.3813,-5.3734,-5.3617,-5.3481,-5.338,-5.3274,-5.3206,-5.3185,-5.3185,-5.3185,-5.3185,-5.2435,-5.0986,-5.082,-5.0031,-4.8416,-4.8324,-4.8324,-4.8324,-4.8324,-4.8324,-4.8324,-4.8324,-4.8324,-4.8324,-4.8324,-4.8324,-4.8324,-4.8247,-4.8226,-4.8206,-4.8046,-4.7963,-4.7881,-4.7819,-4.7738,-4.7699,-4.7699,-4.7699,-4.7699,-4.7699,-4.7699,-4.7699,-4.7699,-4.7699,-4.7699,-4.7699,-4.7657,-4.7593,-4.7511,-4.7425,-4.7219,-4.6929,-4.6613,-4.6326,-4.6055,-4.5821,-4.5658,-4.5502,-4.5406,-4.5274,-4.5247,-4.5086,-4.4858,-4.4737,-4.462,-4.4198,-4.3741,-4.3308,-4.2953,-4.1762,-4.1035,-4.0798,-4.0367,-4.0146,-4.013,-4.0113,-4.0113,-4.0113,-4.0113,-4.0113,-4.0113,-4.0113,-4.0011,-6.0403,-6.0403,-6.0403,-5.9448,-5.7905,-5.7829,-5.6874,-5.539,-5.539,-5.539,-5.539,-5.539,-5.539,-5.539,-5.539,-5.539,-5.539,-5.539,-5.539,-5.539,-5.539,-5.539,-5.539,-5.5267,-5.5162,-5.5085,-5.4927,-5.4651,-5.4232,-5.4092,-5.3944,-5.3794,-5.3735,-5.3636,-5.3519,-5.338,-5.3274,-5.3227,-5.3206,-5.3185,-5.3185,-5.3185,-5.2435,-5.0986,-5.082,-5.0031,-4.8545,-4.8324,-4.8324,-4.8324,-4.8324,-4.8324,-4.8324,-4.8324,-4.8324,-4.8324,-4.8324,-4.8324,-4.8324,-4.8287,-4.8267,-4.8207,-4.8168,-4.8107,-4.7922,-4.7881,-4.7801,-4.7699,-4.7699,-4.7699,-4.7699,-4.7699,-4.7699,-4.7699,-4.7699,-4.7699,-4.7699,-4.7699,-4.7699,-4.7675,-4.7572,-4.7425,-4.7223,-4.7066,-4.6819,-4.6518,-4.6259,-4.6055,-4.5744,-4.5632,-4.5528,-4.5406,-4.5274,-4.5096,-4.4869,-4.4606,-4.4251,-4.3796,-4.3352,-4.2895,-4.1965,-4.1136,-4.0747,-4.0443,-4.0248,-4.0113,-4.0113,-4.0113,-4.0113,-4.0113,-4.0113,-4.0113,-4.0113,-4.0113,-4.0011,-6.0403,-6.0403,-6.0403,-5.9434,-5.7963,-5.7886,-5.6931,-5.5428,-5.539,-5.539,-5.539,-5.539,-5.539,-5.539,-5.539,-5.539,-5.539,-5.539,-5.539,-5.539,-5.539,-5.539,-5.539,-5.5261,-5.5176,-5.508,-5.4956,-5.4698,-5.4337,-5.4145,-5.4019,-5.3926,-5.3812,-5.3716,-5.3636,-5.3499,-5.3378,-5.3274,-5.3209,-5.3185,-5.3185,-5.3185,-5.2435,-5.093,-5.082,-5.0013,-4.8379,-4.8324,-4.8324,-4.8324,-4.8324,-4.8324,-4.8324,-4.8324,-4.8324,-4.8324,-4.8324,-4.8324,-4.8324,-4.8324,-4.8305,-4.8267,-4.8226,-4.8148,-4.7988,-4.7925,-4.784,-4.7738,-4.7699,-4.7699,-4.7699,-4.7699,-4.7699,-4.7699,-4.7699,-4.7699,-4.7699,-4.7699,-4.7699,-4.7678,-4.7593,-4.7468,-4.7359,-4.716,-4.6957,-4.6795,-4.6471,-4.6161,-4.5988,-4.5795,-4.5589,-4.5511,-4.5406,-4.5102,-4.4384,-4.417,-4.3865,-4.3305,-4.2767,-4.21,-4.1255,-4.073,-4.0333,-4.0299,-4.013,-4.0113,-4.0113,-4.0113,-4.0113,-4.0113,-4.0113,-4.0113,-4.0113,-4.0113,-4.0037,-6.0403,-6.0403,-6.0403,-5.9434,-5.7963,-5.7886,-5.695,-5.5466,-5.539,-5.539,-5.539,-5.539,-5.539,-5.539,-5.539,-5.539,-5.539,-5.539,-5.539,-5.539,-5.539,-5.539,-5.539,-5.5294,-5.5203,-5.5121,-5.4971,-5.4749,-5.4441,-5.4214,-5.4091,-5.4019,-5.3851,-5.3774,-5.3695,-5.3578,-5.344,-5.3318,-5.323,-5.3185,-5.3185,-5.3185,-5.2435,-5.1077,-5.082,-5.0013,-4.8398,-4.8324,-4.8324,-4.8324,-4.8324,-4.8324,-4.8324,-4.8324,-4.8324,-4.8324,-4.8324,-4.8324,-4.8324,-4.8324,-4.8324,-4.8324,-4.8267,-4.8187,-4.807,-4.7988,-4.7884,-4.778,-4.7717,-4.7699,-4.7699,-4.7699,-4.7699,-4.7699,-4.7699,-4.7699,-4.7699,-4.7699,-4.7699,-4.7678,-4.7636,-4.7554,-4.749,-4.7272,-4.7093,-4.702,-4.6637,-4.6398,-4.6186,-4.6005,-4.5605,-4.5321,-4.5139,-4.4604,-4.3847,-4.3322,-4.2951,-4.2428,-4.2151,-4.1424,-4.0865,-4.0383,-4.0146,-4.0113,-4.0113,-4.0113,-4.0113,-4.0113,-4.0113,-4.0113,-4.0113,-4.0113,-4.0113,-4.0113,-4.0062,-6.0403,-6.0403,-6.0403,-5.9434,-5.8001,-5.7886,-5.695,-5.5556,-5.539,-5.539,-5.539,-5.539,-5.539,-5.539,-5.539,-5.539,-5.539,-5.539,-5.539,-5.539,-5.539,-5.539,-5.539,-5.5371,-5.5294,-5.5176,-5.4985,-5.4761,-5.4505,-5.432,-5.4145,-5.4,-5.387,-5.3774,-5.3714,-5.3579,-5.344,-5.3336,-5.3251,-5.3206,-5.3185,-5.3185,-5.2454,-5.1004,-5.082,-5.0013,-4.8398,-4.8324,-4.8324,-4.8324,-4.8324,-4.8324,-4.8324,-4.8324,-4.8324,-4.8324,-4.8324,-4.8324,-4.8324,-4.8324,-4.8324,-4.8324,-4.8324,-4.8267,-4.8187,-4.807,-4.797,-4.7863,-4.778,-4.7699,-4.7717,-4.7699,-4.7699,-4.7699,-4.7699,-4.7699,-4.7699,-4.7699,-4.7699,-4.7699,-4.7678,-4.7636,-4.7511,-4.7385,-4.7232,-4.707,-4.6865,-4.6566,-4.6192,-4.5986,-4.5628,-4.4831,-4.4412,-4.4017,-4.3158,-4.2337,-4.1894,-4.1486,-4.1333,-4.0942,-4.0553,-4.013,-4.013,-4.0113,-4.0113,-4.0113,-4.0113,-4.0113,-4.0113,-4.0113,-4.0113,-4.0113,-4.0113,-4.0113,-4.0113,-6.0403,-6.0403,-6.0403,-5.9434,-5.7982,-5.7886,-5.6931,-5.5479,-5.539,-5.539,-5.539,-5.539,-5.539,-5.539,-5.539,-5.539,-5.539,-5.539,-5.539,-5.539,-5.539,-5.539,-5.539,-5.539,-5.53,-5.514,-5.4971,-5.481,-5.4622,-5.4441,-5.4252,-5.4091,-5.4,-5.3888,-5.3755,-5.3695,-5.3596,-5.3459,-5.3318,-5.3233,-5.3206,-5.3185,-5.2435,-5.1004,-5.0802,-5.0031,-4.8453,-4.8324,-4.8324,-4.8324,-4.8324,-4.8324,-4.8324,-4.8324,-4.8324,-4.8324,-4.8324,-4.8324,-4.8324,-4.8324,-4.8324,-4.8324,-4.8324,-4.8267,-4.8207,-4.8149,-4.8048,-4.7943,-4.7861,-4.7819,-4.7738,-4.7699,-4.7699,-4.7699,-4.7699,-4.7699,-4.7699,-4.7699,-4.7699,-4.7699,-4.7699,-4.7678,-4.7615,-4.7511,-4.7345,-4.716,-4.6976,-4.6659,-4.5923,-4.5569,-4.5036,-4.4046,-4.3774,-4.3373,-4.2516,-4.1904,-4.1532,-4.1144,-4.0874,-4.0697,-4.0299,-4.0113,-4.0113,-4.0113,-4.0113,-4.0113,-4.0113,-4.0113,-4.0113,-4.0113,-4.0113,-4.0113,-4.0113,-4.0113,-4.0113,-6.0403,-6.0384,-6.0045,-5.9147,-5.7886,-5.7562,-5.6664,-5.5485,-5.539,-5.539,-5.539,-5.539,-5.539,-5.539,-5.539,-5.539,-5.539,-5.539,-5.539,-5.539,-5.539,-5.539,-5.539,-5.539,-5.5286,-5.5127,-5.5014,-5.4886,-5.472,-5.4524,-5.4337,-5.4163,-5.4037,-5.3926,-5.3813,-5.3734,-5.3656,-5.3558,-5.34,-5.3277,-5.3178,-5.2934,-5.2142,-5.0967,-5.0527,-4.9664,-4.8434,-4.8324,-4.8324,-4.8324,-4.8324,-4.8324,-4.8324,-4.8324,-4.8324,-4.8324,-4.8324,-4.8324,-4.8324,-4.8324,-4.8324,-4.8324,-4.8324,-4.8305,-4.8246,-4.8226,-4.8126,-4.7986,-4.7922,-4.784,-4.7738,-4.7699,-4.7699,-4.7699,-4.7699,-4.7699,-4.7699,-4.7699,-4.7699,-4.7699,-4.7699,-4.7699,-4.7678,-4.7593,-4.7327,-4.7039,-4.6757,-4.6306,-4.5458,-4.494,-4.4232,-4.3552,-4.3141,-4.2604,-4.1847,-4.1467,-4.1226,-4.0866,-4.0548,-4.0391,-4.0155,-4.0096,-4.0113,-4.0113,-4.0113,-4.0113,-4.0113,-4.0113,-4.0113,-4.0113,-4.0113,-4.0113,-4.0113,-4.0113,-4.0113,-6.0403,-6.0293,-5.9491,-5.8746,-5.7925,-5.7065,-5.6262,-5.5594,-5.539,-5.539,-5.539,-5.539,-5.539,-5.539,-5.539,-5.539,-5.539,-5.539,-5.539,-5.539,-5.539,-5.539,-5.539,-5.539,-5.53,-5.5135,-5.5094,-5.5004,-5.4799,-5.4622,-5.4403,-5.4233,-5.4073,-5.3944,-5.3832,-5.3735,-5.3695,-5.3656,-5.3459,-5.332,-5.315,-5.25,-5.1593,-5.071,-5.0013,-4.9242,-4.8453,-4.8324,-4.8324,-4.8324,-4.8324,-4.8324,-4.8324,-4.8324,-4.8324,-4.8324,-4.8324,-4.8324,-4.8324,-4.8324,-4.8324,-4.8324,-4.8324,-4.8324,-4.8286,-4.8228,-4.8168,-4.803,-4.7947,-4.7842,-4.7759,-4.7699,-4.7699,-4.7699,-4.7699,-4.7699,-4.7699,-4.7699,-4.7699,-4.7699,-4.7699,-4.7663,-4.7572,-4.7413,-4.7009,-4.6422,-4.6036,-4.5527,-4.4777,-4.4219,-4.3734,-4.3137,-4.2515,-4.2084,-4.1434,-4.1263,-4.1016,-4.082,-4.0485,-4.0337,-4.0146,-4.0121,-4.0113,-4.0113,-4.0113,-4.0113,-4.0113,-4.0113,-4.0113,-4.0113,-4.0113,-4.0113,-4.0096,-4.0096,-4.0062,-6.0403,-6.0307,-5.9472,-5.8994,-5.8574,-5.7237,-5.6492,-5.6205,-5.5632,-5.539,-5.539,-5.539,-5.539,-5.539,-5.539,-5.539,-5.539,-5.539,-5.539,-5.539,-5.539,-5.539,-5.539,-5.539,-5.5332,-5.5176,-5.5121,-5.5028,-5.4856,-5.4702,-5.4559,-5.4337,-5.4163,-5.4055,-5.3926,-5.3831,-5.3754,-5.3695,-5.3636,-5.3147,-5.2491,-5.2175,-5.1342,-5.0033,-4.9702,-4.9132,-4.8398,-4.8324,-4.8324,-4.8324,-4.8324,-4.8324,-4.8324,-4.8324,-4.8324,-4.8324,-4.8324,-4.8324,-4.8324,-4.8324,-4.8324,-4.8324,-4.8324,-4.8324,-4.8324,-4.8267,-4.8228,-4.8149,-4.8048,-4.7875,-4.7806,-4.7687,-4.7645,-4.7699,-4.7554,-4.7591,-4.7645,-4.7699,-4.7699,-4.7699,-4.7627,-4.7355,-4.6954,-4.6734,-4.6385,-4.5653,-4.5258,-4.4896,-4.41,-4.3625,-4.3217,-4.2361,-4.1763,-4.1493,-4.1209,-4.1058,-4.0899,-4.0731,-4.0558,-4.0412,-4.0246,-4.0146,-4.0121,-4.0113,-4.0113,-4.0113,-4.0113,-4.0113,-4.0113,-4.0113,-4.0113,-4.0096,-4.0096,-4.0079,-4.0011,-6.0403,-6.0327,-5.9472,-5.9114,-5.8866,-5.7313,-5.6619,-5.6434,-5.5766,-5.539,-5.539,-5.539,-5.539,-5.539,-5.539,-5.539,-5.539,-5.539,-5.539,-5.539,-5.539,-5.539,-5.539,-5.539,-5.5326,-5.5216,-5.5135,-5.5038,-5.4946,-5.4814,-5.4641,-5.4439,-5.4285,-5.4146,-5.3982,-5.3926,-5.3832,-5.368,-5.34,-5.2783,-5.222,-5.1443,-5.0664,-4.9648,-4.9298,-4.8765,-4.8342,-4.8324,-4.8324,-4.8324,-4.8324,-4.8324,-4.8324,-4.8324,-4.8324,-4.8324,-4.8324,-4.8324,-4.8324,-4.8324,-4.8324,-4.8324,-4.8324,-4.8085,-4.7865,-4.7773,-4.7717,-4.72,-4.7123,-4.7025,-4.6904,-4.6765,-4.6703,-4.6613,-4.6685,-4.6848,-4.7138,-4.7174,-4.7011,-4.683,-4.6667,-4.6558,-4.6033,-4.5997,-4.554,-4.4957,-4.4622,-4.4047,-4.3348,-4.3057,-4.2722,-4.2035,-4.1582,-4.142,-4.125,-4.1093,-4.0935,-4.0769,-4.0583,-4.0444,-4.0271,-4.0146,-4.0121,-4.0113,-4.0113,-4.0062,-3.9969,-3.9994,-4.0113,-4.0113,-4.0113,-4.0045,-3.9994,-3.9631,-3.9656,-6.0403,-6.0327,-5.9472,-5.9114,-5.8861,-5.7351,-5.6619,-5.6454,-5.5747,-5.539,-5.539,-5.539,-5.539,-5.539,-5.539,-5.539,-5.539,-5.539,-5.539,-5.539,-5.539,-5.539,-5.539,-5.539,-5.5339,-5.5229,-5.5149,-5.508,-5.5,-5.4871,-5.4717,-5.4538,-5.4441,-5.4269,-5.4054,-5.3907,-5.3796,-5.346,-5.2734,-5.2157,-5.1635,-5.0653,-4.9838,-4.9355,-4.8783,-4.8471,-4.8343,-4.8324,-4.8324,-4.8324,-4.8324,-4.8324,-4.8324,-4.8324,-4.8324,-4.8324,-4.8324,-4.8324,-4.8324,-4.8324,-4.8233,-4.8141,-4.8085,-4.781,-4.7186,-4.6966,-4.6745,-4.6195,-4.5846,-4.5916,-4.576,-4.5477,-4.5508,-4.558,-4.5454,-4.5689,-4.6069,-4.6323,-4.6087,-4.5454,-4.5345,-4.5309,-4.5182,-4.511,-4.4874,-4.4093,-4.387,-4.3498,-4.3017,-4.2767,-4.251,-4.2119,-4.1758,-4.1498,-4.1335,-4.1146,-4.1006,-4.084,-4.0607,-4.0419,-4.0246,-4.0146,-4.0121,-4.0113,-4.0113,-3.9918,-3.964,-3.9749,-3.9834,-3.9529,-3.9132,-3.9428,-3.9706,-3.9123,-3.8886,-6.0403,-6.0327,-5.9472,-5.9114,-5.8842,-5.7351,-5.6619,-5.6543,-5.5747,-5.539,-5.539,-5.539,-5.539,-5.539,-5.539,-5.539,-5.539,-5.539,-5.539,-5.539,-5.539,-5.539,-5.539,-5.539,-5.5371,-5.5326,-5.5216,-5.513,-5.5052,-5.4941,-5.4826,-5.4717,-5.4449,-5.4356,-5.4174,-5.3382,-5.2976,-5.279,-5.2066,-5.1269,-5.0694,-5.0157,-4.9454,-4.8862,-4.8473,-4.8343,-4.8324,-4.8324,-4.8324,-4.8324,-4.8324,-4.8324,-4.8324,-4.8324,-4.8324,-4.8324,-4.8324,-4.8324,-4.8306,-4.8214,-4.7993,-4.7424,-4.7314,-4.7003,-4.6269,-4.6159,-4.6085,-4.5865,-4.5828,-4.5551,-4.5324,-4.5316,-4.5166,-4.5091,-4.511,-4.5001,-4.4838,-4.5182,-4.5381,-4.5254,-4.5164,-4.5055,-4.444,-4.4367,-4.3987,-4.3353,-4.3095,-4.2944,-4.2755,-4.2528,-4.2346,-4.2139,-4.1905,-4.1648,-4.1426,-4.1215,-4.1029,-4.0888,-4.068,-4.0305,-4.0126,-4.0001,-3.9901,-3.9985,-4.0113,-3.9783,-3.9234,-3.9099,-3.9106,-3.8601,-3.8239,-3.8575,-3.8717,-3.8328,-3.8142,-6.0403,-6.0346,-5.9911,-5.9472,-5.8937,-5.7772,-5.6988,-5.6492,-5.5747,-5.539,-5.539,-5.539,-5.539,-5.539,-5.539,-5.539,-5.539,-5.539,-5.539,-5.539,-5.539,-5.539,-5.539,-5.539,-5.539,-5.5371,-5.5261,-5.517,-5.5121,-5.5028,-5.4916,-5.4769,-5.4295,-5.3868,-5.3675,-5.2793,-5.2299,-5.1989,-5.1321,-5.058,-5.0064,-4.9565,-4.9178,-4.8586,-4.8382,-4.8324,-4.8324,-4.8324,-4.8324,-4.8324,-4.8324,-4.8324,-4.8324,-4.8324,-4.8324,-4.8324,-4.8324,-4.8048,-4.7865,-4.77,-4.737,-4.6599,-4.6526,-4.6067,-4.559,-4.5351,-4.5112,-4.4892,-4.471,-4.4638,-4.4453,-4.4321,-4.4262,-4.4205,-4.4204,-4.3987,-4.3769,-4.424,-4.453,-4.4313,-4.4077,-4.3914,-4.3661,-4.3661,-4.3516,-4.3063,-4.3045,-4.2895,-4.2817,-4.2589,-4.243,-4.2225,-4.2034,-4.1797,-4.1533,-4.1284,-4.1029,-4.0888,-4.0745,-4.0257,-3.9839,-3.971,-3.9628,-3.9613,-3.9512,-3.9106,-3.8642,-3.8548,-3.8396,-3.8169,-3.7983,-3.7915,-3.7804,-3.7635,-3.7483,-6.0403,-6.0384,-6.0236,-5.9701,-5.8861,-5.8001,-5.7122,-5.632,-5.5708,-5.539,-5.539,-5.539,-5.539,-5.539,-5.539,-5.539,-5.539,-5.539,-5.539,-5.539,-5.539,-5.539,-5.539,-5.539,-5.539,-5.539,-5.5294,-5.5229,-5.5176,-5.5056,-5.4886,-5.4632,-5.3974,-5.3424,-5.2911,-5.2156,-5.1576,-5.1259,-5.0536,-5.0002,-4.9711,-4.9175,-4.8789,-4.855,-4.842,-4.8363,-4.8343,-4.8343,-4.8324,-4.8324,-4.8324,-4.8324,-4.8324,-4.8324,-4.8324,-4.8306,-4.8159,-4.7755,-4.7314,-4.7003,-4.6581,-4.5792,-4.5718,-4.5333,-4.4764,-4.4507,-4.4268,-4.3901,-4.3683,-4.3613,-4.3269,-4.336,-4.3213,-4.3084,-4.2992,-4.2919,-4.3028,-4.3516,-4.3534,-4.3244,-4.3318,-4.3262,-4.3154,-4.3118,-4.2992,-4.2919,-4.2919,-4.2881,-4.2785,-4.2668,-4.251,-4.2348,-4.2121,-4.1819,-4.1533,-4.1232,-4.1018,-4.0739,-4.0631,-4.0031,-3.9484,-3.917,-3.8974,-3.886,-3.87,-3.8328,-3.8024,-3.7787,-3.7686,-3.7662,-3.7408,-3.7036,-3.6941,-3.6941,-3.6823,-6.0403,-6.0346,-5.9625,-5.8861,-5.802,-5.7199,-5.6396,-5.567,-5.5498,-5.539,-5.539,-5.539,-5.539,-5.539,-5.539,-5.539,-5.539,-5.539,-5.539,-5.539,-5.539,-5.539,-5.539,-5.539,-5.5371,-5.539,-5.5281,-5.5198,-5.5153,-5.5157,-5.4637,-5.4088,-5.3608,-5.3097,-5.2246,-5.1428,-5.0815,-5.0523,-4.986,-4.9385,-4.9187,-4.8952,-4.8751,-4.8606,-4.8495,-4.8457,-4.8438,-4.8363,-4.8324,-4.8324,-4.8324,-4.8324,-4.8288,-4.8288,-4.8233,-4.8104,-4.7681,-4.7278,-4.6856,-4.6397,-4.5755,-4.5131,-4.4892,-4.4544,-4.3993,-4.3754,-4.3699,-4.3609,-4.3464,-4.3394,-4.3358,-4.3233,-4.3123,-4.3049,-4.2975,-4.2919,-4.2955,-4.3064,-4.3173,-4.2955,-4.2919,-4.2919,-4.2919,-4.2919,-4.2919,-4.2919,-4.2919,-4.2881,-4.2823,-4.2725,-4.2588,-4.2409,-4.2225,-4.1866,-4.1493,-4.1214,-4.0908,-4.0515,-4.0225,-3.9575,-3.9023,-3.8547,-3.8275,-3.7936,-3.7855,-3.7702,-3.7381,-3.706,-3.6789,-3.6631,-3.6326,-3.6073,-3.6197,-3.6315,-3.6163,-6.0122,-5.9701,-5.9267,-5.8383,-5.7275,-5.6797,-5.6148,-5.546,-5.539,-5.539,-5.539,-5.539,-5.539,-5.539,-5.539,-5.539,-5.539,-5.539,-5.539,-5.539,-5.539,-5.539,-5.5384,-5.5371,-5.5078,-5.4849,-5.4715,-5.4702,-5.4645,-5.4586,-5.4057,-5.3286,-5.2721,-5.2134,-5.1532,-5.0681,-5.0156,-4.9811,-4.9403,-4.9081,-4.8998,-4.8875,-4.875,-4.8678,-4.8587,-4.8513,-4.8476,-4.8382,-4.8324,-4.8324,-4.8324,-4.8324,-4.8196,-4.7901,-4.7663,-4.7571,-4.7259,-4.6636,-4.603,-4.5424,-4.4929,-4.4232,-4.4103,-4.3938,-4.3626,-4.3516,-4.3479,-4.3497,-4.3498,-4.3429,-4.3376,-4.3305,-4.3215,-4.3104,-4.303,-4.2975,-4.2937,-4.2919,-4.2919,-4.2919,-4.2919,-4.2919,-4.2919,-4.2919,-4.2919,-4.2919,-4.2919,-4.2899,-4.2842,-4.2764,-4.2647,-4.2468,-4.2228,-4.1799,-4.1362,-4.0924,-4.0556,-4.0199,-3.9669,-3.9015,-3.8419,-3.786,-3.7222,-3.6694,-3.6705,-3.6992,-3.6603,-3.6214,-3.591,-3.5718,-3.5785,-3.5819,-3.5701,-3.5616,-3.5616,-5.9739,-5.9076,-5.8727,-5.7829,-5.6683,-5.6415,-5.5995,-5.5479,-5.539,-5.539,-5.539,-5.539,-5.539,-5.539,-5.539,-5.539,-5.539,-5.539,-5.539,-5.539,-5.539,-5.539,-5.5384,-5.5135,-5.4791,-5.4295,-5.3874,-5.3855,-5.3805,-5.3786,-5.3264,-5.2552,-5.1655,-5.1131,-5.0756,-5.0208,-4.9671,-4.9434,-4.9289,-4.9214,-4.9066,-4.8928,-4.8822,-4.8804,-4.8661,-4.855,-4.8532,-4.842,-4.8343,-4.8251,-4.8141,-4.8031,-4.7921,-4.7278,-4.6801,-4.6654,-4.6617,-4.5847,-4.515,-4.4507,-4.4213,-4.3699,-4.3534,-4.3497,-4.3497,-4.3479,-4.3479,-4.3479,-4.3479,-4.348,-4.3429,-4.3394,-4.3287,-4.316,-4.3104,-4.3067,-4.2956,-4.2919,-4.2919,-4.2919,-4.2919,-4.2919,-4.2919,-4.2919,-4.2919,-4.2919,-4.2919,-4.2919,-4.288,-4.2822,-4.2686,-4.2488,-4.221,-4.1729,-4.1218,-4.0577,-4.0092,-3.9588,-3.8939,-3.8246,-3.7665,-3.7108,-3.6525,-3.6079,-3.6146,-3.6332,-3.5819,-3.5616,-3.5633,-3.565,-3.5616,-3.5616,-3.5616,-3.5616,-3.5616,-5.9191,-5.8962,-5.7523,-5.6759,-5.6492,-5.5861,-5.5517,-5.5409,-5.539,-5.539,-5.539,-5.539,-5.539,-5.539,-5.539,-5.539,-5.539,-5.539,-5.539,-5.539,-5.5307,-5.5237,-5.5212,-5.4562,-5.4161,-5.3683,-5.3206,-5.2996,-5.2862,-5.285,-5.2469,-5.1726,-5.1421,-5.1059,-5.0261,-4.9984,-4.9731,-4.9461,-4.9402,-4.9295,-4.91,-4.8962,-4.891,-4.8856,-4.8804,-4.8697,-4.8606,-4.8495,-4.8382,-4.8159,-4.7609,-4.7296,-4.7113,-4.6489,-4.57,-4.5205,-4.4966,-4.4893,-4.4562,-4.4121,-4.3773,-4.3534,-4.3479,-4.3479,-4.3479,-4.3479,-4.3479,-4.3479,-4.3479,-4.3479,-4.3463,-4.3429,-4.3304,-4.3233,-4.316,-4.3068,-4.2938,-4.2919,-4.2919,-4.2919,-4.2919,-4.2919,-4.2919,-4.2919,-4.2919,-4.2919,-4.2919,-4.2919,-4.2881,-4.2804,-4.251,-4.2243,-4.1874,-4.1418,-4.0615,-4.0049,-3.9464,-3.8923,-3.8207,-3.7499,-3.7114,-3.6657,-3.629,-3.597,-3.5943,-3.5926,-3.5701,-3.5616,-3.5616,-3.5616,-3.5616,-3.5616,-3.5616,-3.5616,-3.5616,-5.7676,-5.7619,-5.6893,-5.632,-5.5899,-5.5517,-5.539,-5.539,-5.539,-5.539,-5.539,-5.539,-5.539,-5.539,-5.539,-5.539,-5.539,-5.5352,-5.539,-5.5161,-5.4944,-5.4658,-5.4448,-5.3779,-5.3225,-5.2747,-5.2308,-5.1773,-5.1716,-5.183,-5.1692,-5.098,-5.0791,-5.0577,-5.0037,-4.9939,-4.9816,-4.9625,-4.9495,-4.9292,-4.9133,-4.9032,-4.8998,-4.889,-4.884,-4.8787,-4.8697,-4.8569,-4.82,-4.7831,-4.7261,-4.6874,-4.6379,-4.5718,-4.5039,-4.4782,-4.425,-4.4048,-4.3938,-4.3681,-4.3534,-4.3479,-4.3479,-4.3479,-4.3479,-4.3479,-4.3479,-4.3479,-4.3479,-4.3479,-4.3479,-4.3463,-4.3393,-4.3323,-4.3233,-4.3123,-4.3031,-4.2938,-4.2919,-4.2919,-4.2919,-4.2919,-4.2919,-4.2919,-4.2919,-4.2919,-4.2901,-4.2865,-4.2825,-4.2746,-4.2344,-4.1833,-4.1451,-4.102,-4.0031,-3.9242,-3.8659,-3.8105,-3.7418,-3.6848,-3.6655,-3.6268,-3.6022,-3.5839,-3.5791,-3.5707,-3.5639,-3.5616,-3.5616,-3.5616,-3.5616,-3.5616,-3.5616,-3.5616,-3.5616,-5.6301,-5.6282,-5.6301,-5.5957,-5.5409,-5.539,-5.539,-5.539,-5.539,-5.539,-5.539,-5.539,-5.539,-5.539,-5.539,-5.539,-5.539,-5.5193,-5.5097,-5.4791,-5.4295,-5.3836,-5.3531,-5.29,-5.2212,-5.1582,-5.141,-5.1028,-5.0818,-5.0856,-5.0932,-5.0321,-5.0388,-5.0233,-5.0139,-4.9999,-4.9879,-4.9745,-4.954,-4.934,-4.9197,-4.9135,-4.9049,-4.8962,-4.8875,-4.8804,-4.875,-4.8347,-4.7813,-4.7445,-4.6636,-4.603,-4.5571,-4.4874,-4.4433,-4.4213,-4.3828,-4.3608,-4.3589,-4.3516,-4.3479,-4.3479,-4.3479,-4.3479,-4.3479,-4.3479,-4.3479,-4.3479,-4.3479,-4.3479,-4.3479,-4.3479,-4.3445,-4.3394,-4.3323,-4.3215,-4.3142,-4.305,-4.2975,-4.2975,-4.2975,-4.2919,-4.2919,-4.2919,-4.2919,-4.2919,-4.2883,-4.2792,-4.2589,-4.2403,-4.1876,-4.126,-4.0867,-4.0357,-3.9446,-3.857,-3.7958,-3.7419,-3.6734,-3.6404,-3.6354,-3.6225,-3.601,-3.5861,-3.5728,-3.5661,-3.5616,-3.5616,-3.5616,-3.5616,-3.5616,-3.5616,-3.5616,-3.5616,-3.5616,-5.5479,-5.5479,-5.5498,-5.5479,-5.539,-5.539,-5.539,-5.539,-5.539,-5.539,-5.539,-5.539,-5.539,-5.5352,-5.5275,-5.5269,-5.5307,-5.4543,-5.4256,-5.3913,-5.3359,-5.2977,-5.2633,-5.2155,-5.162,-5.1391,-5.0951,-5.0531,-5.034,-5.0436,-5.0436,-5.029,-5.0278,-5.0255,-5.0182,-5.0063,-4.9965,-4.9802,-4.9585,-4.9449,-4.9308,-4.9216,-4.9101,-4.9049,-4.8962,-4.8838,-4.873,-4.7921,-4.7259,-4.6984,-4.5901,-4.5076,-4.4727,-4.4158,-4.3809,-4.3718,-4.3644,-4.3479,-4.3479,-4.3479,-4.3479,-4.3479,-4.3479,-4.3479,-4.3479,-4.3479,-4.3479,-4.3479,-4.3479,-4.3479,-4.3479,-4.3479,-4.3463,-4.3429,-4.3376,-4.3305,-4.3215,-4.316,-4.3086,-4.3068,-4.303,-4.2975,-4.2719,-4.2683,-4.2829,-4.2847,-4.2502,-4.2411,-4.1885,-4.1593,-4.1067,-4.0559,-4.019,-3.9603,-3.8786,-3.8091,-3.7603,-3.7189,-3.6641,-3.6416,-3.6314,-3.617,-3.5993,-3.5888,-3.5778,-3.5689,-3.5616,-3.5616,-3.5616,-3.5616,-3.5616,-3.5616,-3.5616,-3.5616,-3.5616,-5.539,-5.539,-5.539,-5.539,-5.539,-5.539,-5.539,-5.539,-5.539,-5.539,-5.539,-5.539,-5.539,-5.5269,-5.4772,-5.46,-5.4486,-5.3683,-5.3397,-5.3034,-5.2537,-5.2136,-5.1792,-5.1353,-5.0799,-5.0779,-5.0436,-5.0302,-5.0302,-5.0302,-5.0302,-5.0302,-5.0302,-5.0267,-5.0188,-5.0089,-4.9978,-4.9871,-4.9688,-4.954,-4.9387,-4.9262,-4.9133,-4.9084,-4.8384,-4.8186,-4.7949,-4.7124,-4.65,-4.5859,-4.5092,-4.4543,-4.4103,-4.3644,-4.3516,-4.3479,-4.3479,-4.3479,-4.3479,-4.3479,-4.3479,-4.3479,-4.3479,-4.3479,-4.3479,-4.3479,-4.3479,-4.3479,-4.3479,-4.3479,-4.3479,-4.3479,-4.348,-4.3464,-4.3429,-4.3376,-4.3305,-4.3233,-4.3178,-4.3142,-4.3068,-4.3012,-4.272,-4.2429,-4.2611,-4.2738,-4.2357,-4.1922,-4.1324,-4.0818,-4.0329,-3.9841,-3.9459,-3.8911,-3.8116,-3.7655,-3.7281,-3.6902,-3.6544,-3.6423,-3.6318,-3.6148,-3.5993,-3.591,-3.5822,-3.5689,-3.5622,-3.56,-3.5616,-3.5616,-3.5616,-3.5616,-3.5616,-3.5616,-3.5616,-5.539,-5.539,-5.539,-5.539,-5.539,-5.539,-5.539,-5.539,-5.539,-5.539,-5.5371,-5.5193,-5.5002,-5.4772,-5.4142,-5.3722,-5.3492,-5.29,-5.2537,-5.2136,-5.1677,-5.1295,-5.099,-5.0722,-5.0417,-5.0302,-5.0302,-5.0302,-5.0302,-5.0302,-5.0302,-5.0302,-5.029,-5.0278,-5.0231,-5.0089,-5.0005,-4.9925,-4.9807,-4.9678,-4.951,-4.9043,-4.8803,-4.8576,-4.7843,-4.7386,-4.7092,-4.6416,-4.5722,-4.5173,-4.461,-4.4101,-4.3735,-4.3479,-4.3479,-4.3479,-4.3479,-4.3479,-4.3479,-4.3479,-4.3479,-4.3479,-4.3479,-4.3479,-4.3479,-4.3479,-4.3479,-4.3479,-4.3479,-4.3479,-4.3479,-4.3479,-4.3479,-4.348,-4.3481,-4.3429,-4.3394,-4.334,-4.3269,-4.3215,-4.2996,-4.2614,-4.2232,-4.1832,-4.1578,-4.1723,-4.1542,-4.1053,-4.0456,-4.0004,-3.9662,-3.9157,-3.869,-3.8094,-3.7477,-3.7323,-3.7165,-3.6888,-3.6582,-3.6423,-3.6318,-3.6127,-3.6019,-3.5954,-3.5844,-3.5689,-3.5622,-3.56,-3.5616,-3.5616,-3.5616,-3.5616,-3.5616,-3.5616,-3.5616,-5.539,-5.539,-5.539,-5.539,-5.539,-5.539,-5.539,-5.5384,-5.5294,-5.5269,-5.5122,-5.4505,-5.4123,-5.3932,-5.3225,-5.2881,-5.2671,-5.2021,-5.162,-5.141,-5.0951,-5.0474,-5.0417,-5.034,-5.0302,-5.0302,-5.0302,-5.0302,-5.0302,-5.0302,-5.0302,-5.0302,-5.0302,-5.0302,-5.029,-5.017,-5.007,-4.9992,-4.9876,-4.9745,-4.9332,-4.8683,-4.8337,-4.7783,-4.7057,-4.6545,-4.6329,-4.5597,-4.4998,-4.4729,-4.4111,-4.3731,-4.3551,-4.3496,-4.3479,-4.3479,-4.3479,-4.3479,-4.3479,-4.3479,-4.3479,-4.3479,-4.3479,-4.3479,-4.3479,-4.3479,-4.3479,-4.3479,-4.3479,-4.3479,-4.3479,-4.3479,-4.3479,-4.3479,-4.348,-4.348,-4.3445,-4.3136,-4.3011,-4.2812,-4.2357,-4.1922,-4.156,-4.118,-4.0673,-4.0546,-4.0546,-4.0184,-3.9623,-3.928,-3.8993,-3.8725,-3.8241,-3.7936,-3.7519,-3.7278,-3.7066,-3.6788,-3.6602,-3.6482,-3.636,-3.6212,-3.6105,-3.6019,-3.5866,-3.5711,-3.5644,-3.5616,-3.5616,-3.5616,-3.5616,-3.5616,-3.5616,-3.5616,-3.5616,-5.539,-5.539,-5.539,-5.539,-5.539,-5.539,-5.539,-5.5275,-5.4849,-5.4543,-5.4352,-5.3626,-5.3244,-5.2977,-5.2442,-5.2002,-5.1849,-5.1142,-5.0741,-5.0722,-5.0417,-5.0359,-5.0302,-5.0302,-5.0302,-5.0302,-5.0302,-5.0302,-5.0302,-5.0302,-5.0302,-5.0302,-5.0302,-5.0302,-5.0278,-5.0207,-5.0145,-5.0057,-4.9882,-4.9556,-4.8881,-4.8329,-4.7784,-4.714,-4.6249,-4.576,-4.5658,-4.4816,-4.442,-4.4319,-4.374,-4.3618,-4.3532,-4.3515,-4.3479,-4.3479,-4.3479,-4.3479,-4.3479,-4.3479,-4.3479,-4.3479,-4.3479,-4.3479,-4.3479,-4.3479,-4.3479,-4.3479,-4.3479,-4.3479,-4.3479,-4.3479,-4.3479,-4.3479,-4.3497,-4.3497,-4.337,-4.2839,-4.2512,-4.2223,-4.1843,-4.0955,-4.0413,-4.0235,-3.9838,-3.9586,-3.9604,-3.9369,-3.8862,-3.8663,-3.8431,-3.8308,-3.8024,-3.7811,-3.7576,-3.7336,-3.7106,-3.6849,-3.6667,-3.6544,-3.6419,-3.6276,-3.6127,-3.6019,-3.5888,-3.5751,-3.5684,-3.5616,-3.5616,-3.5616,-3.5616,-3.5616,-3.5616,-3.5616,-3.5616,-5.539,-5.539,-5.539,-5.539,-5.539,-5.539,-5.5269,-5.4906,-5.4333,-5.3951,-5.3511,-5.2766,-5.2384,-5.2155,-5.1582,-5.1142,-5.1085,-5.0627,-5.0321,-5.0302,-5.0302,-5.0302,-5.0302,-5.0302,-5.0302,-5.0302,-5.0302,-5.0302,-5.0302,-5.0302,-5.0302,-5.0302,-5.0283,-5.0073,-5.0023,-4.9957,-4.9979,-4.9753,-4.939,-4.8929,-4.8173,-4.7489,-4.6948,-4.6255,-4.5534,-4.4935,-4.4727,-4.4332,-4.3915,-4.3818,-4.3736,-4.3634,-4.3566,-4.3515,-4.3496,-4.3479,-4.3479,-4.3479,-4.3479,-4.3479,-4.3479,-4.3479,-4.3479,-4.3479,-4.3479,-4.3479,-4.3479,-4.3479,-4.3479,-4.3479,-4.3479,-4.3479,-4.3461,-4.3461,-4.3185,-4.3185,-4.2873,-4.2324,-4.1847,-4.1579,-4.1069,-4.0163,-3.9407,-3.9195,-3.8982,-3.8803,-3.866,-3.8444,-3.8317,-3.8246,-3.8157,-3.8054,-3.7933,-3.7793,-3.7613,-3.741,-3.7164,-3.6911,-3.6748,-3.6585,-3.6464,-3.6318,-3.617,-3.6041,-3.5932,-3.5839,-3.5684,-3.5616,-3.5616,-3.5616,-3.5616,-3.5616,-3.5616,-3.5616,-3.5616,-5.539,-5.539,-5.5365,-5.5326,-5.5326,-5.5174,-5.4753,-5.4065,-5.397,-5.3492,-5.2728,-5.1926,-5.1551,-5.1391,-5.0703,-5.0417,-5.0436,-5.034,-5.0302,-5.0302,-5.0302,-5.0302,-5.0302,-5.0302,-5.0302,-5.0302,-5.0302,-5.0302,-5.0302,-5.0302,-5.0302,-5.0168,-5.0054,-4.9652,-4.945,-4.9377,-4.9344,-4.8966,-4.8732,-4.8136,-4.7313,-4.6506,-4.6031,-4.5421,-4.4853,-4.4426,-4.4237,-4.4026,-4.3961,-4.3899,-4.3837,-4.3736,-4.3634,-4.3549,-4.3513,-4.3479,-4.3479,-4.3479,-4.3479,-4.3479,-4.3479,-4.3479,-4.3479,-4.3479,-4.3479,-4.3479,-4.3479,-4.3479,-4.3479,-4.3479,-4.3479,-4.3461,-4.3424,-4.313,-4.2708,-4.247,-4.2176,-4.1717,-4.1222,-4.0783,-4.0251,-3.9546,-3.8937,-3.8583,-3.8629,-3.851,-3.844,-3.837,-3.8245,-3.8245,-3.8175,-3.8071,-3.7968,-3.7828,-3.7649,-3.7466,-3.7259,-3.6989,-3.6788,-3.6643,-3.6485,-3.6364,-3.6233,-3.6105,-3.6019,-3.5888,-3.5689,-3.5616,-3.5616,-3.5616,-3.5616,-3.5616,-3.5616,-3.5616,-3.5616,-5.539,-5.5333,-5.4734,-5.4467,-5.439,-5.3817,-5.3397,-5.3129,-5.2594,-5.2136,-5.1888,-5.1066,-5.0768,-5.0627,-5.0417,-5.0321,-5.0302,-5.0302,-5.0302,-5.0302,-5.0302,-5.0302,-5.0302,-5.0302,-5.0302,-5.0302,-5.0302,-5.0302,-5.0302,-5.0283,-4.9862,-4.9519,-4.9442,-4.8926,-4.8533,-4.8388,-4.8205,-4.8038,-4.7895,-4.7315,-4.6662,-4.5995,-4.5481,-4.489,-4.4539,-4.4211,-4.4135,-4.4036,-4.3992,-4.3915,-4.3883,-4.3783,-4.3617,-4.3565,-4.3548,-4.3496,-4.3479,-4.3479,-4.3479,-4.3479,-4.3479,-4.3479,-4.3479,-4.3479,-4.3479,-4.3479,-4.3479,-4.3479,-4.3461,-4.3461,-4.3314,-4.324,-4.3002,-4.2561,-4.2139,-4.1791,-4.1423,-4.0818,-4.0359,-4.0102,-3.957,-3.9208,-3.8598,-3.8515,-3.8528,-3.8376,-3.8292,-3.8241,-3.8207,-3.8209,-3.8192,-3.8123,-3.7985,-3.7846,-3.7703,-3.7539,-3.7317,-3.7087,-3.6869,-3.6684,-3.6544,-3.6402,-3.6276,-3.6148,-3.5997,-3.5822,-3.5644,-3.5616,-3.5616,-3.5616,-3.5616,-3.5616,-3.5616,-3.5616,-3.5616,-5.4677,-5.4314,-5.3817,-5.3416,-5.3053,-5.2556,-5.2155,-5.183,-5.1639,-5.1448,-5.1028,-5.055,-5.0302,-5.034,-5.0321,-5.0302,-5.0302,-5.0302,-5.0302,-5.0302,-5.0302,-5.0302,-5.0302,-5.0302,-5.0302,-5.0302,-5.0302,-5.0302,-5.0168,-4.9824,-4.9404,-4.864,-4.8582,-4.8048,-4.757,-4.7311,-4.7037,-4.6912,-4.6765,-4.6441,-4.6026,-4.5576,-4.5028,-4.466,-4.4406,-4.4289,-4.4199,-4.407,-4.3992,-4.3945,-4.3929,-4.3849,-4.3701,-4.3667,-4.3582,-4.3531,-4.3496,-4.3496,-4.3479,-4.3479,-4.3479,-4.3461,-4.3424,-4.3479,-4.3479,-4.3479,-4.3479,-4.3479,-4.3442,-4.3404,-4.3184,-4.291,-4.2415,-4.1901,-4.1515,-4.1111,-4.0524,-3.9863,-3.9588,-3.9405,-3.9114,-3.8823,-3.8609,-3.8559,-3.8478,-3.8417,-3.8338,-3.8292,-3.8241,-3.8207,-3.8209,-3.8175,-3.8021,-3.7881,-3.7757,-3.7594,-3.7391,-3.7164,-3.6928,-3.6728,-3.6568,-3.6402,-3.6276,-3.6105,-3.5949,-3.5795,-3.5661,-3.5639,-3.5616,-3.5616,-3.5616,-3.5616,-3.5616,-3.5616,-3.5616,-5.3531,-5.2843,-5.2728,-5.2251,-5.1563,-5.1505,-5.1085,-5.0436,-5.1123,-5.1047,-5.0436,-5.0321,-5.0302,-5.0302,-5.0302,-5.0302,-5.0302,-5.0302,-5.0302,-5.0302,-5.0302,-5.0302,-5.0302,-5.0302,-5.0302,-5.0302,-5.013,-4.9843,-4.9767,-4.9289,-4.8544,-4.7731,-4.7693,-4.7253,-4.6577,-4.6443,-4.62,-4.587,-4.5974,-4.5893,-4.5267,-4.4827,-4.4646,-4.4542,-4.4401,-4.4304,-4.4195,-4.4101,-4.4005,-4.3989,-4.3961,-4.3897,-4.3832,-4.3734,-4.3651,-4.3582,-4.3531,-4.3349,-4.3276,-4.3185,-4.3112,-4.3149,-4.3294,-4.302,-4.2837,-4.3075,-4.3094,-4.3002,-4.291,-4.2561,-4.2304,-4.2158,-4.1772,-4.1222,-4.0726,-4.0304,-3.979,-3.9313,-3.9129,-3.8982,-3.8927,-3.8658,-3.8658,-3.8609,-3.8559,-3.8478,-3.8415,-3.8354,-3.829,-3.8241,-3.8207,-3.8209,-3.8055,-3.7934,-3.7828,-3.7685,-3.7466,-3.7239,-3.7007,-3.6809,-3.6647,-3.6444,-3.6237,-3.6105,-3.5993,-3.5839,-3.5706,-3.5661,-3.5639,-3.5616,-3.5616,-3.5616,-3.5616,-3.5616,-3.5616,-5.2996,-5.2728,-5.2136,-5.141,-5.0665,-5.0608,-5.0531,-5.0321,-5.0512,-5.0531,-5.0321,-5.0302,-5.0302,-5.0302,-5.0302,-5.0302,-5.0302,-5.0302,-5.0302,-5.0302,-5.0302,-5.0302,-5.0264,-5.0187,-5.0225,-5.0092,-4.9748,-4.9079,-4.8563,-4.8143,-4.7704,-4.692,-4.6795,-4.6405,-4.5774,-4.5698,-4.5534,-4.5284,-4.5382,-4.5464,-4.5062,-4.4846,-4.4719,-4.4632,-4.451,-4.4387,-4.4285,-4.418,-4.4085,-4.402,-4.3989,-4.3942,-4.3915,-4.3802,-4.3719,-4.3634,-4.3599,-4.3327,-4.2981,-4.2762,-4.2542,-4.2029,-4.1846,-4.1719,-4.1811,-4.2304,-4.2488,-4.2359,-4.2158,-4.1774,-4.1425,-4.1315,-4.1077,-4.0506,-3.9974,-3.9533,-3.9111,-3.8927,-3.8726,-3.8707,-3.8707,-3.8692,-3.8692,-3.8658,-3.8609,-3.8541,-3.8491,-3.843,-3.8338,-3.829,-3.8257,-3.8207,-3.8088,-3.7968,-3.7881,-3.7739,-3.7521,-3.7316,-3.7085,-3.6908,-3.6725,-3.6464,-3.6237,-3.617,-3.6036,-3.5905,-3.579,-3.5701,-3.5639,-3.5639,-3.5616,-3.5616,-3.5616,-3.5616,-3.5616,-5.204,-5.1658,-5.1219,-5.076,-5.0359,-5.0302,-5.0302,-5.0302,-5.0302,-5.0302,-5.0302,-5.0302,-5.0302,-5.0302,-5.0302,-5.0302,-5.0302,-5.0302,-5.0302,-5.0302,-5.0245,-5.0302,-5.0206,-4.992,-4.9748,-4.9557,-4.8869,-4.8143,-4.7379,-4.7169,-4.6825,-4.6137,-4.5946,-4.5774,-4.5277,-4.5277,-4.5277,-4.5297,-4.5224,-4.5129,-4.5026,-4.4907,-4.4783,-4.4699,-4.4565,-4.4458,-4.4358,-4.4255,-4.4165,-4.407,-4.4036,-4.3989,-4.3945,-4.3899,-4.38,-4.3751,-4.3681,-4.3467,-4.2939,-4.2483,-4.2116,-4.1605,-4.1148,-4.1332,-4.1168,-4.157,-4.1479,-4.1387,-4.1572,-4.1279,-4.0744,-4.0506,-4.012,-3.9588,-3.935,-3.9056,-3.8891,-3.8799,-3.8707,-3.8707,-3.8707,-3.8707,-3.8692,-3.8692,-3.8643,-3.8624,-3.8575,-3.8491,-3.8417,-3.8354,-3.8323,-3.8241,-3.8139,-3.8003,-3.7899,-3.7757,-3.7558,-3.7373,-3.7164,-3.6928,-3.6687,-3.6464,-3.6259,-3.6191,-3.6122,-3.6048,-3.5917,-3.579,-3.5661,-3.5622,-3.56,-3.5616,-3.5616,-3.5616,-3.5616,-5.1028,-5.034,-5.0321,-5.0302,-5.0302,-5.0302,-5.0302,-5.0302,-5.0302,-5.0302,-5.0302,-5.0302,-5.0302,-5.0302,-5.0302,-5.0302,-5.0302,-5.0302,-5.0302,-5.0245,-5.0111,-4.9977,-4.9671,-4.9347,-4.8945,-4.8487,-4.7914,-4.715,-4.6385,-4.629,-4.6042,-4.5411,-4.5277,-4.5277,-4.5277,-4.5277,-4.5277,-4.5297,-4.5254,-4.5181,-4.5072,-4.4967,-4.4846,-4.4706,-4.4605,-4.4515,-4.4416,-4.4333,-4.4244,-4.4184,-4.4119,-4.4039,-4.3989,-4.3945,-4.3897,-4.3849,-4.3818,-4.3605,-4.3225,-4.2711,-4.2257,-4.1785,-4.1311,-4.0926,-4.0742,-4.0524,-4.0432,-4.0471,-4.0673,-4.0563,-4.0029,-3.968,-3.9258,-3.9001,-3.8854,-3.8762,-3.8726,-3.8707,-3.8707,-3.8707,-3.8707,-3.8707,-3.8707,-3.8707,-3.8692,-3.8673,-3.8643,-3.8559,-3.8494,-3.8449,-3.8385,-3.8305,-3.8188,-3.8071,-3.7934,-3.7811,-3.7649,-3.7411,-3.7203,-3.6911,-3.6667,-3.6485,-3.6339,-3.6233,-3.6165,-3.6114,-3.6027,-3.5939,-3.5795,-3.5684,-3.5667,-3.5684,-3.5616,-3.5616,-3.5616,-5.0474,-5.0302,-5.0302,-5.0302,-5.0302,-5.0302,-5.0302,-5.0302,-5.0264,-5.0302,-5.0168,-5.0245,-5.0302,-5.0283,-5.0302,-5.0245,-5.0092,-5.0092,-5.0225,-5.0264,-4.9557,-4.9366,-4.906,-4.8449,-4.7685,-4.7207,-4.6806,-4.6309,-4.5851,-4.566,-4.5507,-4.5297,-4.5277,-4.5277,-4.5277,-4.5277,-4.5297,-4.5297,-4.5286,-4.5254,-4.5159,-4.5038,-4.4907,-4.4821,-4.4764,-4.4651,-4.4528,-4.4458,-4.4373,-4.4285,-4.4214,-4.4119,-4.4055,-4.4008,-4.3976,-4.3929,-4.3881,-4.3592,-4.3211,-4.2791,-4.2318,-4.1222,-4.0657,-4.011,-3.9819,-3.9405,-3.9331,-3.9313,-3.9426,-3.9407,-3.9074,-3.9074,-3.8817,-3.8817,-3.8726,-3.8726,-3.8707,-3.8707,-3.8707,-3.8707,-3.8707,-3.8707,-3.8707,-3.8707,-3.8707,-3.8692,-3.8692,-3.8624,-3.8559,-3.8512,-3.8462,-3.8366,-3.8271,-3.8105,-3.7951,-3.7899,-3.7739,-3.7503,-3.726,-3.7007,-3.6768,-3.6585,-3.644,-3.6335,-3.6251,-3.6182,-3.6096,-3.6048,-3.5978,-3.5873,-3.5795,-3.5751,-3.5684,-3.5616,-3.5616]},{"header":{"parameterUnit":"m.s-1","parameterCategory":1,"la1":31.0,"la2":29.5877,"lo1":-88.7671,"lo2":-86.6584,"dy":0.0162,"dx":0.0185,"nx":115,"ny":88,"refTime":"2023-08-13T06:00:00:Z","depth":0,"parameterNumber":3,"parameterNumberName":"V-component_of_WINDS"},"data":[0.0,0.0,0.0,0.0,0.0,0.0,0.0,0.0,0.0,0.0,0.0,0.0,0.0,0.0,0.0,0.0,0.0,0.0,0.0,0.0,0.0,0.0,0.0,0.0,0.0,0.0,0.0,0.0,0.0,0.0,0.0,0.0,0.0,0.0,0.0,0.0,0.0,0.0,0.0,0.0,0.0,0.0,0.0,0.0,0.0,0.0,0.0,0.0,0.0,0.0,0.0,0.0,0.0,0.0,0.0,0.0,0.0,0.0,0.0,0.0,0.0,0.0,0.0,0.0,0.0,0.0,0.0,0.0,0.0,0.0,0.0,0.0,0.0,0.0,0.0,0.0,0.0,0.0,0.0,0.0,0.0,0.0,0.0,0.0,0.0,0.0,0.0,0.0,0.0,0.0,0.0,0.0,0.0,0.0,0.0,0.0,0.0,0.0,0.0,0.0,0.0,0.0,0.0,0.0,0.0,0.0,0.0,0.0,0.0,0.0,0.0,0.0,0.0,0.0,0.0,0.0,0.0,0.0,0.0,0.0,0.0,0.0,0.0,0.0,0.0,0.0,0.0,0.0,0.0,0.0,0.0,0.0,0.0,0.0,0.0,0.0,0.0,0.0,0.0,0.0,0.0,0.0,0.0,0.0,0.0,0.0,0.0,0.0,0.0,0.0,0.0,0.0,0.0,0.0,0.0,0.0,0.0,0.0,0.0,0.0,0.0,0.0,0.0,0.0,0.0,0.0,0.0,0.0,0.0,0.0,0.0,0.0,0.0,0.0,0.0,0.0,0.0,0.0,0.0,0.0,0.0,0.0,0.0,0.0,0.0,0.0,0.0,0.0,0.0,0.0,0.0,0.0,0.0,0.0,0.0,0.0,0.0,0.0,0.0,0.0,0.0,0.0,0.0,0.0,0.0,0.0,0.0,0.0,0.0,0.0,0.0,0.0,0.0,0.0,0.0,0.0,0.0,0.0,0.0,0.0,0.0,0.0,0.0,0.0,0.0,0.0,0.0,0.0,0.0,0.0,0.0,0.0,0.0,0.0,0.0,0.0,0.0,0.0,0.0,0.0,0.0,0.0,0.0,0.0,0.0,0.0,0.0,0.0,0.0,0.0,0.0,0.0,0.0,0.0,0.0,0.0,0.0,0.0,0.0,0.0,0.0,0.0,0.0,0.0,0.0,0.0,0.0,0.0,0.0,0.0,0.0,0.0,0.0,0.0,0.0,0.0,0.0,0.0,0.0,0.0,0.0,0.0,0.0,0.0,0.0,0.0,0.0,0.0,0.0,0.0,0.0,0.0,0.0,0.0,0.0,0.0,0.0,0.0,0.0,0.0,0.0,0.0,0.0,0.0,0.0,0.0,0.0,0.0,0.0,0.0,0.0,0.0,0.0,0.0,0.0,0.0,0.0,0.0,0.0,0.0,0.0,0.0,0.0,0.0,0.0,0.0,0.0,0.0,0.0,0.0,0.0,0.0,0.0,0.0,0.0,0.0,0.0,0.0,0.0,0.0,0.0,0.0,0.0,0.0,0.0,0.0,0.0,0.0,0.0,0.0,0.0,0.0,0.0,0.0,0.0,0.0,0.0,0.0,0.0,0.0,0.0,0.0,0.0,0.0,0.0,0.0,0.0,0.0,0.0,0.0,0.0,0.0,0.0,0.0,0.0,0.0,0.0,0.0,0.0,0.0,0.0,0.0,0.0,0.0,0.0,0.0,0.0,0.0,0.0,0.0,0.0,0.0,0.0,0.0,0.0,0.0,0.0,0.0,0.0,0.0,0.0,0.0,0.0,0.0,0.0,0.0,0.0,0.0,0.0,0.0,0.0,0.0,0.0,0.0,0.0,0.0,0.0,0.0,0.0,0.0,0.0,0.0,0.0,0.0,0.0,0.0,0.0,0.0,0.0,0.0,0.0,0.0,0.0,0.0,0.0,0.0,0.0,0.0,0.0,0.0,0.0,0.0,0.0,0.0,0.0,0.0,0.0,0.0,0.0,0.0,0.0,0.0,0.0,0.0,0.0,0.0,0.0,0.0,0.0,0.0,0.0,0.0,0.0,0.0,0.0,0.0,0.0,0.0,0.0,0.0,0.0,0.0,0.0,0.0,0.0,0.0,0.0,0.0,0.0,0.0,0.0,0.0,0.0,0.0,0.0,0.0,0.0,0.0,0.0,0.0,0.0,0.0,0.0,0.0,0.0,0.0,0.0,0.0,0.0,0.0,0.0,0.0,0.0,0.0,0.0,0.0,0.0,0.0,0.0,0.0,0.0,0.0,0.0,0.0,0.0,0.0,0.0,0.0,0.0,0.0,0.0,0.0,0.0,0.0,0.0,0.0,0.0,0.0,0.0,0.0,0.0,0.0,0.0,0.0,0.0,0.0,0.0,0.0,0.0,0.0,0.0,0.0,0.0,0.0,0.0,0.0,0.0,0.0,0.0,0.0,0.0,0.0,0.0,0.0,0.0,0.0,0.0,0.0,0.0,0.0,0.0,0.0,0.0,0.0,0.0,0.0,0.0,0.0,0.0,0.0,0.0,0.0,0.0,0.0,0.0,0.0,0.0,0.0,0.0,0.0,0.0,0.0,0.0,0.0,0.0,0.0,0.0,0.0,0.0,0.0,0.0,0.0,0.0,0.0,0.0,0.0,0.0,0.0,0.0,0.0,0.0,0.0,0.0,0.0,0.0,0.0,0.0,0.0,0.0,0.0,0.0,0.0,0.0,0.0,0.0,0.0,0.0,0.0,0.0,0.0,0.0,0.0,0.0,0.0,0.0,0.0,0.0,0.0,0.0,0.0,0.0,0.0,0.0,0.0,0.0,0.0,0.0,0.0,0.0,0.0,0.0,0.0,0.0,0.0,0.0,0.0,0.0,0.0,0.0,0.0,0.0,0.0,0.0,0.0,0.0,0.0,0.0,0.0,0.0,0.0,0.0,0.0,0.0,0.0,0.0,0.0,0.0,0.0,0.0,0.0,0.0,0.0,0.0,0.0,0.0,0.0,0.0,0.0,0.0,0.0,0.0,0.0,0.0,0.0,0.0,0.0,0.0,0.0,0.0,0.0,0.0,0.0,0.0,0.0,0.0,0.0,0.0,0.0,0.0,0.0,0.0,0.0,0.0,0.0,0.0,0.0,0.0,0.0,0.0,0.0,0.0,0.0,0.0,0.0,0.0,0.0,0.0,0.0,0.0,0.0,0.0,0.0,0.0,0.0,0.0,0.0,0.0,0.0,0.0,0.0,0.0,0.0,0.0,0.0,0.0,0.0,0.0,0.0,0.0,0.0,0.0,0.0,0.0,0.0,0.0,0.0,0.0,0.0,0.0,0.0,0.0,0.0,0.0,0.0,0.0,0.0,0.0,0.0,0.0,0.0,0.0,0.0,0.0,0.0,0.0,0.0,0.0,0.0,0.0,0.0,0.0,0.0,0.0,0.0,0.0,0.0,0.0,0.0,0.0,0.0,0.0,0.0,0.0,0.0,0.0,0.0,0.0,0.0,0.0,0.0,0.0,0.0,0.0,0.0,0.0,0.0,0.0,0.0,0.0,0.0,0.0,0.0,0.0,0.0,0.0,0.0,0.0,0.0,0.0,0.0,0.0,0.0,0.0,0.0,0.0,0.0,0.0,0.0,0.0,0.0,0.0,0.0,0.0,0.0,0.0,0.0,0.0,0.0,0.0,0.0,0.0,0.0,0.0,0.0,0.0,0.0,0.0,0.0,0.0,0.0,0.0,0.0,0.0,0.0,0.0,0.0,0.0,0.0,0.0,0.0,0.0,0.0,0.0,0.0,0.0,0.0,0.0,0.0,0.0,0.0,0.0,0.0,0.0,0.0,0.0,0.0,0.0,0.0,0.0,0.0,0.0,0.0,0.0,0.0,0.0,0.0,0.0,0.0,0.0,0.0,0.0,0.0,0.0,0.0,0.0,0.0,0.0,0.0,0.0,0.0,0.0,0.0,0.0,0.0,0.0,0.0,0.0,0.0,0.0,0.0,0.0,0.0,0.0,0.0,0.0,0.0,0.0,0.0,0.0,0.0,0.0,0.0,0.0,0.0,0.0,0.0,0.0,0.0,0.0,0.0,0.0,0.0,0.0,0.0,0.0,0.0,0.0,0.0,0.0,0.0,0.0,0.0,0.0,0.0,0.0,0.0,0.0,0.0,0.0,0.0,0.0,0.0,0.0,0.0,0.0,0.0,0.0,0.0,0.0,0.0,0.0,0.0,0.0,0.0,0.0,0.0,0.0,0.0,0.0,0.0,0.0,0.0,0.0,0.0,0.0,0.0,-0.8524,0.0,0.0,0.0,0.0,0.0,0.0,0.0,0.0,0.0,0.0,0.0,0.0,0.0,0.0,0.0,0.0,0.0,0.0,0.0,0.0,0.0,0.0,0.0,0.0,0.0,0.0,0.0,0.0,0.0,0.0,0.0,0.0,0.0,0.0,0.0,0.0,0.0,0.0,0.0,0.0,0.0,0.0,0.0,0.0,0.0,0.0,0.0,0.0,0.0,0.0,0.0,0.0,0.0,0.0,0.0,0.0,0.0,0.0,0.0,0.0,0.0,0.0,0.0,0.0,0.0,0.0,0.0,0.0,0.0,0.0,0.0,0.0,0.0,0.0,0.0,0.0,0.0,0.0,0.0,0.0,0.0,0.0,0.0,0.0,0.0,0.0,0.0,0.0,0.0,0.0,0.0,0.0,0.0,0.0,0.0,0.0,0.0,0.0,0.0,0.0,0.0,0.0,0.0,0.0,0.0,0.0,0.0,0.0,0.0,0.0,-0.8616,-0.8616,-0.8616,-0.8616,-0.8612,0.0,0.0,0.0,0.0,0.0,0.0,0.0,0.0,0.0,0.0,0.0,0.0,0.0,0.0,0.0,0.0,0.0,0.0,0.0,0.0,0.0,0.0,0.0,0.0,0.0,0.0,0.0,0.0,0.0,0.0,0.0,0.0,0.0,0.0,0.0,0.0,0.0,0.0,0.0,0.0,0.0,0.0,0.0,0.0,0.0,0.0,0.0,0.0,0.0,0.0,0.0,0.0,0.0,0.0,0.0,0.0,0.0,0.0,0.0,0.0,0.0,0.0,0.0,0.0,0.0,0.0,0.0,0.0,0.0,0.0,0.0,0.0,0.0,0.0,0.0,0.0,0.0,0.0,0.0,0.0,0.0,0.0,0.0,0.0,0.0,0.0,0.0,0.0,0.0,0.0,0.0,0.0,0.0,0.0,0.0,0.0,0.0,0.0,0.0,0.0,0.0,0.0,0.0,0.0,0.0,0.0,0.0,0.0,0.0,0.0,0.0,0.0,-0.8616,-0.8608,-0.87,0.0,0.0,0.0,0.0,0.0,0.0,0.0,0.0,0.0,0.0,0.0,0.0,0.0,0.0,0.0,0.0,0.0,0.0,0.0,0.0,0.0,0.0,0.0,0.0,0.0,0.0,0.0,0.0,0.0,0.0,0.0,0.0,0.0,0.0,0.0,0.0,0.0,0.0,0.0,0.0,0.0,0.0,0.0,0.0,0.0,0.0,0.0,0.0,0.0,0.0,0.0,0.0,0.0,0.0,0.0,0.0,0.0,0.0,0.0,0.0,0.0,0.0,0.0,0.0,0.0,0.0,0.0,0.0,0.0,0.0,0.0,0.0,0.0,0.0,0.0,0.0,0.0,0.0,0.0,0.0,0.0,0.0,0.0,0.0,0.0,0.0,0.0,0.0,0.0,0.0,0.0,0.0,0.0,0.0,0.0,0.0,0.0,0.0,0.0,0.0,0.0,0.0,0.0,0.0,0.0,0.0,0.0,0.0,0.0,0.0,-0.8616,-0.8616,-0.8612,0.0,-0.8872,0.0,0.0,0.0,0.0,0.0,0.0,0.0,0.0,0.0,0.0,0.0,0.0,0.0,0.0,0.0,0.0,0.0,0.0,0.0,0.0,0.0,0.0,0.0,0.0,0.0,0.0,0.0,0.0,0.0,0.0,0.0,0.0,0.0,0.0,0.0,0.0,0.0,0.0,0.0,0.0,0.0,0.0,0.0,0.0,0.0,0.0,0.0,0.0,0.0,0.0,0.0,0.0,0.0,0.0,0.0,0.0,0.0,0.0,0.0,0.0,0.0,0.0,0.0,0.0,0.0,0.0,0.0,0.0,0.0,0.0,0.0,0.0,0.0,0.0,0.0,0.0,0.0,0.0,0.0,0.0,0.0,0.0,0.0,0.0,0.0,0.0,0.0,0.0,0.0,0.0,0.0,0.0,0.0,0.0,0.0,0.0,0.0,0.0,0.0,0.0,0.0,0.0,0.0,0.0,0.0,0.0,0.0,0.0,0.0,0.0,-0.8616,-0.8616,-0.8696,-0.8813,0.0,0.0,0.0,0.0,0.0,0.0,0.0,0.0,0.0,0.0,0.0,0.0,0.0,0.0,0.0,0.0,0.0,0.0,0.0,0.0,0.0,0.0,0.0,0.0,0.0,0.0,0.0,0.0,0.0,0.0,0.0,0.0,0.0,0.0,0.0,0.0,0.0,0.0,0.0,0.0,0.0,0.0,0.0,0.0,0.0,0.0,0.0,0.0,0.0,0.0,0.0,0.0,0.0,0.0,0.0,0.0,0.0,0.0,0.0,0.0,0.0,0.0,0.0,0.0,0.0,0.0,0.0,0.0,0.0,0.0,0.0,0.0,0.0,0.0,0.0,0.0,0.0,0.0,0.0,0.0,0.0,0.0,0.0,0.0,0.0,0.0,0.0,0.0,0.0,0.0,0.0,0.0,0.0,0.0,0.0,0.0,0.0,0.0,0.0,0.0,0.0,0.0,0.0,0.0,0.0,0.0,0.0,0.0,0.0,0.0,-0.8657,-0.8677,-0.877,-0.8849,-0.8974,-0.9175,0.0,0.0,0.0,0.0,0.0,0.0,0.0,0.0,0.0,0.0,0.0,0.0,0.0,0.0,0.0,0.0,0.0,0.0,0.0,0.0,0.0,0.0,0.0,0.0,0.0,0.0,0.0,0.0,0.0,0.0,0.0,0.0,0.0,0.0,0.0,0.0,0.0,0.0,0.0,0.0,0.0,0.0,0.0,0.0,0.0,0.0,0.0,0.0,0.0,0.0,0.0,0.0,0.0,0.0,0.0,0.0,0.0,0.0,0.0,0.0,0.0,0.0,0.0,0.0,0.0,0.0,0.0,0.0,0.0,0.0,0.0,0.0,0.0,0.0,0.0,0.0,0.0,0.0,0.0,0.0,0.0,0.0,0.0,0.0,0.0,0.0,0.0,0.0,0.0,0.0,0.0,0.0,0.0,0.0,0.0,0.0,0.0,0.0,0.0,0.0,0.0,0.0,0.0,0.0,0.0,0.0,0.0,0.0,-0.862,-0.8727,-0.8898,-0.9161,-0.9004,-0.9122,0.0,0.0,0.0,0.0,0.0,0.0,0.0,0.0,0.0,0.0,0.0,0.0,0.0,0.0,0.0,0.0,0.0,0.0,0.0,0.0,0.0,0.0,0.0,0.0,0.0,0.0,0.0,0.0,0.0,0.0,0.0,0.0,0.0,0.0,0.0,0.0,0.0,0.0,0.0,0.0,0.0,0.0,0.0,0.0,0.0,0.0,0.0,0.0,0.0,0.0,0.0,0.0,0.0,0.0,0.0,0.0,0.0,0.0,0.0,0.0,0.0,0.0,0.0,0.0,0.0,0.0,0.0,0.0,0.0,0.0,0.0,0.0,0.0,0.0,0.0,0.0,0.0,0.0,0.0,0.0,0.0,0.0,0.0,0.0,0.0,0.0,0.0,0.0,0.0,0.0,0.0,0.0,0.0,0.0,0.0,0.0,0.0,0.0,0.0,0.0,0.0,0.0,0.0,0.0,0.0,0.0,0.0,0.0,0.0,-0.8731,-0.8901,-0.9029,-0.9186,-0.9257,-0.9478,0.0,0.0,0.0,0.0,0.0,0.0,0.0,0.0,0.0,0.0,0.0,0.0,0.0,0.0,0.0,0.0,0.0,0.0,0.0,0.0,0.0,0.0,0.0,0.0,0.0,0.0,0.0,0.0,0.0,0.0,0.0,0.0,0.0,0.0,0.0,0.0,0.0,0.0,0.0,0.0,0.0,0.0,0.0,0.0,0.0,0.0,0.0,0.0,0.0,0.0,0.0,0.0,0.0,0.0,0.0,0.0,0.0,0.0,0.0,0.0,0.0,0.0,0.0,0.0,0.0,0.0,0.0,0.0,0.0,0.0,0.0,0.0,0.0,0.0,0.0,0.0,0.0,0.0,0.0,0.0,0.0,0.0,0.0,0.0,0.0,0.0,0.0,0.0,0.0,0.0,0.0,0.0,0.0,0.0,0.0,0.0,0.0,0.0,0.0,0.0,0.0,0.0,0.0,0.0,0.0,0.0,0.0,0.0,0.0,-0.8982,0.0,-0.9199,-0.9506,-0.9481,-0.9687,0.0,0.0,0.0,0.0,0.0,0.0,0.0,0.0,0.0,0.0,0.0,0.0,0.0,0.0,0.0,0.0,0.0,0.0,0.0,0.0,0.0,0.0,0.0,0.0,0.0,0.0,0.0,0.0,0.0,0.0,0.0,0.0,0.0,0.0,0.0,0.0,0.0,0.0,0.0,0.0,0.0,0.0,0.0,0.0,0.0,0.0,0.0,0.0,0.0,0.0,0.0,0.0,0.0,0.0,0.0,0.0,0.0,0.0,0.0,0.0,0.0,0.0,0.0,0.0,0.0,0.0,0.0,0.0,0.0,0.0,0.0,0.0,0.0,0.0,0.0,0.0,0.0,0.0,0.0,0.0,0.0,0.0,0.0,0.0,0.0,0.0,0.0,0.0,0.0,0.0,0.0,0.0,0.0,0.0,0.0,0.0,0.0,0.0,0.0,0.0,0.0,0.0,0.0,0.0,0.0,0.0,0.0,0.0,-0.8877,-0.9363,-0.9198,-0.945,-1.0071,-0.9721,-0.9795,0.0,0.0,0.0,0.0,0.0,0.0,0.0,0.0,0.0,0.0,0.0,0.0,0.0,0.0,0.0,0.0,0.0,0.0,0.0,0.0,0.0,0.0,0.0,0.0,0.0,0.0,0.0,0.0,0.0,0.0,0.0,0.0,0.0,0.0,0.0,0.0,0.0,0.0,0.0,0.0,0.0,0.0,0.0,0.0,0.0,0.0,0.0,0.0,0.0,0.0,0.0,0.0,0.0,0.0,0.0,0.0,0.0,0.0,0.0,0.0,0.0,0.0,0.0,0.0,0.0,0.0,0.0,0.0,0.0,0.0,0.0,0.0,0.0,0.0,0.0,0.0,0.0,0.0,0.0,0.0,0.0,0.0,0.0,0.0,0.0,0.0,0.0,0.0,0.0,0.0,0.0,0.0,0.0,0.0,0.0,0.0,0.0,0.0,0.0,0.0,0.0,0.0,0.0,0.0,0.0,0.0,0.0,0.0,0.0,-0.9588,-0.9637,-0.9917,-1.046,-1.0112,-1.0399,0.0,0.0,0.0,0.0,0.0,0.0,0.0,0.0,0.0,0.0,0.0,0.0,0.0,0.0,0.0,0.0,0.0,0.0,0.0,0.0,0.0,0.0,0.0,0.0,0.0,0.0,0.0,0.0,0.0,0.0,0.0,0.0,0.0,0.0,0.0,0.0,0.0,0.0,0.0,0.0,0.0,0.0,0.0,0.0,0.0,0.0,0.0,0.0,0.0,0.0,0.0,0.0,0.0,0.0,0.0,0.0,0.0,0.0,0.0,0.0,0.0,0.0,0.0,0.0,0.0,0.0,0.0,0.0,0.0,0.0,0.0,0.0,0.0,0.0,0.0,0.0,0.0,0.0,0.0,0.0,0.0,0.0,0.0,0.0,0.0,0.0,0.0,0.0,0.0,0.0,0.0,0.0,0.0,0.0,0.0,0.0,0.0,0.0,0.0,0.0,0.0,0.0,0.0,0.0,0.0,0.0,0.0,0.0,0.0,-1.0387,-1.0103,-1.031,-1.0966,-1.0657,-1.0934,-1.1872,0.0,0.0,0.0,0.0,0.0,0.0,0.0,0.0,0.0,0.0,0.0,0.0,0.0,0.0,0.0,0.0,0.0,0.0,0.0,0.0,0.0,0.0,0.0,0.0,0.0,0.0,0.0,0.0,0.0,0.0,0.0,0.0,0.0,0.0,0.0,0.0,0.0,0.0,0.0,0.0,0.0,0.0,0.0,0.0,0.0,0.0,0.0,0.0,0.0,0.0,0.0,0.0,0.0,0.0,0.0,0.0,0.0,0.0,0.0,0.0,0.0,0.0,0.0,0.0,0.0,0.0,0.0,0.0,0.0,0.0,0.0,0.0,0.0,0.0,0.0,0.0,0.0,0.0,0.0,0.0,0.0,0.0,0.0,0.0,0.0,0.0,0.0,0.0,0.0,0.0,0.0,0.0,0.0,0.0,0.0,0.0,0.0,0.0,0.0,0.0,0.0,0.0,0.0,0.0,0.0,0.0,0.0,0.0,-1.1704,-1.0771,-1.0654,-1.145,-1.1316,-1.1497,0.0,0.0,0.0,0.0,0.0,0.0,0.0,0.0,0.0,0.0,0.0,0.0,0.0,0.0,0.0,0.0,0.0,0.0,0.0,0.0,0.0,0.0,0.0,0.0,0.0,0.0,0.0,0.0,0.0,0.0,0.0,0.0,0.0,0.0,0.0,0.0,0.0,0.0,0.0,0.0,0.0,0.0,0.0,0.0,0.0,0.0,0.0,0.0,0.0,0.0,0.0,0.0,0.0,0.0,0.0,0.0,0.0,0.0,0.0,0.0,0.0,0.0,0.0,0.0,0.0,0.0,0.0,0.0,0.0,0.0,0.0,0.0,0.0,0.0,0.0,0.0,0.0,0.0,0.0,0.0,0.0,0.0,0.0,0.0,0.0,0.0,0.0,0.0,0.0,0.0,0.0,0.0,0.0,0.0,0.0,0.0,0.0,0.0,0.0,0.0,0.0,0.0,0.0,0.0,0.0,0.0,0.0,0.0,0.0,-1.2815,-1.2414,-1.2197,-1.2293,-1.1943,-1.2085,0.0,0.0,0.0,0.0,0.0,0.0,0.0,0.0,0.0,0.0,0.0,0.0,0.0,0.0,0.0,0.0,0.0,0.0,0.0,0.0,0.0,0.0,0.0,0.0,0.0,0.0,0.0,0.0,0.0,0.0,0.0,0.0,0.0,0.0,0.0,0.0,0.0,0.0,0.0,0.0,0.0,0.0,0.0,0.0,0.0,0.0,0.0,0.0,0.0,0.0,0.0,0.0,0.0,0.0,0.0,0.0,0.0,0.0,0.0,0.0,0.0,0.0,0.0,0.0,0.0,0.0,0.0,0.0,0.0,0.0,0.0,0.0,0.0,0.0,0.0,0.0,0.0,0.0,0.0,0.0,0.0,0.0,0.0,0.0,0.0,0.0,0.0,0.0,0.0,0.0,0.0,0.0,0.0,0.0,0.0,0.0,0.0,0.0,0.0,0.0,0.0,0.0,0.0,0.0,0.0,0.0,0.0,0.0,-1.3091,-1.384,-1.3689,-1.3621,-1.3598,-1.3059,-1.3015,0.0,0.0,0.0,0.0,0.0,0.0,0.0,0.0,0.0,0.0,0.0,0.0,0.0,0.0,0.0,0.0,0.0,0.0,0.0,0.0,0.0,0.0,0.0,0.0,0.0,0.0,0.0,0.0,0.0,0.0,0.0,0.0,0.0,0.0,0.0,0.0,0.0,0.0,0.0,0.0,0.0,0.0,0.0,0.0,0.0,0.0,0.0,0.0,0.0,0.0,0.0,0.0,0.0,0.0,0.0,0.0,0.0,0.0,0.0,0.0,0.0,0.0,0.0,0.0,0.0,0.0,0.0,0.0,0.0,0.0,0.0,0.0,0.0,0.0,0.0,0.0,0.0,0.0,0.0,0.0,0.0,0.0,0.0,0.0,0.0,0.0,0.0,0.0,0.0,0.0,0.0,0.0,0.0,0.0,0.0,0.0,0.0,0.0,0.0,0.0,0.0,0.0,0.0,0.0,0.0,0.0,0.0,0.0,-1.4192,-1.4682,-1.4671,-1.4773,-1.507,-1.4331,-1.4019,0.0,0.0,0.0,0.0,0.0,0.0,0.0,0.0,0.0,0.0,0.0,0.0,0.0,0.0,0.0,0.0,0.0,0.0,0.0,0.0,0.0,0.0,0.0,0.0,0.0,0.0,0.0,0.0,0.0,0.0,0.0,0.0,0.0,0.0,0.0,0.0,0.0,0.0,0.0,0.0,0.0,0.0,0.0,0.0,0.0,0.0,0.0,0.0,0.0,0.0,0.0,0.0,0.0,0.0,0.0,0.0,0.0,0.0,0.0,0.0,0.0,0.0,0.0,0.0,0.0,0.0,0.0,0.0,0.0,0.0,0.0,0.0,0.0,0.0,0.0,0.0,0.0,0.0,0.0,0.0,0.0,0.0,0.0,0.0,0.0,0.0,0.0,0.0,0.0,0.0,0.0,0.0,0.0,0.0,0.0,0.0,0.0,0.0,0.0,0.0,0.0,0.0,0.0,0.0,0.0,0.0,0.0,0.0,-1.4777,-1.5195,-1.503,-1.5186,-1.5715,-1.4904,-1.455,0.0,0.0,0.0,0.0,0.0,0.0,0.0,0.0,0.0,0.0,0.0,0.0,0.0,0.0,0.0,0.0,0.0,0.0,0.0,0.0,0.0,0.0,0.0,0.0,0.0,0.0,0.0,0.0,0.0,0.0,0.0,0.0,0.0,0.0,0.0,0.0,0.0,0.0,0.0,0.0,0.0,0.0,0.0,0.0,0.0,0.0,0.0,0.0,-1.4798,0.0,0.0,0.0,0.0,0.0,0.0,0.0,0.0,0.0,0.0,0.0,0.0,0.0,0.0,0.0,0.0,0.0,0.0,0.0,0.0,0.0,0.0,0.0,0.0,0.0,0.0,0.0,0.0,0.0,0.0,0.0,0.0,0.0,0.0,0.0,0.0,0.0,0.0,0.0,0.0,0.0,0.0,0.0,0.0,0.0,0.0,0.0,0.0,0.0,0.0,0.0,0.0,0.0,0.0,0.0,0.0,0.0,0.0,0.0,-1.5565,-1.5828,-1.5834,-1.5901,-1.6059,-1.5803,-1.5474,0.0,0.0,0.0,0.0,0.0,0.0,0.0,0.0,0.0,0.0,0.0,0.0,0.0,0.0,0.0,0.0,0.0,0.0,0.0,0.0,0.0,0.0,0.0,0.0,0.0,0.0,0.0,0.0,0.0,0.0,0.0,0.0,0.0,0.0,0.0,0.0,0.0,0.0,0.0,0.0,0.0,0.0,0.0,0.0,0.0,0.0,0.0,0.0,0.0,0.0,0.0,0.0,0.0,0.0,0.0,0.0,0.0,0.0,0.0,0.0,0.0,0.0,0.0,0.0,0.0,0.0,0.0,0.0,0.0,0.0,0.0,0.0,0.0,0.0,0.0,0.0,0.0,0.0,0.0,0.0,0.0,0.0,0.0,0.0,0.0,0.0,0.0,0.0,0.0,0.0,0.0,0.0,0.0,0.0,0.0,0.0,0.0,0.0,0.0,0.0,0.0,0.0,0.0,0.0,0.0,0.0,0.0,-1.5918,-1.6462,-1.6502,-1.6746,-1.6752,-1.6521,-1.6691,-1.6449,-1.5632,0.0,0.0,0.0,0.0,0.0,0.0,0.0,0.0,0.0,0.0,0.0,0.0,0.0,0.0,0.0,0.0,0.0,0.0,0.0,0.0,0.0,0.0,0.0,0.0,0.0,0.0,0.0,0.0,0.0,0.0,0.0,0.0,0.0,0.0,0.0,0.0,0.0,0.0,-1.4187,-1.4955,0.0,0.0,0.0,0.0,0.0,0.0,0.0,0.0,-1.6529,0.0,0.0,0.0,0.0,0.0,0.0,0.0,0.0,0.0,0.0,0.0,0.0,0.0,0.0,0.0,0.0,0.0,0.0,0.0,0.0,0.0,0.0,0.0,0.0,0.0,0.0,0.0,0.0,0.0,0.0,0.0,0.0,0.0,0.0,0.0,0.0,0.0,0.0,0.0,0.0,0.0,0.0,0.0,0.0,0.0,0.0,0.0,0.0,0.0,0.0,0.0,0.0,0.0,0.0,0.0,0.0,-1.5689,-1.6613,-1.7178,-1.7345,-1.7402,-1.7402,-1.7345,-1.7228,-1.6821,-1.6156,0.0,0.0,0.0,0.0,0.0,0.0,0.0,0.0,0.0,0.0,0.0,0.0,0.0,0.0,0.0,0.0,0.0,0.0,0.0,0.0,0.0,0.0,0.0,0.0,0.0,0.0,0.0,0.0,0.0,0.0,0.0,0.0,0.0,0.0,0.0,0.0,0.0,0.0,0.0,-1.5562,-1.5928,0.0,0.0,0.0,0.0,0.0,0.0,0.0,0.0,-1.7318,0.0,0.0,0.0,0.0,0.0,0.0,0.0,0.0,0.0,0.0,0.0,0.0,0.0,0.0,0.0,0.0,0.0,0.0,0.0,0.0,0.0,0.0,0.0,0.0,0.0,0.0,0.0,0.0,0.0,0.0,0.0,0.0,0.0,0.0,0.0,0.0,0.0,0.0,0.0,0.0,0.0,0.0,0.0,0.0,0.0,0.0,0.0,0.0,0.0,0.0,0.0,0.0,0.0,0.0,0.0,-1.6119,-1.7113,-1.7608,-1.7601,-1.7874,-1.7887,-1.7607,-1.7621,-1.7182,0.0,0.0,0.0,0.0,0.0,0.0,0.0,0.0,0.0,0.0,0.0,0.0,0.0,0.0,0.0,0.0,0.0,0.0,0.0,0.0,0.0,0.0,0.0,0.0,0.0,0.0,0.0,0.0,0.0,0.0,0.0,0.0,0.0,0.0,0.0,0.0,0.0,0.0,0.0,0.0,-1.5957,-1.6206,-1.6389,0.0,0.0,0.0,0.0,0.0,0.0,-1.7841,-1.7845,0.0,0.0,0.0,0.0,0.0,0.0,0.0,0.0,0.0,0.0,0.0,0.0,0.0,0.0,0.0,0.0,0.0,0.0,0.0,0.0,0.0,0.0,0.0,0.0,0.0,0.0,0.0,0.0,0.0,0.0,0.0,0.0,0.0,0.0,0.0,0.0,0.0,0.0,0.0,0.0,0.0,0.0,0.0,0.0,0.0,0.0,0.0,0.0,0.0,0.0,0.0,0.0,0.0,0.0,0.0,-1.6465,-1.7529,-1.7978,-1.7781,-1.8307,-1.8333,-1.7787,-1.7978,-1.754,0.0,0.0,0.0,0.0,0.0,0.0,0.0,0.0,0.0,0.0,0.0,0.0,0.0,0.0,0.0,0.0,0.0,0.0,0.0,0.0,0.0,0.0,0.0,0.0,0.0,0.0,0.0,0.0,0.0,0.0,0.0,0.0,0.0,0.0,0.0,0.0,0.0,0.0,0.0,0.0,0.0,-1.6485,-1.6638,-1.7099,0.0,0.0,0.0,0.0,-1.8272,-1.8338,0.0,0.0,0.0,0.0,0.0,0.0,0.0,0.0,0.0,0.0,0.0,0.0,0.0,0.0,0.0,0.0,0.0,0.0,0.0,0.0,0.0,0.0,0.0,0.0,0.0,0.0,0.0,0.0,0.0,0.0,0.0,0.0,0.0,0.0,0.0,0.0,0.0,0.0,0.0,0.0,0.0,0.0,0.0,0.0,0.0,0.0,0.0,0.0,0.0,0.0,0.0,0.0,0.0,0.0,0.0,0.0,-1.7103,-1.7975,-1.8435,-1.8399,-1.9008,-1.9028,-1.8406,-1.8435,-1.7869,0.0,0.0,0.0,0.0,0.0,0.0,0.0,0.0,0.0,0.0,0.0,0.0,0.0,0.0,0.0,0.0,0.0,0.0,0.0,0.0,0.0,0.0,0.0,0.0,0.0,0.0,0.0,0.0,0.0,0.0,0.0,0.0,0.0,0.0,0.0,0.0,0.0,0.0,0.0,0.0,0.0,-1.6682,-1.753,-1.7713,-1.786,0.0,0.0,-1.8495,-1.8271,-1.8764,0.0,0.0,0.0,0.0,0.0,0.0,0.0,0.0,0.0,0.0,0.0,0.0,0.0,0.0,0.0,0.0,0.0,0.0,0.0,0.0,0.0,0.0,0.0,0.0,0.0,0.0,0.0,0.0,0.0,0.0,0.0,0.0,0.0,0.0,0.0,0.0,0.0,0.0,0.0,0.0,0.0,0.0,0.0,0.0,0.0,0.0,0.0,0.0,0.0,0.0,0.0,0.0,0.0,0.0,0.0,-1.662,-1.7642,-1.821,-1.8577,-1.8738,-1.9152,-1.9165,-1.8744,-1.8577,-1.8083,0.0,0.0,0.0,0.0,0.0,0.0,0.0,0.0,0.0,0.0,0.0,0.0,0.0,0.0,0.0,0.0,0.0,0.0,0.0,0.0,0.0,0.0,0.0,0.0,0.0,0.0,0.0,0.0,0.0,0.0,0.0,0.0,0.0,0.0,0.0,0.0,0.0,0.0,0.0,0.0,0.0,0.0,-1.7713,-1.7977,0.0,0.0,0.0,-1.9504,-1.9475,0.0,0.0,0.0,0.0,0.0,0.0,0.0,0.0,0.0,0.0,0.0,0.0,0.0,0.0,0.0,0.0,0.0,0.0,0.0,0.0,0.0,0.0,0.0,0.0,0.0,0.0,0.0,0.0,0.0,0.0,0.0,0.0,0.0,0.0,0.0,0.0,0.0,0.0,0.0,0.0,0.0,0.0,0.0,0.0,0.0,0.0,0.0,0.0,0.0,0.0,0.0,0.0,0.0,0.0,0.0,0.0,0.0,-1.7975,-1.8337,-1.8631,-1.8918,-1.9219,-1.9225,-1.8931,-1.8637,0.0,0.0,0.0,0.0,0.0,0.0,0.0,0.0,0.0,0.0,0.0,0.0,0.0,0.0,0.0,0.0,0.0,0.0,0.0,0.0,0.0,0.0,0.0,0.0,0.0,0.0,0.0,-1.3901,0.0,0.0,0.0,0.0,0.0,0.0,0.0,0.0,0.0,0.0,0.0,0.0,0.0,0.0,-1.7355,-1.7941,-1.8366,-1.884,0.0,0.0,-2.0467,-2.0652,-2.0818,-2.0912,0.0,0.0,0.0,0.0,0.0,0.0,0.0,0.0,0.0,0.0,0.0,0.0,0.0,0.0,0.0,0.0,0.0,0.0,0.0,0.0,0.0,0.0,0.0,0.0,0.0,0.0,0.0,0.0,0.0,0.0,0.0,0.0,0.0,0.0,0.0,0.0,0.0,0.0,0.0,0.0,0.0,0.0,0.0,0.0,0.0,0.0,0.0,0.0,0.0,0.0,0.0,0.0,0.0,0.0,0.0,-1.7962,-1.8337,-1.8631,-1.8918,-1.9219,-1.9225,-1.8931,-1.8651,-1.821,0.0,0.0,0.0,0.0,0.0,0.0,0.0,0.0,0.0,0.0,0.0,0.0,0.0,0.0,0.0,0.0,0.0,0.0,0.0,0.0,0.0,0.0,0.0,0.0,0.0,0.0,0.0,0.0,0.0,0.0,0.0,0.0,0.0,0.0,0.0,0.0,0.0,0.0,0.0,0.0,0.0,-1.7985,-1.8566,-1.9147,-1.974,0.0,0.0,-2.1212,-2.1172,-2.1476,-2.176,-2.1856,0.0,0.0,0.0,0.0,0.0,0.0,0.0,0.0,0.0,0.0,0.0,0.0,0.0,0.0,0.0,0.0,0.0,0.0,0.0,0.0,0.0,0.0,0.0,0.0,0.0,0.0,0.0,0.0,0.0,0.0,0.0,0.0,0.0,0.0,0.0,0.0,0.0,0.0,0.0,0.0,0.0,0.0,0.0,0.0,0.0,0.0,0.0,0.0,0.0,0.0,0.0,0.0,0.0,-1.7422,-1.831,-1.843,-1.8724,-1.9178,-1.937,-1.937,-1.9199,-1.8911,-1.8651,0.0,0.0,0.0,0.0,0.0,0.0,0.0,0.0,0.0,0.0,0.0,0.0,0.0,0.0,0.0,0.0,0.0,0.0,0.0,0.0,0.0,0.0,0.0,0.0,0.0,0.0,0.0,0.0,-1.6009,-1.617,-1.6104,0.0,0.0,0.0,0.0,0.0,0.0,0.0,0.0,0.0,0.0,-1.8273,-1.8878,-1.9483,0.0,0.0,-2.142,-2.1979,-2.2429,-2.2691,-2.291,-2.3154,-2.2436,0.0,0.0,0.0,0.0,0.0,0.0,0.0,0.0,0.0,0.0,0.0,0.0,0.0,0.0,0.0,0.0,0.0,0.0,0.0,0.0,0.0,0.0,0.0,0.0,0.0,0.0,0.0,0.0,0.0,0.0,0.0,0.0,0.0,0.0,0.0,0.0,0.0,0.0,0.0,0.0,0.0,0.0,0.0,0.0,0.0,0.0,0.0,0.0,0.0,0.0,0.0,0.0,-1.7675,-1.8477,-1.8577,-1.8865,-1.9352,-1.9424,-1.9424,-1.9417,-1.9085,-1.8885,0.0,0.0,0.0,0.0,0.0,0.0,0.0,0.0,0.0,0.0,0.0,0.0,0.0,0.0,0.0,0.0,0.0,0.0,0.0,0.0,0.0,0.0,0.0,0.0,0.0,0.0,0.0,0.0,-1.6477,-1.6491,-1.6096,0.0,0.0,0.0,0.0,0.0,0.0,0.0,0.0,0.0,0.0,-1.885,-1.9292,-2.0087,-2.0841,-2.143,-2.2123,-2.2828,-2.3429,-2.3657,-2.3836,-2.4077,0.0,0.0,0.0,0.0,0.0,0.0,0.0,0.0,0.0,0.0,0.0,0.0,0.0,0.0,0.0,0.0,0.0,0.0,0.0,0.0,0.0,0.0,0.0,0.0,0.0,0.0,0.0,0.0,0.0,0.0,-0.8792,0.0,0.0,0.0,0.0,0.0,0.0,0.0,0.0,0.0,0.0,0.0,0.0,0.0,0.0,0.0,0.0,0.0,0.0,0.0,0.0,0.0,0.0,-1.7876,-1.8484,-1.8758,-1.9058,-1.9417,-1.9424,-1.9424,-1.9417,-1.9085,-1.8798,-1.8517,0.0,0.0,0.0,0.0,0.0,0.0,0.0,0.0,0.0,0.0,0.0,0.0,0.0,0.0,0.0,0.0,0.0,0.0,0.0,0.0,0.0,0.0,0.0,0.0,0.0,0.0,-1.6822,-1.7121,-1.7047,0.0,0.0,0.0,0.0,0.0,0.0,0.0,0.0,0.0,0.0,-1.8994,-1.9889,-1.9987,-2.1176,-2.2055,-2.208,-2.2979,-2.3786,-2.4035,-2.4203,-2.4383,0.0,0.0,0.0,0.0,0.0,0.0,0.0,0.0,0.0,0.0,0.0,0.0,0.0,0.0,0.0,0.0,0.0,0.0,0.0,0.0,0.0,0.0,0.0,0.0,0.0,0.0,0.0,-0.9401,-0.9445,0.0,0.0,0.0,0.0,0.0,0.0,0.0,0.0,0.0,0.0,0.0,-1.0268,-1.0685,0.0,0.0,0.0,0.0,0.0,0.0,0.0,0.0,0.0,0.0,0.0,0.0,-1.809,-1.8484,-1.8778,-1.9065,-1.9417,-1.9424,-1.9424,-1.9424,-1.9272,-1.8991,-1.8504,0.0,0.0,0.0,0.0,0.0,0.0,0.0,0.0,0.0,0.0,0.0,0.0,0.0,0.0,0.0,0.0,0.0,0.0,0.0,0.0,0.0,0.0,0.0,0.0,0.0,-1.7018,0.0,0.0,0.0,0.0,0.0,0.0,0.0,0.0,0.0,0.0,0.0,-1.8265,-1.8793,-1.9821,-2.0646,-2.1007,-2.1787,-2.2476,0.0,0.0,0.0,0.0,0.0,0.0,0.0,0.0,0.0,0.0,0.0,0.0,0.0,0.0,-2.1536,-2.1281,-2.1362,-2.1444,-2.1448,0.0,0.0,0.0,0.0,0.0,0.0,0.0,0.0,0.0,0.0,0.0,0.0,0.0,0.0,0.0,0.0,-0.9843,0.0,0.0,0.0,0.0,0.0,0.0,0.0,0.0,-1.0627,-1.0653,-1.0708,-1.1202,-1.1481,0.0,-1.2564,-1.3115,0.0,0.0,0.0,0.0,0.0,0.0,0.0,0.0,-1.8343,-1.8637,-1.8931,-1.9172,-1.9417,-1.9424,-1.9424,-1.9424,-1.9172,-1.8885,-1.8504,-1.7909,-1.7455,0.0,0.0,0.0,0.0,0.0,0.0,0.0,0.0,0.0,0.0,0.0,0.0,0.0,0.0,0.0,0.0,0.0,0.0,0.0,0.0,0.0,0.0,0.0,-1.7413,0.0,0.0,0.0,0.0,0.0,0.0,0.0,0.0,0.0,-1.7553,-1.8365,-1.9216,-1.9926,-2.0769,-2.1519,-2.1844,0.0,0.0,0.0,0.0,0.0,0.0,0.0,-2.5489,-2.5693,-2.5361,-2.5067,-2.492,-2.4141,-2.3452,-2.3223,0.0,0.0,-2.2234,-2.2217,-2.2321,-2.232,-2.2327,-2.2373,-2.2519,-2.2549,-2.2598,0.0,0.0,0.0,0.0,0.0,0.0,0.0,0.0,-1.0257,-1.0298,0.0,-1.0278,0.0,0.0,0.0,0.0,0.0,0.0,0.0,0.0,-1.1143,-1.1224,-1.1216,-1.1557,-1.1848,-1.2144,-1.2817,-1.3611,-1.4472,-1.4431,0.0,0.0,0.0,0.0,0.0,0.0,-1.8644,-1.8918,-1.9205,-1.9424,-1.9424,-1.9424,-1.9424,-1.941,-1.8804,-1.8504,-1.8477,-1.7903,-1.7455,-1.7219,-1.6656,0.0,0.0,0.0,0.0,0.0,0.0,0.0,0.0,0.0,0.0,0.0,0.0,0.0,0.0,0.0,0.0,0.0,0.0,0.0,0.0,-1.7157,0.0,0.0,0.0,0.0,0.0,0.0,0.0,0.0,0.0,0.0,-1.8396,-1.9224,-2.0189,-2.1114,0.0,0.0,0.0,0.0,-2.3795,-2.3786,-2.4381,-2.4981,-2.5235,-2.5538,-2.5684,-2.5684,0.0,0.0,-2.4551,-2.4453,-2.4378,-2.4424,-2.4365,-2.4026,-2.2812,-2.2906,-2.313,-2.3159,-2.3149,-2.3276,-2.3691,-2.3721,-2.3848,-1.1191,0.0,0.0,0.0,0.0,-1.0915,-1.0919,-1.0915,-1.0915,-1.0944,-1.0992,-1.0944,0.0,0.0,0.0,0.0,0.0,0.0,-1.1277,-1.1163,-1.1334,-1.135,-1.1224,-1.1742,-1.2025,-1.2144,-1.3241,-1.4096,-1.4756,-1.516,-1.5727,-1.6332,0.0,0.0,0.0,0.0,-1.8838,-1.8938,-1.9219,-1.9424,-1.9424,-1.9424,-1.9424,-1.9424,-1.8798,-1.8497,-1.849,-1.7903,-1.7549,-1.7507,-1.6894,0.0,0.0,0.0,0.0,0.0,0.0,0.0,0.0,0.0,0.0,0.0,0.0,0.0,0.0,0.0,0.0,0.0,0.0,0.0,-1.7801,-1.7552,-1.7523,0.0,0.0,0.0,0.0,0.0,0.0,0.0,0.0,0.0,-2.0281,-2.0938,-2.1519,0.0,0.0,-2.3403,-2.361,-2.4035,-2.4341,-2.4538,0.0,0.0,0.0,-2.5538,-2.5684,-2.5684,-2.5577,-2.5498,-2.5333,-2.5098,-2.4883,-2.4873,-2.4629,-2.4251,-2.3945,-2.3949,-2.402,-2.4009,-2.4033,-2.4082,-2.4209,-2.4238,-2.4277,-1.1545,-1.1431,-1.1285,-1.122,-1.122,-1.122,-1.122,-1.122,-1.122,-1.1261,-1.1325,-1.1252,-1.1261,-1.133,-1.133,0.0,0.0,0.0,-1.1549,-1.1447,-1.1557,-1.1604,-1.1615,-1.208,-1.2426,-1.2606,-1.3664,-1.454,-1.5165,-1.5793,-1.6482,-1.7218,0.0,0.0,-1.8196,-1.8662,-1.8985,-1.9105,-1.9272,-1.9424,-1.9424,-1.9424,-1.9424,-1.941,-1.8798,-1.8497,-1.8484,-1.7909,-1.7589,-1.7582,-1.7134,-1.6797,0.0,0.0,0.0,0.0,0.0,0.0,0.0,0.0,0.0,0.0,0.0,-1.5155,-1.5767,0.0,0.0,0.0,-1.685,-1.7333,-1.805,-1.764,0.0,0.0,0.0,0.0,0.0,0.0,0.0,-1.8502,-1.938,-2.0395,-2.1561,-2.2192,-2.2629,-2.2934,-2.3583,-2.4075,-2.4233,0.0,-2.4735,-2.5039,-2.5186,-2.5342,-2.544,-2.5596,-2.5684,-2.5684,-2.5684,-2.5684,-2.5674,-2.5508,-2.5342,-2.5303,-2.5107,-2.4933,-2.4937,-2.4944,-2.4779,-2.4447,-2.4394,-2.4473,-2.4639,-2.4678,-2.4717,-1.1837,-1.1808,-1.1407,-1.1269,-1.1265,-1.1265,-1.1269,-1.1265,-1.1269,-1.1362,-1.1504,-1.1342,-1.1362,-1.152,-1.152,0.0,-1.1529,-1.1699,-1.1833,-1.1837,-1.1837,-1.1949,-1.2238,-1.2539,-1.2904,-1.3264,-1.4167,-1.4948,-1.565,-1.6177,-1.7015,-1.7954,-1.7749,-1.7948,-1.8407,-1.8781,-1.9092,-1.9359,-1.9424,-1.9424,-1.9424,-1.9424,-1.9424,-1.9417,-1.8798,-1.8497,-1.8477,-1.7903,-1.7589,-1.7575,-1.736,-1.7079,-1.674,0.0,0.0,0.0,0.0,0.0,0.0,0.0,0.0,0.0,0.0,0.0,0.0,0.0,0.0,0.0,-1.7157,0.0,-1.7786,-1.7523,0.0,0.0,0.0,-1.7323,-1.7323,-1.7893,-1.8509,-1.9052,0.0,0.0,-2.2383,0.0,-2.3506,-2.3805,-2.4183,-2.448,-2.4538,-2.4726,-2.5039,-2.5294,-2.5333,-2.5391,-2.5635,-2.5693,-2.5684,-2.5684,-2.5684,-2.5684,-2.5684,-2.5684,-2.5674,-2.5654,-2.5674,-2.5664,-2.5674,-2.5625,-2.546,-2.4687,-2.452,-2.4668,-2.5029,-2.5127,-2.5234,-1.1837,-1.1768,-1.1683,-1.1642,-1.1642,-1.1646,-1.1646,-1.1646,-1.1642,-1.1671,-1.1711,-1.1663,-1.1671,-1.1711,-1.1711,-1.1711,-1.1715,-1.176,-1.1837,-1.1837,-1.1837,-1.1949,-1.2238,-1.2539,-1.3024,-1.3569,-1.4291,-1.5061,-1.5946,-1.636,-1.6891,-1.7596,-1.7998,-1.8372,-1.877,-1.9137,-1.9299,-1.9424,-1.9424,-1.9424,-1.9424,-1.9424,-1.9424,-1.9424,-1.8798,-1.8497,-1.8484,-1.7909,-1.7589,-1.7575,-1.736,-1.7166,-1.7092,-1.6486,0.0,0.0,0.0,0.0,0.0,0.0,0.0,0.0,0.0,-1.6624,-1.6771,0.0,-1.7289,0.0,-1.7289,-1.7417,-1.7779,-1.7523,0.0,0.0,-1.7699,-1.7699,-1.7706,-1.8379,-1.906,-1.9445,-2.0436,-2.1462,-2.2383,-2.3038,-2.3596,-2.4053,-2.435,-2.4587,-2.4784,-2.503,-2.5284,-2.5538,-2.5577,-2.5635,-2.5684,-2.5684,-2.5684,-2.5684,-2.5684,-2.5684,-2.5684,-2.5684,-2.5684,-2.5684,-2.5684,-2.5684,-2.5684,-2.5684,-2.5645,-2.544,-2.5411,-2.5449,-2.5557,-2.5566,-2.5605,-1.1845,-1.1837,-1.1837,-1.1837,-1.1837,-1.1837,-1.1837,-1.1837,-1.1837,-1.1837,-1.1837,-1.1837,-1.1837,-1.1837,-1.1837,-1.1837,-1.1837,-1.1837,-1.1837,-1.1837,-1.1837,-1.201,-1.2414,-1.2599,-1.3144,-1.3933,-1.4411,-1.5121,-1.6059,-1.636,-1.6832,-1.7485,-1.8123,-1.848,-1.87,-1.9191,-1.9424,-1.9424,-1.9424,-1.9424,-1.9424,-1.9424,-1.9424,-1.941,-1.8798,-1.8497,-1.8484,-1.7903,-1.7589,-1.7582,-1.7481,-1.734,-1.7199,-1.6891,-1.6533,0.0,0.0,0.0,0.0,0.0,0.0,0.0,0.0,0.0,0.0,0.0,-1.7604,-1.775,-1.7633,-1.7677,-1.7999,-1.7874,-1.783,-1.8013,-1.8035,-1.8028,-1.8028,-1.8772,-1.9399,-1.959,-2.0678,-2.1695,-2.24,-2.3038,-2.3605,-2.4093,-2.4301,-2.4489,-2.4833,-2.5128,-2.5391,-2.5635,-2.5684,-2.5684,-2.5684,-2.5684,-2.5684,-2.5684,-2.5684,-2.5684,-2.5684,-2.5684,-2.5684,-2.5684,-2.5684,-2.5684,-2.5684,-2.5684,-2.5635,-2.5488,-2.5439,-2.5518,-2.5645,-2.5684,-2.5693,-1.1963,-1.1809,-1.1809,-1.1797,-1.1837,-1.1837,-1.1837,-1.1837,-1.1837,-1.1837,-1.1837,-1.1837,-1.1837,-1.1837,-1.1837,-1.1837,-1.1837,-1.1837,-1.1837,-1.1837,-1.1837,-1.2134,-1.2719,-1.2715,-1.3264,-1.4232,-1.4476,-1.5121,-1.6118,-1.636,-1.6832,-1.7479,-1.8123,-1.8421,-1.8421,-1.9075,-1.9424,-1.9424,-1.9424,-1.9424,-1.9424,-1.9424,-1.9352,-1.9292,-1.8778,-1.847,-1.8417,-1.7889,-1.7589,-1.7589,-1.7589,-1.7468,-1.7273,-1.7226,-1.7085,0.0,-1.6493,0.0,0.0,0.0,0.0,0.0,0.0,0.0,0.0,-1.7541,-1.7896,-1.8211,-1.7984,-1.7947,-1.8277,-1.8299,-1.8299,-1.8306,-1.8343,-1.8364,-1.8379,-1.911,-1.9674,-1.9666,-2.0886,-2.192,-2.2375,-2.2987,-2.3596,-2.4053,-2.4202,-2.4399,-2.4784,-2.5088,-2.5342,-2.5645,-2.5684,-2.5684,-2.5684,-2.5684,-2.5684,-2.5684,-2.5684,-2.5684,-2.5684,-2.5684,-2.5684,-2.5684,-2.5684,-2.5684,-2.5684,-2.5635,-2.5508,-2.5176,-2.5049,-2.5107,-2.541,-2.544,-2.5487,-1.215,-1.1983,-1.1983,-1.1902,-1.1837,-1.1837,-1.1837,-1.1837,-1.1837,-1.1837,-1.1837,-1.1837,-1.1837,-1.1837,-1.1837,-1.1837,-1.1837,-1.1837,-1.1837,-1.1837,-1.1837,-1.213,-1.2659,-1.2715,-1.3324,-1.4476,-1.4595,-1.524,-1.6419,-1.6478,-1.6832,-1.7485,-1.8071,-1.8421,-1.8415,0.0,0.0,0.0,-1.9424,-1.9424,-1.9424,-1.9424,-1.9252,-1.9011,-1.8671,0.0,-1.8075,-1.7782,-1.7589,-1.7589,-1.7589,0.0,0.0,0.0,0.0,0.0,0.0,0.0,0.0,0.0,0.0,0.0,-1.725,-1.726,-1.7326,-1.7337,-1.7552,-1.7867,-1.7804,-1.7955,-1.8269,-1.8299,-1.8299,-1.8313,-1.854,-1.8701,-1.8759,-1.949,-1.9994,-2.0046,-2.1014,-2.1827,-2.2182,-2.2887,-2.3497,-2.3854,-2.4053,-2.4291,-2.4538,-2.4833,-2.5137,-2.5586,-2.5684,-2.5684,-2.5684,-2.5684,-2.5684,-2.5684,-2.5684,-2.5684,-2.5684,-2.5684,-2.5684,-2.5684,-2.5684,-2.5674,-2.5664,-2.5459,-2.5176,-2.5125,-2.4775,-2.456,-2.4648,-2.4621,-2.4685,-1.2328,0.0,-1.2065,-1.1979,0.0,-1.1809,-1.1837,-1.1837,-1.1837,-1.1837,-1.1837,-1.1837,-1.1837,-1.1837,-1.1837,-1.1837,-1.1837,-1.1837,-1.1837,-1.1837,-1.1837,-1.213,-1.2715,-1.2715,-1.3384,-1.4595,-1.459,-1.524,-1.6484,-1.6537,-1.6832,-1.7485,-1.8071,-1.8421,-1.8421,-1.9075,-1.9424,-1.9424,-1.9424,-1.9424,-1.9424,-1.9424,-1.9225,-1.8931,0.0,0.0,0.0,0.0,0.0,0.0,0.0,0.0,0.0,0.0,0.0,-1.7414,-1.7221,-1.7183,-1.7296,-1.7389,-1.7534,-1.7639,-1.7717,-1.7735,-1.7534,-1.7567,-1.7706,-1.8021,-1.8196,-1.8364,-1.8525,-1.8686,-1.8782,-1.8796,-1.8928,-1.903,-1.9089,-1.9671,-2.0086,-2.0181,-2.1054,-2.1768,-2.2072,-2.2846,-2.3447,-2.3755,-2.4053,-2.4242,-2.448,-2.4735,-2.5079,-2.5596,-2.5684,-2.5684,-2.5684,-2.5684,-2.5684,-2.5684,-2.5684,-2.5684,-2.5684,-2.5684,-2.5684,-2.5664,-2.5566,-2.541,-2.5391,-2.5042,-2.4683,-2.4475,-2.4261,-2.4036,-2.3851,-2.4066,-2.4438,-1.2511,-1.2341,-1.2186,-1.2085,-1.202,-1.1882,-1.1805,-1.1837,0.0,0.0,0.0,-1.1837,-1.1837,-1.1837,-1.1837,-1.1837,-1.1837,-1.1837,-1.1837,-1.1837,-1.1837,-1.213,-1.2659,-1.2715,-1.3384,-1.459,-1.459,-1.524,-1.6478,-1.6537,-1.6832,-1.7479,-1.8129,-1.8473,-1.8596,-1.9127,-1.9424,-1.9424,-1.9424,-1.9424,-1.9424,-1.9424,-1.9205,-1.8858,-1.8617,-1.8323,-1.7922,-1.7716,-1.7589,-1.7589,-1.7589,-1.7589,-1.7589,-1.7589,-1.7589,-1.7589,-1.7589,-1.7586,-1.7558,-1.7798,-1.7993,-1.7988,-1.8158,-1.8189,-1.7918,-1.7904,-1.8035,-1.8357,-1.8635,-1.8803,-1.892,-1.9111,-1.9272,-1.9272,-1.9272,-1.9272,-1.9324,-1.9724,-2.0034,-2.0181,-2.096,-2.1674,-2.1971,-2.2686,-2.3406,-2.3696,-2.3954,-2.4242,-2.4489,-2.4784,-2.5128,-2.5586,-2.5684,-2.5684,-2.5684,-2.5684,-2.5684,-2.5684,-2.5684,-2.5684,-2.5684,-2.5684,-2.5654,-2.5576,-2.5303,-2.5135,-2.4971,-2.4615,-2.4212,-2.3851,-2.3754,-2.3547,-2.3286,-2.3647,-2.4169,-1.269,-1.2523,-1.2499,-1.2312,-1.1966,-1.2004,-1.191,-1.1837,-1.1837,-1.1837,-1.1837,-1.1837,-1.1837,-1.1837,-1.1837,-1.1837,-1.1837,-1.1837,-1.1837,0.0,-1.1837,-1.213,-1.2659,-1.2715,-1.338,-1.453,-1.459,-1.5245,-1.636,-1.6537,-1.6832,-1.7537,-1.8129,-1.8655,-1.9243,-1.9366,-1.9424,-1.9424,-1.9424,-1.9424,-1.9424,-1.9424,-1.9105,-1.8584,-1.8517,-1.8223,-1.7675,-1.7609,-1.7589,-1.7589,-1.7589,-1.7589,-1.7589,-1.7589,-1.7589,-1.7589,-1.7589,-1.7562,-1.7568,-1.7857,-1.8087,-1.8243,-1.8249,-1.8277,-1.824,-1.8233,-1.8364,-1.8686,-1.8774,-1.8906,-1.9162,-1.9242,-1.9272,-1.9272,-1.9272,-1.9272,-1.9272,-1.9583,-1.9879,-2.0078,-2.0601,-2.1216,-2.1725,-2.2274,-2.2887,-2.3347,-2.3705,-2.3994,-2.4489,-2.4932,-2.5333,-2.5635,-2.5684,-2.5684,-2.5684,-2.5684,-2.5684,-2.5684,-2.5684,-2.5684,-2.5684,-2.5645,-2.5528,-2.5234,-2.5116,-2.4883,-2.459,-2.4185,-2.3877,-2.375,-2.3491,-2.3218,-2.3101,-2.3266,-2.3482,-1.2787,-1.2702,-1.2605,-1.2418,-1.2166,-1.1975,-1.1849,-1.1837,-1.1837,-1.1837,-1.1837,-1.1837,-1.1837,-1.1837,-1.1837,-1.1837,-1.1837,-1.1837,-1.1837,-1.1837,-1.1837,-1.213,-1.2659,-1.2715,-1.3384,-1.453,-1.459,-1.5245,-1.6419,-1.6537,-1.6832,-1.7479,-1.8129,-1.8655,-1.912,-1.9307,-1.9424,-1.9424,-1.9424,-1.9424,-1.9424,-1.9424,-1.9142,-1.851,-1.8497,-1.8203,-1.7609,-1.7589,-1.7589,-1.7589,-1.7589,-1.7589,-1.7589,-1.7589,-1.7589,-1.7589,-1.7589,-1.7589,-1.7589,-1.7977,-1.8318,-1.8593,-1.8782,-1.8833,-1.8833,-1.8664,-1.8701,-1.9016,-1.9052,-1.9111,-1.9257,-1.9272,-1.9272,-1.9272,-1.9272,-1.9272,-1.9324,-1.9524,-1.9783,-2.0078,-2.055,-2.1019,-2.142,-2.208,-2.2577,-2.2937,-2.3397,-2.3945,-2.443,-2.4677,-2.5039,-2.5391,-2.5586,-2.5684,-2.5684,-2.5684,-2.5684,-2.5684,-2.5684,-2.5684,-2.5664,-2.5576,-2.5312,-2.5125,-2.4773,-2.4336,-2.4092,-2.3725,-2.3491,-2.3403,-2.331,-2.311,-2.3101,-2.3188,-2.3406,-1.277,-1.2754,-1.2686,-1.2503,-1.2284,-1.1967,-1.1813,-1.1837,-1.1837,-1.1837,-1.1837,-1.1837,-1.1837,-1.1837,-1.1837,-1.1837,-1.1837,-1.1837,-1.1837,-1.1837,-1.1837,-1.207,-1.2539,-1.2659,-1.3324,-1.4291,-1.453,-1.5245,-1.6301,-1.6478,-1.6891,-1.7602,-1.8129,-1.859,-1.8933,-1.9243,-1.9424,-1.9424,-1.9424,-1.9424,-1.9424,-1.9424,-1.9085,-1.8544,-1.8497,-1.8203,-1.7635,-1.7589,-1.7589,-1.7589,-1.7589,-1.7589,-1.7589,-1.7589,-1.7589,-1.7589,-1.7589,-1.7635,-1.7687,-1.8055,-1.8482,-1.8869,-1.9078,-1.9227,-1.925,-1.9052,-1.9001,-1.9228,-1.9257,-1.9272,-1.9272,-1.9272,-1.9272,-1.9272,-1.9272,-1.9272,-1.9324,-1.9472,-1.9732,-1.9983,-2.0447,-2.0806,-2.1216,-2.1776,-2.2325,-2.2677,-2.3288,-2.3945,-2.4341,-2.4489,-2.4686,-2.503,-2.5382,-2.5635,-2.5684,-2.5684,-2.5684,-2.5684,-2.5684,-2.5674,-2.5566,-2.5264,-2.4998,-2.4812,-2.4248,-2.3838,-2.3662,-2.3354,-2.3159,-2.314,-2.311,-2.3101,-2.3101,-2.3319,-2.3547,-1.277,-1.277,-1.2812,-1.2613,-1.2296,-1.2085,-1.1914,-1.1784,-1.1837,-1.1837,-1.1837,-1.1837,-1.1837,-1.1837,-1.1837,-1.1837,-1.1837,-1.1837,-1.1837,-1.1837,-1.1837,-1.1949,-1.2294,-1.2539,-1.308,-1.3808,-1.4351,-1.5126,-1.6124,-1.6419,-1.7009,-1.7849,-1.8252,-1.8532,-1.8874,-1.9243,-1.9424,-1.9424,-1.9424,-1.9424,-1.9424,-1.9424,-1.9149,-1.8517,-1.8497,-1.8203,-1.7615,-1.7589,-1.7589,-1.7589,-1.7589,-1.7589,-1.7589,-1.7589,-1.7589,-1.7589,-1.7589,-1.7687,-1.7905,-1.8016,-1.8279,-1.8824,-1.8928,-1.9026,-1.9272,-1.9242,-1.9235,-1.9272,-1.9272,-1.9272,-1.9272,-1.9272,-1.9272,-1.9272,-1.9272,-1.9272,-1.9272,-1.9324,-1.9428,-1.968,-2.0034,-2.0336,-2.0865,-2.1267,-2.1818,-2.2677,-2.3338,-2.3854,-2.4152,-2.439,-2.4489,-2.4637,-2.499,-2.5391,-2.5586,-2.5684,-2.5684,-2.5684,-2.5674,-2.5557,-2.5283,-2.5116,-2.4863,-2.4238,-2.3887,-2.3623,-2.3359,-2.311,-2.311,-2.3101,-2.3101,-2.3101,-2.3135,-2.3276,-2.3537,-1.277,-1.277,-1.277,-1.2633,-1.2304,-1.2105,-1.1935,-1.1841,-1.1837,-1.1837,-1.1837,-1.1837,-1.1837,-1.1837,-1.1837,-1.1837,-1.1837,-1.1837,-1.1837,-1.1837,-1.1837,-1.1953,-1.2238,-1.2539,-1.3024,-1.3688,-1.4291,-1.5007,-1.5769,-1.6484,-1.7079,-1.7667,-1.8018,-1.8311,-1.859,-1.8946,-1.9178,-1.9424,-1.9424,-1.9424,-1.9424,-1.9424,-1.9085,-1.8564,-1.8497,-1.8203,-1.7662,-1.7589,-1.7589,-1.7589,-1.7589,-1.7589,-1.7589,-1.7589,-1.7589,-1.7589,-1.7589,-1.7635,-1.774,-1.7911,-1.8122,-1.8391,-1.8712,-1.8974,-1.9071,-1.9227,-1.9272,-1.9272,-1.9272,-1.9272,-1.9272,-1.9272,-1.9272,-1.9272,-1.9272,-1.9272,-1.9272,-1.9272,-1.9376,-1.968,-1.9783,-2.0094,-2.0617,-2.1173,-2.1818,-2.2577,-2.3188,-2.3646,-2.3945,-2.4192,-2.4341,-2.448,-2.4677,-2.4981,-2.5342,-2.5596,-2.5684,-2.5645,-2.5508,-2.5225,-2.5116,-2.4607,-2.416,-2.3818,-2.3603,-2.3398,-2.3159,-2.3101,-2.3101,-2.3101,-2.3101,-2.3101,-2.3101,-2.3188,-2.3406,-1.277,-1.277,-1.277,-1.2568,-1.23,-1.2162,-1.1979,-1.1788,-1.1837,-1.1837,-1.1837,-1.1837,-1.1837,-1.1837,-1.1837,-1.1837,-1.1837,-1.1837,-1.1837,-1.1837,-1.1837,-1.1893,-1.2122,-1.2419,-1.284,-1.3444,-1.4052,-1.4828,-1.5709,-1.6549,-1.7197,-1.7485,-1.7849,-1.8135,-1.8415,-1.8706,-1.9062,-1.9366,-1.9424,-1.9424,-1.9424,-1.9424,-1.9085,-1.8557,-1.8497,-1.821,-1.7622,-1.7589,-1.7589,-1.7589,-1.7589,-1.7589,-1.7589,-1.7589,-1.7589,-1.7589,-1.7589,-1.7589,-1.7589,-1.7799,-1.7911,-1.8023,-1.8443,-1.8712,-1.8921,-1.9078,-1.9227,-1.9272,-1.9272,-1.9272,-1.9272,-1.9272,-1.9272,-1.9272,-1.9272,-1.9272,-1.9272,-1.9272,-1.9376,-1.9532,-1.968,-1.9887,-2.047,-2.1078,-2.1674,-2.2283,-2.2837,-2.3347,-2.3705,-2.4003,-2.4143,-2.439,-2.444,-2.4735,-2.5186,-2.544,-2.5567,-2.5518,-2.5254,-2.5067,-2.4861,-2.4111,-2.3691,-2.3555,-2.3247,-2.312,-2.311,-2.3101,-2.3101,-2.3101,-2.3101,-2.3101,-2.3101,-2.3101,-2.3276,-1.277,-1.277,-1.277,-1.2568,-1.2308,-1.2292,-1.2089,-1.1837,-1.1837,-1.1837,-1.1837,-1.1837,-1.1837,-1.1837,-1.1837,-1.1837,-1.1837,-1.1837,-1.1837,-1.1837,-1.1837,-1.1837,-1.1837,-1.2126,-1.2419,-1.2844,-1.3504,-1.458,-1.6,-1.6667,-1.7138,-1.7479,-1.7784,-1.8142,-1.8363,-1.8706,-1.9062,-1.9307,-1.9366,-1.9424,-1.9424,-1.9424,-1.9085,-1.8557,-1.8497,-1.821,-1.7669,-1.7589,-1.7589,-1.7589,-1.7589,-1.7589,-1.7589,-1.7589,-1.7589,-1.7589,-1.7589,-1.7589,-1.7589,-1.7635,-1.7747,-1.7964,-1.8069,-1.8286,-1.8817,-1.8921,-1.9071,-1.9272,-1.9272,-1.9272,-1.9272,-1.9272,-1.9272,-1.9272,-1.9272,-1.9272,-1.9272,-1.9272,-1.9272,-1.9383,-1.9583,-1.9887,-2.0411,-2.0771,-2.1275,-2.1878,-2.2375,-2.2837,-2.3497,-2.3755,-2.3954,-2.4143,-2.439,-2.4677,-2.5128,-2.5237,-2.5228,-2.5158,-2.5029,-2.4766,-2.4228,-2.375,-2.3525,-2.335,-2.3179,-2.3101,-2.3101,-2.3101,-2.3101,-2.3101,-2.3101,-2.3101,-2.3101,-2.3101,-2.3276,-1.277,-1.277,-1.277,-1.2633,-1.232,-1.2304,-1.2101,-1.1845,-1.1837,-1.1837,-1.1837,-1.1837,-1.1837,-1.1837,-1.1837,-1.1837,-1.1837,-1.1837,-1.1837,-1.1837,-1.1837,-1.1837,-1.1837,-1.2062,-1.2359,-1.2779,-1.3384,-1.4401,-1.5709,-1.636,-1.6838,-1.7197,-1.755,-1.7843,-1.8142,-1.8421,-1.8771,-1.9062,-1.9301,-1.9424,-1.9424,-1.9424,-1.9085,-1.8537,-1.8497,-1.8203,-1.7609,-1.7589,-1.7589,-1.7589,-1.7589,-1.7589,-1.7589,-1.7589,-1.7589,-1.7589,-1.7589,-1.7589,-1.7589,-1.7589,-1.7641,-1.7747,-1.7911,-1.8122,-1.8541,-1.8757,-1.9026,-1.9227,-1.9272,-1.9272,-1.9272,-1.9272,-1.9272,-1.9272,-1.9272,-1.9272,-1.9272,-1.9272,-1.9272,-1.9324,-1.9532,-1.9783,-2.0042,-2.0506,-2.0968,-2.1326,-2.1979,-2.2577,-2.2929,-2.3397,-2.3795,-2.3945,-2.4143,-2.4298,-2.435,-2.4736,-2.4881,-2.4876,-2.4754,-2.4307,-2.3818,-2.3516,-2.3227,-2.3208,-2.311,-2.3101,-2.3101,-2.3101,-2.3101,-2.3101,-2.3101,-2.3101,-2.3101,-2.3101,-2.3232,-1.277,-1.277,-1.277,-1.2633,-1.232,-1.2304,-1.2105,-1.1853,-1.1837,-1.1837,-1.1837,-1.1837,-1.1837,-1.1837,-1.1837,-1.1837,-1.1837,-1.1837,-1.1837,-1.1837,-1.1837,-1.1837,-1.1837,-1.2005,-1.2238,-1.2599,-1.3324,-1.4286,-1.5418,-1.6059,-1.6602,-1.6967,-1.7367,-1.7667,-1.7966,-1.8252,-1.8532,-1.8881,-1.9243,-1.9424,-1.9424,-1.9424,-1.9085,-1.8591,-1.8497,-1.8203,-1.7615,-1.7589,-1.7589,-1.7589,-1.7589,-1.7589,-1.7589,-1.7589,-1.7589,-1.7589,-1.7589,-1.7589,-1.7589,-1.7589,-1.7589,-1.7589,-1.7747,-1.8016,-1.8272,-1.8541,-1.8862,-1.9123,-1.9279,-1.9272,-1.9272,-1.9272,-1.9272,-1.9272,-1.9272,-1.9272,-1.9272,-1.9272,-1.9272,-1.9324,-1.9428,-1.9576,-1.9732,-2.0248,-2.066,-2.0873,-2.1623,-2.2131,-2.2526,-2.2937,-2.3425,-2.3592,-2.3686,-2.3779,-2.3745,-2.389,-2.4115,-2.4127,-2.4336,-2.3916,-2.3594,-2.3257,-2.312,-2.3101,-2.3101,-2.3101,-2.3101,-2.3101,-2.3101,-2.3101,-2.3101,-2.3101,-2.3101,-2.3101,-2.3188,-1.277,-1.277,-1.277,-1.2633,-1.2328,-1.2304,-1.2105,-1.1809,-1.1837,-1.1837,-1.1837,-1.1837,-1.1837,-1.1837,-1.1837,-1.1837,-1.1837,-1.1837,-1.1837,-1.1837,-1.1837,-1.1837,-1.1837,-1.1833,-1.2005,-1.2359,-1.3264,-1.4162,-1.5116,-1.5769,-1.636,-1.6961,-1.7309,-1.7602,-1.7972,-1.8188,-1.8532,-1.8887,-1.9185,-1.9366,-1.9424,-1.9424,-1.9092,-1.8564,-1.8497,-1.8203,-1.7615,-1.7589,-1.7589,-1.7589,-1.7589,-1.7589,-1.7589,-1.7589,-1.7589,-1.7589,-1.7589,-1.7589,-1.7589,-1.7589,-1.7589,-1.7589,-1.7589,-1.7747,-1.8016,-1.8272,-1.8534,-1.8914,-1.9123,-1.9272,-1.9279,-1.9272,-1.9272,-1.9272,-1.9272,-1.9272,-1.9272,-1.9272,-1.9272,-1.9272,-1.9324,-1.9428,-1.968,-1.9931,-2.0292,-2.0712,-2.1173,-2.1591,-2.2156,-2.2491,-2.2687,-2.2966,-2.3181,-2.322,-2.3129,-2.3047,-2.3163,-2.3293,-2.3564,-2.3578,-2.3354,-2.311,-2.311,-2.3101,-2.3101,-2.3101,-2.3101,-2.3101,-2.3101,-2.3101,-2.3101,-2.3101,-2.3101,-2.3101,-2.3101,-1.277,-1.277,-1.277,-1.2633,-1.2324,-1.2304,-1.2101,-1.1792,-1.1837,-1.1837,-1.1837,-1.1837,-1.1837,-1.1837,-1.1837,-1.1837,-1.1837,-1.1837,-1.1837,-1.1837,-1.1837,-1.1837,-1.1837,-1.1837,-1.207,-1.2603,-1.3324,-1.4047,-1.4764,-1.5418,-1.607,-1.6602,-1.6961,-1.7315,-1.7661,-1.7966,-1.8259,-1.8538,-1.8881,-1.9178,-1.9366,-1.9424,-1.9085,-1.8564,-1.849,-1.821,-1.7635,-1.7589,-1.7589,-1.7589,-1.7589,-1.7589,-1.7589,-1.7589,-1.7589,-1.7589,-1.7589,-1.7589,-1.7589,-1.7589,-1.7589,-1.7589,-1.7589,-1.7747,-1.7964,-1.8062,-1.8384,-1.8764,-1.8974,-1.9078,-1.9227,-1.9272,-1.9272,-1.9272,-1.9272,-1.9272,-1.9272,-1.9272,-1.9272,-1.9272,-1.9272,-1.9324,-1.948,-1.968,-1.9975,-2.0261,-2.0731,-2.1202,-2.1537,-2.1919,-2.2209,-2.2442,-2.2545,-2.2639,-2.2547,-2.2575,-2.2726,-2.2865,-2.3067,-2.3378,-2.3208,-2.3101,-2.3101,-2.3101,-2.3101,-2.3101,-2.3101,-2.3101,-2.3101,-2.3101,-2.3101,-2.3101,-2.3101,-2.3101,-2.3101,-1.277,-1.2766,-1.2763,-1.2572,-1.2304,-1.2235,-1.2044,-1.1857,-1.1837,-1.1837,-1.1837,-1.1837,-1.1837,-1.1837,-1.1837,-1.1837,-1.1837,-1.1837,-1.1837,-1.1837,-1.1837,-1.1837,-1.1837,-1.1837,-1.213,-1.2664,-1.3144,-1.3748,-1.4471,-1.5121,-1.5709,-1.6301,-1.6779,-1.7197,-1.7485,-1.7849,-1.8083,-1.8311,-1.8648,-1.8997,-1.9158,-1.9201,-1.8978,-1.8551,-1.839,-1.8076,-1.7629,-1.7589,-1.7589,-1.7589,-1.7589,-1.7589,-1.7589,-1.7589,-1.7589,-1.7589,-1.7589,-1.7589,-1.7589,-1.7589,-1.7589,-1.7589,-1.7589,-1.7641,-1.7859,-1.7911,-1.8233,-1.86,-1.8817,-1.9026,-1.9227,-1.9272,-1.9272,-1.9272,-1.9272,-1.9272,-1.9272,-1.9272,-1.9272,-1.9272,-1.9272,-1.9272,-1.9324,-1.9532,-1.9664,-1.9846,-2.0209,-2.0556,-2.0776,-2.1195,-2.1454,-2.1773,-2.1981,-2.2001,-2.2017,-2.2107,-2.2268,-2.2478,-2.265,-2.2969,-2.3067,-2.3091,-2.3101,-2.3101,-2.3101,-2.3101,-2.3101,-2.3101,-2.3101,-2.3101,-2.3101,-2.3101,-2.3101,-2.3101,-2.3101,-1.277,-1.2816,-1.2645,-1.2487,-1.2312,-1.213,-1.1959,-1.1817,-1.1837,-1.1837,-1.1837,-1.1837,-1.1837,-1.1837,-1.1837,-1.1837,-1.1837,-1.1837,-1.1837,-1.1837,-1.1837,-1.1837,-1.1837,-1.1837,-1.207,-1.2539,-1.2719,-1.3269,-1.4172,-1.4764,-1.5407,-1.6065,-1.6661,-1.7138,-1.7426,-1.7784,-1.7966,-1.8083,-1.8538,-1.8816,-1.8887,-1.8849,-1.8715,-1.8457,-1.8203,-1.7923,-1.7635,-1.7589,-1.7589,-1.7589,-1.7589,-1.7589,-1.7589,-1.7589,-1.7589,-1.7589,-1.7589,-1.7589,-1.7589,-1.7589,-1.7589,-1.7589,-1.7589,-1.7589,-1.7694,-1.7852,-1.8069,-1.8377,-1.8646,-1.8966,-1.9175,-1.9272,-1.9272,-1.9272,-1.9272,-1.9272,-1.9272,-1.9272,-1.9272,-1.9272,-1.9272,-1.9257,-1.922,-1.9457,-1.9412,-1.9348,-1.966,-1.9855,-2.0053,-2.0385,-2.0685,-2.0981,-2.1313,-2.1559,-2.1626,-2.1825,-2.2039,-2.2279,-2.2441,-2.2706,-2.3003,-2.3047,-2.3101,-2.3101,-2.3101,-2.3101,-2.3101,-2.3101,-2.3101,-2.3101,-2.3101,-2.3101,-2.3091,-2.3091,-2.3071,-1.277,-1.275,-1.2641,-1.254,-1.245,-1.2166,-1.2008,-1.1947,-1.1825,-1.1837,-1.1837,-1.1837,-1.1837,-1.1837,-1.1837,-1.1837,-1.1837,-1.1837,-1.1837,-1.1837,-1.1837,-1.1837,-1.1837,-1.1837,-1.2014,-1.2359,-1.2599,-1.3084,-1.3868,-1.4466,-1.5067,-1.5709,-1.6301,-1.6785,-1.7132,-1.7491,-1.779,-1.7966,-1.8142,-1.8365,-1.8524,-1.854,-1.8434,-1.8149,-1.8029,-1.7883,-1.7615,-1.7589,-1.7589,-1.7589,-1.7589,-1.7589,-1.7589,-1.7589,-1.7589,-1.7589,-1.7589,-1.7589,-1.7589,-1.7589,-1.7589,-1.7589,-1.7589,-1.7589,-1.7589,-1.7687,-1.7852,-1.8062,-1.8384,-1.8617,-1.8952,-1.9146,-1.925,-1.9272,-1.9213,-1.9228,-1.925,-1.9272,-1.9272,-1.9272,-1.9242,-1.9133,-1.903,-1.9001,-1.8977,-1.891,-1.9094,-1.9347,-1.9462,-1.9709,-2.0038,-2.0432,-2.0765,-2.1085,-2.1338,-2.1544,-2.1803,-2.2115,-2.2309,-2.2574,-2.2828,-2.3003,-2.3047,-2.3101,-2.3101,-2.3101,-2.3101,-2.3101,-2.3101,-2.3101,-2.3101,-2.3091,-2.3091,-2.3081,-2.3042,-1.277,-1.2754,-1.2641,-1.2633,-1.258,-1.2182,-1.197,-1.1996,-1.1853,-1.1837,-1.1837,-1.1837,-1.1837,-1.1837,-1.1837,-1.1837,-1.1837,-1.1837,-1.1837,-1.1837,-1.1837,-1.1837,-1.1837,-1.1837,-1.1949,-1.2178,-1.2539,-1.296,-1.3509,-1.4112,-1.4769,-1.5353,-1.5887,-1.6425,-1.702,-1.7197,-1.7426,-1.7701,-1.7803,-1.7982,-1.8236,-1.8091,-1.8066,-1.7948,-1.7882,-1.7749,-1.7655,-1.7589,-1.7589,-1.7589,-1.7589,-1.7589,-1.7589,-1.7589,-1.7589,-1.7589,-1.7589,-1.7589,-1.7589,-1.7589,-1.7589,-1.7589,-1.7589,-1.7561,-1.7481,-1.7447,-1.7544,-1.7589,-1.7795,-1.8051,-1.8417,-1.8716,-1.8869,-1.8833,-1.8862,-1.8928,-1.9045,-1.906,-1.8994,-1.8921,-1.8855,-1.8811,-1.8599,-1.8584,-1.8515,-1.8393,-1.854,-1.8697,-1.8792,-1.9114,-1.9526,-1.9937,-2.0337,-2.0708,-2.1131,-2.1392,-2.1651,-2.1963,-2.2264,-2.2476,-2.2784,-2.3003,-2.3047,-2.3101,-2.3101,-2.3071,-2.3076,-2.3033,-2.3101,-2.3101,-2.3101,-2.3062,-2.3033,-2.2881,-2.2838,-1.277,-1.2754,-1.2641,-1.2633,-1.2511,-1.219,-1.197,-1.2,-1.1849,-1.1837,-1.1837,-1.1837,-1.1837,-1.1837,-1.1837,-1.1837,-1.1837,-1.1837,-1.1837,-1.1837,-1.1837,-1.1837,-1.1837,-1.1837,-1.1889,-1.2118,-1.2479,-1.2779,-1.3204,-1.3808,-1.4406,-1.4997,-1.5418,-1.6011,-1.6591,-1.6868,-1.7091,-1.7306,-1.7389,-1.7515,-1.7716,-1.7627,-1.7649,-1.7781,-1.7756,-1.7642,-1.7595,-1.7589,-1.7589,-1.7589,-1.7589,-1.7589,-1.7589,-1.7589,-1.7589,-1.7589,-1.7589,-1.7589,-1.7589,-1.7589,-1.7555,-1.7522,-1.7561,-1.746,-1.7233,-1.7152,-1.713,-1.7099,-1.7084,-1.7453,-1.791,-1.8201,-1.8386,-1.8416,-1.8364,-1.846,-1.8613,-1.8716,-1.8621,-1.8364,-1.8321,-1.8306,-1.8255,-1.8225,-1.813,-1.7927,-1.8059,-1.824,-1.8426,-1.8707,-1.9094,-1.9528,-1.9973,-2.0464,-2.0835,-2.1248,-2.1517,-2.183,-2.222,-2.252,-2.2828,-2.3003,-2.3047,-2.3101,-2.3101,-2.3047,-2.2944,-2.2949,-2.2998,-2.2822,-2.265,-2.2764,-2.2867,-2.2588,-2.2451,-1.277,-1.2754,-1.2641,-1.2633,-1.2507,-1.219,-1.197,-1.1954,-1.1849,-1.1837,-1.1837,-1.1837,-1.1837,-1.1837,-1.1837,-1.1837,-1.1837,-1.1837,-1.1837,-1.1837,-1.1837,-1.1837,-1.1837,-1.1837,-1.1833,-1.1949,-1.2178,-1.2475,-1.29,-1.3444,-1.3988,-1.4406,-1.51,-1.5715,-1.5919,-1.6384,-1.6703,-1.6771,-1.6855,-1.6968,-1.7085,-1.7148,-1.727,-1.7423,-1.7523,-1.7595,-1.7589,-1.7589,-1.7589,-1.7589,-1.7589,-1.7589,-1.7589,-1.7589,-1.7589,-1.7589,-1.7589,-1.7589,-1.7582,-1.7549,-1.7527,-1.732,-1.728,-1.7166,-1.684,-1.68,-1.6774,-1.6807,-1.6964,-1.7258,-1.7739,-1.8079,-1.8191,-1.8218,-1.8225,-1.8182,-1.8116,-1.8255,-1.8335,-1.8284,-1.8247,-1.8203,-1.7955,-1.7925,-1.7772,-1.7516,-1.7631,-1.7843,-1.8093,-1.8326,-1.8743,-1.9204,-1.9708,-2.0201,-2.0654,-2.1114,-2.1472,-2.1741,-2.2087,-2.2284,-2.2644,-2.2863,-2.2921,-2.2969,-2.3101,-2.2969,-2.2709,-2.2631,-2.2578,-2.2399,-2.2244,-2.2327,-2.2353,-2.2129,-2.2021,-1.277,-1.2758,-1.2735,-1.2641,-1.2527,-1.228,-1.2113,-1.2008,-1.1849,-1.1837,-1.1837,-1.1837,-1.1837,-1.1837,-1.1837,-1.1837,-1.1837,-1.1837,-1.1837,-1.1837,-1.1837,-1.1837,-1.1837,-1.1837,-1.1837,-1.1833,-1.2062,-1.2294,-1.2599,-1.3084,-1.3629,-1.3973,-1.4548,-1.5002,-1.5328,-1.5701,-1.6052,-1.6392,-1.6366,-1.6435,-1.6691,-1.6705,-1.6933,-1.7205,-1.743,-1.7589,-1.7589,-1.7589,-1.7589,-1.7589,-1.7589,-1.7589,-1.7589,-1.7589,-1.7589,-1.7589,-1.7589,-1.7548,-1.7481,-1.7361,-1.7241,-1.7018,-1.6934,-1.6824,-1.6593,-1.6506,-1.642,-1.6339,-1.6439,-1.669,-1.7231,-1.7514,-1.7715,-1.7804,-1.786,-1.7772,-1.7684,-1.7874,-1.7991,-1.7904,-1.7808,-1.7743,-1.764,-1.764,-1.7582,-1.7399,-1.7391,-1.7604,-1.7845,-1.8133,-1.8504,-1.8966,-1.9433,-1.9936,-2.0482,-2.0979,-2.1472,-2.1741,-2.2008,-2.2086,-2.2197,-2.2467,-2.265,-2.2755,-2.2812,-2.2578,-2.2366,-2.2256,-2.2168,-2.2092,-2.1985,-2.1946,-2.1826,-2.1728,-2.1641,-1.277,-1.2766,-1.2804,-1.269,-1.2511,-1.2328,-1.2142,-1.1971,-1.1841,-1.1837,-1.1837,-1.1837,-1.1837,-1.1837,-1.1837,-1.1837,-1.1837,-1.1837,-1.1837,-1.1837,-1.1837,-1.1837,-1.1837,-1.1837,-1.1837,-1.1837,-1.2005,-1.2118,-1.2359,-1.2711,-1.3177,-1.3558,-1.377,-1.4253,-1.4798,-1.4955,-1.5339,-1.5978,-1.5934,-1.6066,-1.6452,-1.6394,-1.6621,-1.7014,-1.7325,-1.7483,-1.7536,-1.7536,-1.7589,-1.7589,-1.7589,-1.7589,-1.7589,-1.7589,-1.7589,-1.7582,-1.7528,-1.744,-1.728,-1.7166,-1.7012,-1.6667,-1.664,-1.65,-1.6293,-1.6199,-1.6112,-1.5979,-1.6007,-1.6198,-1.6501,-1.6916,-1.7131,-1.7243,-1.7315,-1.7286,-1.733,-1.7582,-1.7589,-1.7472,-1.7447,-1.7479,-1.7435,-1.7366,-1.7315,-1.7286,-1.7286,-1.738,-1.7667,-1.7947,-1.8319,-1.8689,-1.9196,-1.9891,-2.0482,-2.0952,-2.141,-2.1604,-2.1889,-2.1848,-2.183,-2.1992,-2.2219,-2.2379,-2.2344,-2.2129,-2.1953,-2.1816,-2.1758,-2.1799,-2.1652,-2.1437,-2.1328,-2.1328,-2.126,-1.277,-1.2758,-1.2674,-1.2511,-1.2333,-1.2158,-1.1987,-1.1833,-1.1797,-1.1837,-1.1837,-1.1837,-1.1837,-1.1837,-1.1837,-1.1837,-1.1837,-1.1837,-1.1837,-1.1837,-1.1837,-1.1837,-1.1837,-1.1837,-1.1833,-1.1837,-1.1877,-1.1985,-1.2101,-1.2354,-1.2614,-1.2985,-1.3304,-1.3732,-1.4122,-1.4444,-1.4811,-1.5447,-1.5542,-1.5749,-1.5982,-1.626,-1.643,-1.6796,-1.7113,-1.7279,-1.7331,-1.7483,-1.7589,-1.7589,-1.7589,-1.7589,-1.7575,-1.7575,-1.7555,-1.7508,-1.7414,-1.7266,-1.7112,-1.6887,-1.6653,-1.6426,-1.6339,-1.6213,-1.6012,-1.5925,-1.5905,-1.5926,-1.5981,-1.617,-1.6265,-1.665,-1.6932,-1.7066,-1.72,-1.7286,-1.7301,-1.7344,-1.7388,-1.7301,-1.7286,-1.7286,-1.7286,-1.7286,-1.7286,-1.7286,-1.7286,-1.738,-1.7574,-1.7861,-1.8187,-1.855,-1.8966,-1.9745,-2.0518,-2.0943,-2.1409,-2.1485,-2.1614,-2.1543,-2.1575,-2.1587,-2.171,-2.1792,-2.1855,-2.1768,-2.1582,-2.1396,-2.124,-2.1202,-2.1026,-2.0879,-2.0898,-2.0967,-2.0879,-1.2779,-1.269,-1.2665,-1.241,-1.2174,-1.2073,-1.1935,-1.1788,-1.1837,-1.1837,-1.1837,-1.1837,-1.1837,-1.1837,-1.1837,-1.1837,-1.1837,-1.1837,-1.1837,-1.1837,-1.1837,-1.1837,-1.1772,-1.1833,-1.1707,-1.1658,-1.163,-1.169,-1.1865,-1.2039,-1.217,-1.2302,-1.2657,-1.2999,-1.3387,-1.3699,-1.4205,-1.4696,-1.5104,-1.5416,-1.5743,-1.6057,-1.6371,-1.6583,-1.6908,-1.7179,-1.7226,-1.743,-1.7589,-1.7589,-1.7589,-1.7589,-1.7542,-1.7494,-1.7407,-1.7373,-1.7259,-1.7032,-1.6811,-1.6533,-1.6353,-1.6099,-1.6052,-1.5992,-1.5879,-1.5838,-1.5825,-1.5832,-1.5886,-1.6076,-1.6218,-1.6461,-1.6697,-1.6979,-1.7113,-1.72,-1.7293,-1.7286,-1.7286,-1.7286,-1.7286,-1.7286,-1.7286,-1.7286,-1.7286,-1.7286,-1.7286,-1.7387,-1.7527,-1.7768,-1.8048,-1.8465,-1.8912,-1.9658,-2.0342,-2.0739,-2.1112,-2.1206,-2.1204,-2.1183,-2.1132,-2.1094,-2.1113,-2.1132,-2.1191,-2.1357,-2.1133,-2.0908,-2.0732,-2.0674,-2.0713,-2.0732,-2.0664,-2.0615,-2.0615,-1.2698,-1.2624,-1.2483,-1.2292,-1.2048,-1.1991,-1.1902,-1.1792,-1.1837,-1.1837,-1.1837,-1.1837,-1.1837,-1.1837,-1.1837,-1.1837,-1.1837,-1.1837,-1.1837,-1.1837,-1.1837,-1.1837,-1.1772,-1.1719,-1.1646,-1.1541,-1.1451,-1.1447,-1.1498,-1.1678,-1.1687,-1.1831,-1.1985,-1.2334,-1.2714,-1.3043,-1.3542,-1.4175,-1.46,-1.4987,-1.5529,-1.5957,-1.6217,-1.6271,-1.6755,-1.7014,-1.7067,-1.7325,-1.7536,-1.7562,-1.7522,-1.7482,-1.7442,-1.7266,-1.7092,-1.7038,-1.7025,-1.6744,-1.6489,-1.6199,-1.6092,-1.5905,-1.5845,-1.5832,-1.5832,-1.5825,-1.5825,-1.5825,-1.5825,-1.5879,-1.6076,-1.617,-1.6454,-1.6784,-1.6979,-1.7073,-1.7246,-1.7286,-1.7286,-1.7286,-1.7286,-1.7286,-1.7286,-1.7286,-1.7286,-1.7286,-1.7286,-1.7286,-1.7434,-1.7628,-1.7955,-1.8419,-1.8904,-1.9625,-2.0103,-2.0342,-2.0649,-2.0773,-2.0704,-2.0551,-2.0557,-2.0517,-2.056,-2.0673,-2.0869,-2.0977,-2.0732,-2.0615,-2.0625,-2.0635,-2.0615,-2.0615,-2.0615,-2.0615,-2.0615,-1.2649,-1.26,-1.2227,-1.2065,-1.2008,-1.1874,-1.1801,-1.1841,-1.1837,-1.1837,-1.1837,-1.1837,-1.1837,-1.1837,-1.1837,-1.1837,-1.1837,-1.1837,-1.1837,-1.1837,-1.1756,-1.1804,-1.1736,-1.1598,-1.1512,-1.1411,-1.1309,-1.1265,-1.1236,-1.1294,-1.1392,-1.1408,-1.1518,-1.1788,-1.2357,-1.2578,-1.3093,-1.4008,-1.4283,-1.4719,-1.5422,-1.5791,-1.5951,-1.6051,-1.6271,-1.659,-1.6796,-1.7113,-1.7371,-1.7528,-1.7328,-1.7273,-1.7206,-1.6921,-1.6633,-1.6509,-1.6422,-1.6395,-1.6219,-1.6059,-1.5932,-1.5845,-1.5825,-1.5825,-1.5825,-1.5825,-1.5825,-1.5825,-1.5825,-1.5825,-1.5927,-1.6076,-1.6353,-1.6595,-1.6838,-1.7019,-1.7239,-1.7286,-1.7286,-1.7286,-1.7286,-1.7286,-1.7286,-1.7286,-1.7286,-1.7286,-1.7286,-1.7286,-1.738,-1.7621,-1.7717,-1.8149,-1.8698,-1.9368,-1.9645,-1.9913,-2.0162,-2.0316,-2.0208,-2.0044,-2.0099,-2.0163,-2.022,-2.0351,-2.0595,-2.0742,-2.0664,-2.0615,-2.0615,-2.0615,-2.0615,-2.0615,-2.0615,-2.0615,-2.0615,-1.2259,-1.2247,-1.2093,-1.1971,-1.1882,-1.1801,-1.1837,-1.1837,-1.1837,-1.1837,-1.1837,-1.1837,-1.1837,-1.1837,-1.1837,-1.1837,-1.1837,-1.1828,-1.1837,-1.1788,-1.1679,-1.1618,-1.1573,-1.1431,-1.1313,-1.1212,-1.1118,-1.1005,-1.0992,-1.1017,-1.1105,-1.1069,-1.1202,-1.1444,-1.1955,-1.2278,-1.2767,-1.3413,-1.3959,-1.4659,-1.5315,-1.5636,-1.5743,-1.5885,-1.6164,-1.6324,-1.653,-1.6961,-1.7128,-1.7173,-1.7085,-1.7119,-1.6881,-1.664,-1.6393,-1.6299,-1.6106,-1.6032,-1.5992,-1.5899,-1.5845,-1.5825,-1.5825,-1.5825,-1.5825,-1.5825,-1.5825,-1.5825,-1.5825,-1.5825,-1.5825,-1.5927,-1.6116,-1.6359,-1.665,-1.6878,-1.7059,-1.7239,-1.7286,-1.7286,-1.7286,-1.7286,-1.7286,-1.7286,-1.7286,-1.7286,-1.7279,-1.7264,-1.7466,-1.7761,-1.7811,-1.7865,-1.8401,-1.9019,-1.9148,-1.9299,-1.9592,-1.9731,-1.9738,-1.9644,-1.9799,-1.9897,-2.0019,-2.0225,-2.0508,-2.0615,-2.0576,-2.0615,-2.0615,-2.0615,-2.0615,-2.0615,-2.0615,-2.0615,-2.0615,-1.1967,-1.1963,-1.1967,-1.1894,-1.1841,-1.1837,-1.1837,-1.1837,-1.1837,-1.1837,-1.1837,-1.1837,-1.1837,-1.1837,-1.1837,-1.1837,-1.1837,-1.1732,-1.1711,-1.1646,-1.1541,-1.1443,-1.1378,-1.1244,-1.1098,-1.0964,-1.0928,-1.0846,-1.0802,-1.081,-1.0826,-1.0696,-1.094,-1.1194,-1.1518,-1.1946,-1.2436,-1.3039,-1.3797,-1.4498,-1.5041,-1.5374,-1.5583,-1.5791,-1.6057,-1.6211,-1.6371,-1.6647,-1.6756,-1.6859,-1.6801,-1.6811,-1.6587,-1.6333,-1.6172,-1.6092,-1.5952,-1.5872,-1.5865,-1.5838,-1.5825,-1.5825,-1.5825,-1.5825,-1.5825,-1.5825,-1.5825,-1.5825,-1.5825,-1.5825,-1.5825,-1.5825,-1.5974,-1.617,-1.6414,-1.6643,-1.6831,-1.7012,-1.72,-1.72,-1.72,-1.7286,-1.7286,-1.7286,-1.7286,-1.7286,-1.7271,-1.7289,-1.7424,-1.7618,-1.7614,-1.7567,-1.7982,-1.8498,-1.8604,-1.876,-1.9029,-1.9272,-1.9276,-1.9356,-1.9534,-1.9771,-1.996,-2.0186,-2.042,-2.0537,-2.0615,-2.0615,-2.0615,-2.0615,-2.0615,-2.0615,-2.0615,-2.0615,-2.0615,-1.1792,-1.1792,-1.1797,-1.1792,-1.1837,-1.1837,-1.1837,-1.1837,-1.1837,-1.1837,-1.1837,-1.1837,-1.1837,-1.1828,-1.1812,-1.1748,-1.1756,-1.1593,-1.1533,-1.1459,-1.1342,-1.1261,-1.1187,-1.1086,-1.0972,-1.0923,-1.083,-1.0741,-1.07,-1.072,-1.072,-1.0747,-1.0802,-1.0911,-1.124,-1.1673,-1.2169,-1.2822,-1.3635,-1.4121,-1.4606,-1.5047,-1.5482,-1.5583,-1.5791,-1.6045,-1.6246,-1.6384,-1.6446,-1.6523,-1.6537,-1.6462,-1.6279,-1.6072,-1.5945,-1.5912,-1.5885,-1.5825,-1.5825,-1.5825,-1.5825,-1.5825,-1.5825,-1.5825,-1.5825,-1.5825,-1.5825,-1.5825,-1.5825,-1.5825,-1.5825,-1.5825,-1.5927,-1.6076,-1.6218,-1.6407,-1.6643,-1.6838,-1.6972,-1.7019,-1.7113,-1.72,-1.726,-1.7245,-1.725,-1.7257,-1.7172,-1.7135,-1.7029,-1.7175,-1.7221,-1.7268,-1.758,-1.7892,-1.8034,-1.8271,-1.8646,-1.8949,-1.9074,-1.921,-1.9359,-1.9587,-1.9951,-2.0098,-2.0294,-2.045,-2.0615,-2.0615,-2.0615,-2.0615,-2.0615,-2.0615,-2.0615,-2.0615,-2.0615,-1.1837,-1.1837,-1.1837,-1.1837,-1.1837,-1.1837,-1.1837,-1.1837,-1.1837,-1.1837,-1.1837,-1.1837,-1.1837,-1.1748,-1.1642,-1.1606,-1.1581,-1.1411,-1.135,-1.1273,-1.1167,-1.1082,-1.1009,-1.0915,-1.0798,-1.0794,-1.072,-1.0692,-1.0692,-1.0692,-1.0692,-1.0692,-1.0692,-1.0857,-1.1126,-1.1564,-1.2114,-1.255,-1.3256,-1.3797,-1.4337,-1.4826,-1.5315,-1.5535,-1.5546,-1.5715,-1.5811,-1.5997,-1.6011,-1.6071,-1.619,-1.6157,-1.6052,-1.5885,-1.5838,-1.5825,-1.5825,-1.5825,-1.5825,-1.5825,-1.5825,-1.5825,-1.5825,-1.5825,-1.5825,-1.5825,-1.5825,-1.5825,-1.5825,-1.5825,-1.5825,-1.5825,-1.5879,-1.5981,-1.6076,-1.6218,-1.6407,-1.6595,-1.6791,-1.6831,-1.7019,-1.716,-1.7152,-1.7143,-1.7216,-1.7213,-1.7113,-1.6938,-1.6801,-1.6751,-1.6808,-1.686,-1.7106,-1.7477,-1.7622,-1.796,-1.8284,-1.8651,-1.8922,-1.9112,-1.9311,-1.9627,-1.9951,-2.0059,-2.0216,-2.045,-2.0566,-2.0605,-2.0615,-2.0615,-2.0615,-2.0615,-2.0615,-2.0615,-2.0615,-1.1837,-1.1837,-1.1837,-1.1837,-1.1837,-1.1837,-1.1837,-1.1837,-1.1837,-1.1837,-1.1833,-1.1732,-1.1691,-1.1642,-1.1508,-1.1419,-1.137,-1.1244,-1.1167,-1.1082,-1.0984,-1.0903,-1.0838,-1.0781,-1.0716,-1.0692,-1.0692,-1.0692,-1.0692,-1.0692,-1.0692,-1.0692,-1.0747,-1.0802,-1.1021,-1.1564,-1.2005,-1.2332,-1.2881,-1.3369,-1.3905,-1.4469,-1.4862,-1.5199,-1.5315,-1.5396,-1.5415,-1.5531,-1.5632,-1.5665,-1.5797,-1.5943,-1.5864,-1.5825,-1.5825,-1.5825,-1.5825,-1.5825,-1.5825,-1.5825,-1.5825,-1.5825,-1.5825,-1.5825,-1.5825,-1.5825,-1.5825,-1.5825,-1.5825,-1.5825,-1.5825,-1.5825,-1.5825,-1.5879,-1.5933,-1.6076,-1.617,-1.6312,-1.6501,-1.6643,-1.6774,-1.6786,-1.6849,-1.6795,-1.6799,-1.6857,-1.6784,-1.6587,-1.6397,-1.6366,-1.6428,-1.647,-1.6572,-1.6961,-1.7327,-1.7702,-1.8076,-1.8593,-1.8891,-1.9112,-1.9311,-1.9666,-1.9863,-1.9981,-2.0177,-2.045,-2.0566,-2.0605,-2.0615,-2.0615,-2.0615,-2.0615,-2.0615,-2.0615,-2.0615,-1.1837,-1.1837,-1.1837,-1.1837,-1.1837,-1.1837,-1.1837,-1.1772,-1.1816,-1.1748,-1.178,-1.1585,-1.1504,-1.1464,-1.1313,-1.124,-1.1196,-1.1057,-1.0972,-1.0928,-1.083,-1.0729,-1.0716,-1.07,-1.0692,-1.0692,-1.0692,-1.0692,-1.0692,-1.0692,-1.0692,-1.0692,-1.0692,-1.0692,-1.0747,-1.1295,-1.1732,-1.206,-1.2609,-1.3039,-1.3449,-1.3959,-1.4376,-1.4723,-1.495,-1.5011,-1.5109,-1.5146,-1.5275,-1.5456,-1.5566,-1.5701,-1.5798,-1.5778,-1.5825,-1.5825,-1.5825,-1.5825,-1.5825,-1.5825,-1.5825,-1.5825,-1.5825,-1.5825,-1.5825,-1.5825,-1.5825,-1.5825,-1.5825,-1.5825,-1.5825,-1.5825,-1.5825,-1.5825,-1.5879,-1.5879,-1.5974,-1.5967,-1.6135,-1.6273,-1.626,-1.625,-1.6371,-1.6429,-1.6381,-1.6382,-1.6382,-1.6235,-1.6009,-1.597,-1.6052,-1.6189,-1.6281,-1.6643,-1.7049,-1.7432,-1.7878,-1.8442,-1.8851,-1.9042,-1.9231,-1.9508,-1.9706,-1.9863,-2.0137,-2.0411,-2.0527,-2.0615,-2.0615,-2.0615,-2.0615,-2.0615,-2.0615,-2.0615,-2.0615,-1.1837,-1.1837,-1.1837,-1.1837,-1.1837,-1.1837,-1.1837,-1.1812,-1.1658,-1.1593,-1.1553,-1.1399,-1.1317,-1.1261,-1.1147,-1.1053,-1.1021,-1.0871,-1.0785,-1.0781,-1.0716,-1.0704,-1.0692,-1.0692,-1.0692,-1.0692,-1.0692,-1.0692,-1.0692,-1.0692,-1.0692,-1.0692,-1.0692,-1.0692,-1.0802,-1.1131,-1.1404,-1.1787,-1.2264,-1.2758,-1.3098,-1.363,-1.4041,-1.4356,-1.4527,-1.4648,-1.4835,-1.4832,-1.4971,-1.5206,-1.5328,-1.5553,-1.5737,-1.5784,-1.5825,-1.5825,-1.5825,-1.5825,-1.5825,-1.5825,-1.5825,-1.5825,-1.5825,-1.5825,-1.5825,-1.5825,-1.5825,-1.5825,-1.5825,-1.5825,-1.5825,-1.5825,-1.5825,-1.5825,-1.5832,-1.5832,-1.5839,-1.5698,-1.5683,-1.5787,-1.5801,-1.5772,-1.5817,-1.595,-1.5944,-1.5943,-1.5951,-1.5906,-1.5701,-1.5621,-1.5673,-1.5868,-1.6042,-1.6392,-1.6779,-1.7261,-1.7749,-1.8322,-1.8683,-1.8922,-1.9161,-1.939,-1.9666,-1.9863,-2.0098,-2.0381,-2.0498,-2.0615,-2.0615,-2.0615,-2.0615,-2.0615,-2.0615,-2.0615,-2.0615,-1.1837,-1.1837,-1.1837,-1.1837,-1.1837,-1.1837,-1.1748,-1.1671,-1.1549,-1.1468,-1.1374,-1.1216,-1.1135,-1.1086,-1.0964,-1.0871,-1.0858,-1.0761,-1.0696,-1.0692,-1.0692,-1.0692,-1.0692,-1.0692,-1.0692,-1.0692,-1.0692,-1.0692,-1.0692,-1.0692,-1.0692,-1.0692,-1.0688,-1.0643,-1.069,-1.0904,-1.1252,-1.1543,-1.1972,-1.237,-1.2795,-1.3226,-1.3629,-1.3976,-1.4193,-1.4276,-1.4479,-1.4618,-1.4694,-1.4981,-1.522,-1.5452,-1.5642,-1.5784,-1.5778,-1.5825,-1.5825,-1.5825,-1.5825,-1.5825,-1.5825,-1.5825,-1.5825,-1.5825,-1.5825,-1.5825,-1.5825,-1.5825,-1.5825,-1.5825,-1.5825,-1.5825,-1.5818,-1.5818,-1.5718,-1.5718,-1.5605,-1.5457,-1.5283,-1.5391,-1.5304,-1.5216,-1.5226,-1.534,-1.5454,-1.5481,-1.5522,-1.5484,-1.5433,-1.5452,-1.5465,-1.5665,-1.5955,-1.6286,-1.6697,-1.7147,-1.7627,-1.8152,-1.8523,-1.8843,-1.9033,-1.9311,-1.9587,-1.9824,-2.002,-2.0225,-2.0498,-2.0615,-2.0615,-2.0615,-2.0615,-2.0615,-2.0615,-2.0615,-2.0615,-1.1837,-1.1837,-1.1768,-1.176,-1.176,-1.1727,-1.1638,-1.1492,-1.1472,-1.137,-1.1208,-1.1037,-1.1016,-1.0923,-1.0777,-1.0716,-1.072,-1.07,-1.0692,-1.0692,-1.0692,-1.0692,-1.0692,-1.0692,-1.0692,-1.0692,-1.0692,-1.0692,-1.0692,-1.0692,-1.0692,-1.0664,-1.0639,-1.0554,-1.0567,-1.0721,-1.1052,-1.1305,-1.1531,-1.2002,-1.2457,-1.2679,-1.3145,-1.3562,-1.382,-1.4007,-1.4214,-1.4358,-1.4496,-1.4742,-1.4987,-1.522,-1.5452,-1.5689,-1.573,-1.5825,-1.5825,-1.5825,-1.5825,-1.5825,-1.5825,-1.5825,-1.5825,-1.5825,-1.5825,-1.5825,-1.5825,-1.5825,-1.5825,-1.5825,-1.5825,-1.5818,-1.5805,-1.5698,-1.5545,-1.5458,-1.5351,-1.5184,-1.5003,-1.4894,-1.47,-1.4638,-1.4703,-1.4811,-1.5071,-1.5267,-1.5336,-1.5405,-1.5403,-1.5403,-1.5472,-1.5624,-1.5873,-1.6203,-1.6615,-1.7025,-1.7473,-1.7991,-1.8442,-1.8772,-1.8993,-1.9183,-1.9469,-1.9706,-1.9863,-2.0098,-2.045,-2.0615,-2.0615,-2.0615,-2.0615,-2.0615,-2.0615,-2.0615,-2.0615,-1.1837,-1.1824,-1.1634,-1.1577,-1.1561,-1.1439,-1.135,-1.1293,-1.1179,-1.1082,-1.1029,-1.0854,-1.0849,-1.0761,-1.0716,-1.0696,-1.0692,-1.0692,-1.0692,-1.0692,-1.0692,-1.0692,-1.0692,-1.0692,-1.0692,-1.0692,-1.0692,-1.0692,-1.0692,-1.0688,-1.0599,-1.0526,-1.0509,-1.04,-1.0371,-1.0396,-1.0687,-1.098,-1.1168,-1.1578,-1.2013,-1.2324,-1.272,-1.3084,-1.3511,-1.3781,-1.4022,-1.4202,-1.44,-1.4694,-1.479,-1.5022,-1.5499,-1.5588,-1.5635,-1.5778,-1.5825,-1.5825,-1.5825,-1.5825,-1.5825,-1.5825,-1.5825,-1.5825,-1.5825,-1.5825,-1.5825,-1.5825,-1.5818,-1.5818,-1.5765,-1.5738,-1.5651,-1.5491,-1.5337,-1.5211,-1.5077,-1.4856,-1.4689,-1.4596,-1.4402,-1.4368,-1.4383,-1.4496,-1.479,-1.502,-1.518,-1.5257,-1.534,-1.5389,-1.5431,-1.5548,-1.5831,-1.6162,-1.6492,-1.6861,-1.7302,-1.7789,-1.8282,-1.8692,-1.8922,-1.9152,-1.939,-1.9627,-1.9902,-2.0216,-2.0527,-2.0615,-2.0615,-2.0615,-2.0615,-2.0615,-2.0615,-2.0615,-2.0615,-1.1622,-1.1545,-1.1439,-1.1354,-1.1277,-1.1171,-1.1086,-1.1017,-1.0976,-1.0936,-1.0846,-1.0745,-1.0692,-1.07,-1.0696,-1.0692,-1.0692,-1.0692,-1.0692,-1.0692,-1.0692,-1.0692,-1.0692,-1.0692,-1.0692,-1.0692,-1.0692,-1.0692,-1.0664,-1.059,-1.0501,-1.0339,-1.0327,-1.0213,-1.0111,-1.011,-1.0266,-1.0561,-1.085,-1.1203,-1.1582,-1.1999,-1.2382,-1.2753,-1.3206,-1.3593,-1.3883,-1.416,-1.44,-1.4544,-1.4592,-1.4831,-1.5261,-1.5356,-1.554,-1.5683,-1.5778,-1.5778,-1.5825,-1.5825,-1.5825,-1.5818,-1.5805,-1.5825,-1.5825,-1.5825,-1.5825,-1.5825,-1.5812,-1.5744,-1.5664,-1.5618,-1.5438,-1.5251,-1.511,-1.4963,-1.475,-1.4509,-1.4409,-1.4342,-1.4285,-1.4226,-1.4243,-1.4321,-1.4482,-1.4699,-1.4957,-1.518,-1.5257,-1.534,-1.5389,-1.5472,-1.5797,-1.6128,-1.6417,-1.6738,-1.7188,-1.7627,-1.8161,-1.8563,-1.8834,-1.9152,-1.939,-1.9706,-2.0029,-2.0303,-2.0537,-2.0576,-2.0615,-2.0615,-2.0615,-2.0615,-2.0615,-2.0615,-2.0615,-1.1378,-1.1232,-1.1208,-1.1106,-1.096,-1.0948,-1.0858,-1.072,-1.0867,-1.085,-1.072,-1.0696,-1.0692,-1.0692,-1.0692,-1.0692,-1.0692,-1.0692,-1.0692,-1.0692,-1.0692,-1.0692,-1.0692,-1.0692,-1.0692,-1.0692,-1.0655,-1.0595,-1.0578,-1.0477,-1.0318,-1.02,-1.0192,-1.0098,-0.99,-0.9872,-0.9978,-1.0117,-1.0456,-1.0806,-1.1234,-1.1697,-1.2224,-1.2667,-1.3152,-1.3545,-1.3829,-1.4064,-1.4298,-1.4346,-1.4496,-1.4688,-1.4879,-1.5166,-1.5404,-1.554,-1.5683,-1.5724,-1.5698,-1.5718,-1.5691,-1.5705,-1.5704,-1.5658,-1.5591,-1.5678,-1.5685,-1.5651,-1.5618,-1.5491,-1.5398,-1.5344,-1.5204,-1.5003,-1.4823,-1.4669,-1.4482,-1.4309,-1.4242,-1.4188,-1.4168,-1.4166,-1.4166,-1.4243,-1.4321,-1.4482,-1.465,-1.4915,-1.5131,-1.5257,-1.534,-1.5389,-1.5714,-1.6004,-1.6252,-1.6582,-1.7025,-1.7514,-1.8,-1.8402,-1.8723,-1.9073,-1.942,-1.9706,-1.9951,-2.0225,-2.0459,-2.0537,-2.0576,-2.0615,-2.0615,-2.0615,-2.0615,-2.0615,-2.0615,-1.1265,-1.1208,-1.1082,-1.0928,-1.0769,-1.0757,-1.0741,-1.0696,-1.0737,-1.0741,-1.0696,-1.0692,-1.0692,-1.0692,-1.0692,-1.0692,-1.0692,-1.0692,-1.0692,-1.0692,-1.0692,-1.0692,-1.0684,-1.0668,-1.0676,-1.0647,-1.0574,-1.0432,-1.0322,-1.0233,-1.014,-0.9973,-1.0,-0.9864,-0.973,-0.9713,-0.9731,-0.978,-1.0061,-1.0496,-1.0923,-1.1389,-1.1878,-1.2273,-1.271,-1.3201,-1.3539,-1.3877,-1.4112,-1.425,-1.4346,-1.449,-1.4694,-1.5029,-1.5267,-1.5452,-1.5493,-1.5556,-1.5538,-1.5511,-1.5431,-1.5297,-1.5231,-1.5236,-1.5269,-1.5398,-1.5464,-1.5418,-1.5344,-1.5256,-1.5129,-1.5089,-1.5001,-1.4743,-1.4549,-1.4389,-1.4235,-1.4168,-1.4095,-1.4088,-1.4088,-1.413,-1.413,-1.4166,-1.4243,-1.4314,-1.4391,-1.4608,-1.4957,-1.5131,-1.5215,-1.534,-1.5582,-1.5873,-1.6128,-1.6458,-1.6902,-1.7351,-1.7838,-1.8201,-1.8612,-1.9033,-1.942,-1.9587,-1.9872,-2.0108,-2.0352,-2.0508,-2.0576,-2.0576,-2.0615,-2.0615,-2.0615,-2.0615,-2.0615,-1.1062,-1.098,-1.0887,-1.0789,-1.0704,-1.0692,-1.0692,-1.0692,-1.0692,-1.0692,-1.0692,-1.0692,-1.0692,-1.0692,-1.0692,-1.0692,-1.0692,-1.0692,-1.0692,-1.0692,-1.068,-1.0692,-1.0672,-1.0611,-1.0574,-1.0534,-1.0387,-1.0233,-1.0071,-1.0026,-0.9953,-0.9807,-0.9766,-0.973,-0.9624,-0.9624,-0.9624,-0.9628,-0.9871,-1.0212,-1.0654,-1.1145,-1.1634,-1.2029,-1.2516,-1.2958,-1.3298,-1.3636,-1.3925,-1.416,-1.4202,-1.4346,-1.4544,-1.4742,-1.4975,-1.5118,-1.5201,-1.5339,-1.5364,-1.5305,-1.5173,-1.5092,-1.4977,-1.5044,-1.5035,-1.513,-1.5097,-1.5064,-1.5182,-1.5075,-1.483,-1.4743,-1.4603,-1.4409,-1.4322,-1.4215,-1.4155,-1.4122,-1.4088,-1.4088,-1.4088,-1.4088,-1.413,-1.413,-1.4208,-1.4201,-1.4279,-1.4391,-1.4699,-1.4915,-1.5048,-1.5257,-1.5458,-1.579,-1.6087,-1.6417,-1.6771,-1.718,-1.7627,-1.8161,-1.8643,-1.9033,-1.9381,-1.9548,-1.9715,-1.9931,-2.0166,-2.0352,-2.0537,-2.0566,-2.0605,-2.0615,-2.0615,-2.0615,-2.0615,-1.0846,-1.07,-1.0696,-1.0692,-1.0692,-1.0692,-1.0692,-1.0692,-1.0692,-1.0692,-1.0692,-1.0692,-1.0692,-1.0692,-1.0692,-1.0692,-1.0692,-1.0692,-1.0692,-1.068,-1.0651,-1.0623,-1.0558,-1.0489,-1.0404,-1.0306,-1.0184,-1.0022,-0.986,-0.9839,-0.9786,-0.9652,-0.9624,-0.9624,-0.9624,-0.9624,-0.9624,-0.9628,-0.9826,-1.0068,-1.0458,-1.09,-1.1389,-1.1927,-1.237,-1.2764,-1.3104,-1.3448,-1.3738,-1.3931,-1.407,-1.4256,-1.4346,-1.4544,-1.4688,-1.4831,-1.4981,-1.5121,-1.5201,-1.5072,-1.5068,-1.5054,-1.4985,-1.4845,-1.4779,-1.475,-1.4716,-1.478,-1.4854,-1.4814,-1.4569,-1.4442,-1.4289,-1.4195,-1.4142,-1.4108,-1.4095,-1.4088,-1.4088,-1.4088,-1.4088,-1.4088,-1.4088,-1.4088,-1.413,-1.4124,-1.4208,-1.4321,-1.444,-1.4615,-1.4783,-1.5041,-1.5284,-1.5624,-1.6004,-1.6294,-1.6566,-1.7098,-1.7546,-1.8152,-1.8683,-1.8993,-1.9271,-1.9469,-1.9636,-1.9813,-1.997,-2.0127,-2.0303,-2.0498,-2.0489,-2.0498,-2.0615,-2.0615,-2.0615,-1.0729,-1.0692,-1.0692,-1.0692,-1.0692,-1.0692,-1.0692,-1.0692,-1.0684,-1.0692,-1.0664,-1.068,-1.0692,-1.0688,-1.0692,-1.068,-1.0647,-1.0647,-1.0676,-1.0684,-1.0534,-1.0493,-1.0428,-1.0298,-1.0136,-1.0034,-0.9949,-0.9843,-0.9746,-0.9705,-0.9673,-0.9628,-0.9624,-0.9624,-0.9624,-0.9624,-0.9628,-0.9628,-0.9677,-0.9826,-1.0167,-1.0605,-1.1145,-1.1487,-1.1785,-1.2278,-1.2716,-1.2958,-1.3249,-1.3539,-1.3835,-1.407,-1.4208,-1.4352,-1.4448,-1.4592,-1.4736,-1.4797,-1.4826,-1.4786,-1.4778,-1.4597,-1.4497,-1.4401,-1.4345,-1.4342,-1.4315,-1.4309,-1.4398,-1.4392,-1.4222,-1.4222,-1.4128,-1.4128,-1.4095,-1.4095,-1.4088,-1.4088,-1.4088,-1.4088,-1.4088,-1.4088,-1.4088,-1.4088,-1.4088,-1.413,-1.413,-1.4201,-1.4321,-1.4447,-1.4524,-1.4776,-1.5075,-1.5541,-1.5963,-1.6087,-1.6409,-1.6894,-1.7424,-1.8,-1.8482,-1.8843,-1.9121,-1.932,-1.9478,-1.9645,-1.9803,-1.9931,-2.0097,-2.0244,-2.0303,-2.0381,-2.0498,-2.0615,-2.0615]}]]